<?xml version="1.0" encoding="UTF-8" standalone="no" ?>
<gpx xmlns="http://www.topografix.com/GPX/1/1" xmlns:xsi="http://www.w3.org/2001/XMLSchema-instance" xsi:schemaLocation="http://www.topografix.com/GPX/1/1 http://www.topografix.com/GPX/1/1/gpx.xsd" version="1.1" creator="VisuGPX - https://www.visugpx.com">
  <metadata>
    <name>Durtol</name>
    <desc><![CDATA[Pour VVN]]></desc>
  </metadata>
  <trk>
    <name><![CDATA[Durtol_1]]></name>
    <trkseg>
      <trkpt lat="45.79944" lon="3.05437">
        <ele>502</ele>
        <time>2019-03-09T10:33:54Z</time>
      </trkpt>
      <trkpt lat="45.79945" lon="3.05436">
        <ele>502</ele>
        <time>2019-03-09T10:34:54Z</time>
      </trkpt>
      <trkpt lat="45.79939" lon="3.05431">
        <ele>502</ele>
        <time>2019-03-09T10:35:54Z</time>
      </trkpt>
      <trkpt lat="45.79936" lon="3.05432">
        <ele>502</ele>
        <time>2019-03-09T10:36:54Z</time>
      </trkpt>
      <trkpt lat="45.79926" lon="3.0544">
        <ele>503</ele>
        <time>2019-03-09T10:37:54Z</time>
      </trkpt>
      <trkpt lat="45.79922" lon="3.0545">
        <ele>502</ele>
        <time>2019-03-09T10:38:54Z</time>
      </trkpt>
      <trkpt lat="45.79919" lon="3.05462">
        <ele>502</ele>
        <time>2019-03-09T10:39:54Z</time>
      </trkpt>
      <trkpt lat="45.79916" lon="3.0547">
        <ele>502</ele>
        <time>2019-03-09T10:40:54Z</time>
      </trkpt>
      <trkpt lat="45.7991" lon="3.05485">
        <ele>502</ele>
        <time>2019-03-09T10:41:54Z</time>
      </trkpt>
      <trkpt lat="45.79907" lon="3.05494">
        <ele>502</ele>
        <time>2019-03-09T10:42:54Z</time>
      </trkpt>
      <trkpt lat="45.79891" lon="3.05527">
        <ele>502</ele>
        <time>2019-03-09T10:43:54Z</time>
      </trkpt>
      <trkpt lat="45.79889" lon="3.05538">
        <ele>502</ele>
        <time>2019-03-09T10:44:54Z</time>
      </trkpt>
      <trkpt lat="45.79894" lon="3.05542">
        <ele>502</ele>
        <time>2019-03-09T10:45:54Z</time>
      </trkpt>
      <trkpt lat="45.79921" lon="3.05542">
        <ele>501</ele>
        <time>2019-03-09T10:46:54Z</time>
      </trkpt>
      <trkpt lat="45.79927" lon="3.05543">
        <ele>501</ele>
        <time>2019-03-09T10:47:54Z</time>
      </trkpt>
      <trkpt lat="45.79933" lon="3.05547">
        <ele>501</ele>
        <time>2019-03-09T10:48:54Z</time>
      </trkpt>
      <trkpt lat="45.7994" lon="3.05552">
        <ele>501</ele>
        <time>2019-03-09T10:49:54Z</time>
      </trkpt>
      <trkpt lat="45.79951" lon="3.05563">
        <ele>501</ele>
        <time>2019-03-09T10:50:54Z</time>
      </trkpt>
      <trkpt lat="45.79957" lon="3.05569">
        <ele>501</ele>
        <time>2019-03-09T10:51:54Z</time>
      </trkpt>
      <trkpt lat="45.79963" lon="3.05574">
        <ele>501</ele>
        <time>2019-03-09T10:52:54Z</time>
      </trkpt>
      <trkpt lat="45.79968" lon="3.05579">
        <ele>501</ele>
        <time>2019-03-09T10:53:54Z</time>
      </trkpt>
      <trkpt lat="45.7998" lon="3.05586">
        <ele>501</ele>
        <time>2019-03-09T10:54:54Z</time>
      </trkpt>
      <trkpt lat="45.79986" lon="3.05589">
        <ele>501</ele>
        <time>2019-03-09T10:55:54Z</time>
      </trkpt>
      <trkpt lat="45.80006" lon="3.05594">
        <ele>501</ele>
        <time>2019-03-09T10:56:54Z</time>
      </trkpt>
      <trkpt lat="45.80011" lon="3.05596">
        <ele>501</ele>
        <time>2019-03-09T10:57:54Z</time>
      </trkpt>
      <trkpt lat="45.8002" lon="3.05597">
        <ele>501</ele>
        <time>2019-03-09T10:58:54Z</time>
      </trkpt>
      <trkpt lat="45.80025" lon="3.05598">
        <ele>501</ele>
        <time>2019-03-09T10:59:54Z</time>
      </trkpt>
      <trkpt lat="45.80069" lon="3.05607">
        <ele>501</ele>
        <time>2019-03-09T11:00:54Z</time>
      </trkpt>
      <trkpt lat="45.80074" lon="3.05608">
        <ele>502</ele>
        <time>2019-03-09T11:01:54Z</time>
      </trkpt>
      <trkpt lat="45.8009" lon="3.05613">
        <ele>501</ele>
        <time>2019-03-09T11:02:54Z</time>
      </trkpt>
      <trkpt lat="45.80098" lon="3.05615">
        <ele>501</ele>
        <time>2019-03-09T11:03:54Z</time>
      </trkpt>
      <trkpt lat="45.80104" lon="3.0562">
        <ele>500</ele>
        <time>2019-03-09T11:04:54Z</time>
      </trkpt>
      <trkpt lat="45.80105" lon="3.05632">
        <ele>500</ele>
        <time>2019-03-09T11:05:54Z</time>
      </trkpt>
      <trkpt lat="45.80105" lon="3.05641">
        <ele>501</ele>
        <time>2019-03-09T11:06:54Z</time>
      </trkpt>
      <trkpt lat="45.80109" lon="3.0565">
        <ele>501</ele>
        <time>2019-03-09T11:07:54Z</time>
      </trkpt>
      <trkpt lat="45.80114" lon="3.05657">
        <ele>501</ele>
        <time>2019-03-09T11:08:54Z</time>
      </trkpt>
      <trkpt lat="45.8012" lon="3.05664">
        <ele>500</ele>
        <time>2019-03-09T11:09:54Z</time>
      </trkpt>
      <trkpt lat="45.80124" lon="3.05668">
        <ele>500</ele>
        <time>2019-03-09T11:10:54Z</time>
      </trkpt>
      <trkpt lat="45.80133" lon="3.05673">
        <ele>500</ele>
        <time>2019-03-09T11:11:54Z</time>
      </trkpt>
      <trkpt lat="45.80138" lon="3.05675">
        <ele>500</ele>
        <time>2019-03-09T11:12:54Z</time>
      </trkpt>
      <trkpt lat="45.8019" lon="3.05683">
        <ele>497</ele>
        <time>2019-03-09T11:13:54Z</time>
      </trkpt>
      <trkpt lat="45.80196" lon="3.05684">
        <ele>497</ele>
        <time>2019-03-09T11:14:54Z</time>
      </trkpt>
      <trkpt lat="45.80212" lon="3.05689">
        <ele>496</ele>
        <time>2019-03-09T11:15:54Z</time>
      </trkpt>
      <trkpt lat="45.80217" lon="3.0569">
        <ele>496</ele>
        <time>2019-03-09T11:16:54Z</time>
      </trkpt>
      <trkpt lat="45.80227" lon="3.05694">
        <ele>496</ele>
        <time>2019-03-09T11:17:54Z</time>
      </trkpt>
      <trkpt lat="45.80232" lon="3.05696">
        <ele>495</ele>
        <time>2019-03-09T11:18:54Z</time>
      </trkpt>
      <trkpt lat="45.80245" lon="3.05702">
        <ele>495</ele>
        <time>2019-03-09T11:19:54Z</time>
      </trkpt>
      <trkpt lat="45.80249" lon="3.05704">
        <ele>495</ele>
        <time>2019-03-09T11:20:54Z</time>
      </trkpt>
      <trkpt lat="45.80274" lon="3.05724">
        <ele>494</ele>
        <time>2019-03-09T11:21:54Z</time>
      </trkpt>
      <trkpt lat="45.80279" lon="3.05729">
        <ele>494</ele>
        <time>2019-03-09T11:22:54Z</time>
      </trkpt>
      <trkpt lat="45.803" lon="3.05749">
        <ele>493</ele>
        <time>2019-03-09T11:23:54Z</time>
      </trkpt>
      <trkpt lat="45.80307" lon="3.05753">
        <ele>493</ele>
        <time>2019-03-09T11:24:54Z</time>
      </trkpt>
      <trkpt lat="45.80314" lon="3.05755">
        <ele>492</ele>
        <time>2019-03-09T11:25:54Z</time>
      </trkpt>
      <trkpt lat="45.80329" lon="3.05757">
        <ele>491</ele>
        <time>2019-03-09T11:26:54Z</time>
      </trkpt>
      <trkpt lat="45.80336" lon="3.05756">
        <ele>490</ele>
        <time>2019-03-09T11:27:54Z</time>
      </trkpt>
      <trkpt lat="45.80342" lon="3.05756">
        <ele>489</ele>
        <time>2019-03-09T11:28:54Z</time>
      </trkpt>
      <trkpt lat="45.80355" lon="3.05753">
        <ele>486</ele>
        <time>2019-03-09T11:29:54Z</time>
      </trkpt>
      <trkpt lat="45.80361" lon="3.05751">
        <ele>485</ele>
        <time>2019-03-09T11:30:54Z</time>
      </trkpt>
      <trkpt lat="45.80373" lon="3.05751">
        <ele>483</ele>
        <time>2019-03-09T11:31:54Z</time>
      </trkpt>
      <trkpt lat="45.8038" lon="3.0575">
        <ele>482</ele>
        <time>2019-03-09T11:32:54Z</time>
      </trkpt>
      <trkpt lat="45.80428" lon="3.05741">
        <ele>476</ele>
        <time>2019-03-09T11:33:54Z</time>
      </trkpt>
      <trkpt lat="45.80438" lon="3.05739">
        <ele>475</ele>
        <time>2019-03-09T11:34:54Z</time>
      </trkpt>
      <trkpt lat="45.80449" lon="3.05735">
        <ele>473</ele>
        <time>2019-03-09T11:35:54Z</time>
      </trkpt>
      <trkpt lat="45.80469" lon="3.05724">
        <ele>471</ele>
        <time>2019-03-09T11:36:54Z</time>
      </trkpt>
      <trkpt lat="45.80479" lon="3.05718">
        <ele>470</ele>
        <time>2019-03-09T11:37:54Z</time>
      </trkpt>
      <trkpt lat="45.80533" lon="3.05681">
        <ele>465</ele>
        <time>2019-03-09T11:38:54Z</time>
      </trkpt>
      <trkpt lat="45.80541" lon="3.05677">
        <ele>465</ele>
        <time>2019-03-09T11:39:54Z</time>
      </trkpt>
      <trkpt lat="45.8055" lon="3.05674">
        <ele>464</ele>
        <time>2019-03-09T11:40:54Z</time>
      </trkpt>
      <trkpt lat="45.80568" lon="3.05672">
        <ele>463</ele>
        <time>2019-03-09T11:41:54Z</time>
      </trkpt>
      <trkpt lat="45.80576" lon="3.05671">
        <ele>462</ele>
        <time>2019-03-09T11:42:54Z</time>
      </trkpt>
      <trkpt lat="45.80582" lon="3.05672">
        <ele>462</ele>
        <time>2019-03-09T11:43:54Z</time>
      </trkpt>
      <trkpt lat="45.80588" lon="3.05675">
        <ele>462</ele>
        <time>2019-03-09T11:44:54Z</time>
      </trkpt>
      <trkpt lat="45.80593" lon="3.05681">
        <ele>462</ele>
        <time>2019-03-09T11:45:54Z</time>
      </trkpt>
      <trkpt lat="45.806" lon="3.05697">
        <ele>461</ele>
        <time>2019-03-09T11:46:54Z</time>
      </trkpt>
      <trkpt lat="45.80604" lon="3.05705">
        <ele>461</ele>
        <time>2019-03-09T11:47:54Z</time>
      </trkpt>
      <trkpt lat="45.8061" lon="3.05712">
        <ele>461</ele>
        <time>2019-03-09T11:48:54Z</time>
      </trkpt>
      <trkpt lat="45.80616" lon="3.05718">
        <ele>461</ele>
        <time>2019-03-09T11:49:54Z</time>
      </trkpt>
      <trkpt lat="45.80623" lon="3.05723">
        <ele>461</ele>
        <time>2019-03-09T11:50:54Z</time>
      </trkpt>
      <trkpt lat="45.80646" lon="3.05734">
        <ele>460</ele>
        <time>2019-03-09T11:51:54Z</time>
      </trkpt>
      <trkpt lat="45.80653" lon="3.05737">
        <ele>460</ele>
        <time>2019-03-09T11:52:54Z</time>
      </trkpt>
      <trkpt lat="45.80684" lon="3.05748">
        <ele>459</ele>
        <time>2019-03-09T11:53:54Z</time>
      </trkpt>
      <trkpt lat="45.8069" lon="3.0575">
        <ele>459</ele>
        <time>2019-03-09T11:54:54Z</time>
      </trkpt>
      <trkpt lat="45.80719" lon="3.05766">
        <ele>459</ele>
        <time>2019-03-09T11:55:54Z</time>
      </trkpt>
      <trkpt lat="45.80725" lon="3.05769">
        <ele>459</ele>
        <time>2019-03-09T11:56:54Z</time>
      </trkpt>
      <trkpt lat="45.80731" lon="3.05773">
        <ele>459</ele>
        <time>2019-03-09T11:57:54Z</time>
      </trkpt>
      <trkpt lat="45.8075" lon="3.05787">
        <ele>460</ele>
        <time>2019-03-09T11:58:54Z</time>
      </trkpt>
      <trkpt lat="45.80756" lon="3.05791">
        <ele>460</ele>
        <time>2019-03-09T11:59:54Z</time>
      </trkpt>
      <trkpt lat="45.80773" lon="3.05802">
        <ele>458</ele>
        <time>2019-03-09T12:00:54Z</time>
      </trkpt>
      <trkpt lat="45.8078" lon="3.05805">
        <ele>458</ele>
        <time>2019-03-09T12:01:54Z</time>
      </trkpt>
      <trkpt lat="45.80787" lon="3.05809">
        <ele>457</ele>
        <time>2019-03-09T12:02:54Z</time>
      </trkpt>
      <trkpt lat="45.80794" lon="3.05812">
        <ele>456</ele>
        <time>2019-03-09T12:03:54Z</time>
      </trkpt>
      <trkpt lat="45.80802" lon="3.05815">
        <ele>455</ele>
        <time>2019-03-09T12:04:54Z</time>
      </trkpt>
      <trkpt lat="45.80809" lon="3.05818">
        <ele>454</ele>
        <time>2019-03-09T12:05:54Z</time>
      </trkpt>
      <trkpt lat="45.80815" lon="3.05819">
        <ele>453</ele>
        <time>2019-03-09T12:06:54Z</time>
      </trkpt>
      <trkpt lat="45.80821" lon="3.05819">
        <ele>452</ele>
        <time>2019-03-09T12:07:54Z</time>
      </trkpt>
      <trkpt lat="45.80831" lon="3.05816">
        <ele>450</ele>
        <time>2019-03-09T12:08:54Z</time>
      </trkpt>
      <trkpt lat="45.80837" lon="3.05816">
        <ele>449</ele>
        <time>2019-03-09T12:09:54Z</time>
      </trkpt>
      <trkpt lat="45.8085" lon="3.05818">
        <ele>448</ele>
        <time>2019-03-09T12:10:54Z</time>
      </trkpt>
      <trkpt lat="45.80857" lon="3.05819">
        <ele>448</ele>
        <time>2019-03-09T12:11:54Z</time>
      </trkpt>
      <trkpt lat="45.80876" lon="3.05818">
        <ele>446</ele>
        <time>2019-03-09T12:12:54Z</time>
      </trkpt>
      <trkpt lat="45.80884" lon="3.05818">
        <ele>445</ele>
        <time>2019-03-09T12:13:54Z</time>
      </trkpt>
      <trkpt lat="45.80891" lon="3.05817">
        <ele>444</ele>
        <time>2019-03-09T12:14:54Z</time>
      </trkpt>
      <trkpt lat="45.80899" lon="3.05815">
        <ele>443</ele>
        <time>2019-03-09T12:15:54Z</time>
      </trkpt>
      <trkpt lat="45.80907" lon="3.05812">
        <ele>442</ele>
        <time>2019-03-09T12:16:54Z</time>
      </trkpt>
      <trkpt lat="45.80914" lon="3.05808">
        <ele>442</ele>
        <time>2019-03-09T12:17:54Z</time>
      </trkpt>
      <trkpt lat="45.8092" lon="3.05804">
        <ele>441</ele>
        <time>2019-03-09T12:18:54Z</time>
      </trkpt>
      <trkpt lat="45.80938" lon="3.05789">
        <ele>440</ele>
        <time>2019-03-09T12:19:54Z</time>
      </trkpt>
      <trkpt lat="45.80945" lon="3.05793">
        <ele>440</ele>
        <time>2019-03-09T12:20:54Z</time>
      </trkpt>
      <trkpt lat="45.80949" lon="3.05801">
        <ele>440</ele>
        <time>2019-03-09T12:21:54Z</time>
      </trkpt>
      <trkpt lat="45.80954" lon="3.0581">
        <ele>440</ele>
        <time>2019-03-09T12:22:54Z</time>
      </trkpt>
      <trkpt lat="45.8096" lon="3.05818">
        <ele>439</ele>
        <time>2019-03-09T12:23:54Z</time>
      </trkpt>
      <trkpt lat="45.80966" lon="3.05825">
        <ele>439</ele>
        <time>2019-03-09T12:24:54Z</time>
      </trkpt>
      <trkpt lat="45.80976" lon="3.0584">
        <ele>439</ele>
        <time>2019-03-09T12:25:54Z</time>
      </trkpt>
      <trkpt lat="45.80979" lon="3.0585">
        <ele>440</ele>
        <time>2019-03-09T12:26:54Z</time>
      </trkpt>
      <trkpt lat="45.80979" lon="3.05863">
        <ele>440</ele>
        <time>2019-03-09T12:27:54Z</time>
      </trkpt>
      <trkpt lat="45.80978" lon="3.05885">
        <ele>442</ele>
        <time>2019-03-09T12:28:54Z</time>
      </trkpt>
      <trkpt lat="45.80975" lon="3.05896">
        <ele>442</ele>
        <time>2019-03-09T12:29:54Z</time>
      </trkpt>
      <trkpt lat="45.8097" lon="3.05907">
        <ele>443</ele>
        <time>2019-03-09T12:30:54Z</time>
      </trkpt>
      <trkpt lat="45.80967" lon="3.05919">
        <ele>444</ele>
        <time>2019-03-09T12:31:54Z</time>
      </trkpt>
      <trkpt lat="45.80964" lon="3.05942">
        <ele>446</ele>
        <time>2019-03-09T12:32:54Z</time>
      </trkpt>
      <trkpt lat="45.80962" lon="3.05952">
        <ele>446</ele>
        <time>2019-03-09T12:33:54Z</time>
      </trkpt>
      <trkpt lat="45.80961" lon="3.05963">
        <ele>447</ele>
        <time>2019-03-09T12:34:54Z</time>
      </trkpt>
      <trkpt lat="45.80961" lon="3.05974">
        <ele>448</ele>
        <time>2019-03-09T12:35:54Z</time>
      </trkpt>
      <trkpt lat="45.8096" lon="3.05985">
        <ele>449</ele>
        <time>2019-03-09T12:36:54Z</time>
      </trkpt>
      <trkpt lat="45.80952" lon="3.06004">
        <ele>451</ele>
        <time>2019-03-09T12:37:54Z</time>
      </trkpt>
      <trkpt lat="45.80951" lon="3.06016">
        <ele>452</ele>
        <time>2019-03-09T12:38:54Z</time>
      </trkpt>
      <trkpt lat="45.80955" lon="3.06028">
        <ele>453</ele>
        <time>2019-03-09T12:39:54Z</time>
      </trkpt>
      <trkpt lat="45.80961" lon="3.06046">
        <ele>455</ele>
        <time>2019-03-09T12:40:54Z</time>
      </trkpt>
      <trkpt lat="45.8097" lon="3.06078">
        <ele>458</ele>
        <time>2019-03-09T12:41:54Z</time>
      </trkpt>
      <trkpt lat="45.80975" lon="3.06087">
        <ele>460</ele>
        <time>2019-03-09T12:42:54Z</time>
      </trkpt>
      <trkpt lat="45.8098" lon="3.06096">
        <ele>461</ele>
        <time>2019-03-09T12:43:54Z</time>
      </trkpt>
      <trkpt lat="45.80987" lon="3.06101">
        <ele>462</ele>
        <time>2019-03-09T12:44:54Z</time>
      </trkpt>
      <trkpt lat="45.80994" lon="3.06107">
        <ele>463</ele>
        <time>2019-03-09T12:45:54Z</time>
      </trkpt>
      <trkpt lat="45.8101" lon="3.06116">
        <ele>464</ele>
        <time>2019-03-09T12:46:54Z</time>
      </trkpt>
      <trkpt lat="45.81017" lon="3.06121">
        <ele>465</ele>
        <time>2019-03-09T12:47:54Z</time>
      </trkpt>
      <trkpt lat="45.81041" lon="3.06134">
        <ele>466</ele>
        <time>2019-03-09T12:48:54Z</time>
      </trkpt>
      <trkpt lat="45.81049" lon="3.06139">
        <ele>467</ele>
        <time>2019-03-09T12:49:54Z</time>
      </trkpt>
      <trkpt lat="45.81057" lon="3.06142">
        <ele>467</ele>
        <time>2019-03-09T12:50:54Z</time>
      </trkpt>
      <trkpt lat="45.81073" lon="3.06151">
        <ele>468</ele>
        <time>2019-03-09T12:51:54Z</time>
      </trkpt>
      <trkpt lat="45.8108" lon="3.06159">
        <ele>469</ele>
        <time>2019-03-09T12:52:54Z</time>
      </trkpt>
      <trkpt lat="45.81096" lon="3.06182">
        <ele>470</ele>
        <time>2019-03-09T12:53:54Z</time>
      </trkpt>
      <trkpt lat="45.81101" lon="3.06191">
        <ele>471</ele>
        <time>2019-03-09T12:54:54Z</time>
      </trkpt>
      <trkpt lat="45.81133" lon="3.06237">
        <ele>474</ele>
        <time>2019-03-09T12:55:54Z</time>
      </trkpt>
      <trkpt lat="45.81139" lon="3.06245">
        <ele>475</ele>
        <time>2019-03-09T12:56:54Z</time>
      </trkpt>
      <trkpt lat="45.81149" lon="3.0626">
        <ele>477</ele>
        <time>2019-03-09T12:57:54Z</time>
      </trkpt>
      <trkpt lat="45.81155" lon="3.06268">
        <ele>478</ele>
        <time>2019-03-09T12:58:54Z</time>
      </trkpt>
      <trkpt lat="45.8116" lon="3.06277">
        <ele>479</ele>
        <time>2019-03-09T12:59:54Z</time>
      </trkpt>
      <trkpt lat="45.81209" lon="3.06351">
        <ele>484</ele>
        <time>2019-03-09T13:00:54Z</time>
      </trkpt>
      <trkpt lat="45.81217" lon="3.06365">
        <ele>484</ele>
        <time>2019-03-09T13:01:54Z</time>
      </trkpt>
      <trkpt lat="45.81227" lon="3.06384">
        <ele>485</ele>
        <time>2019-03-09T13:02:54Z</time>
      </trkpt>
      <trkpt lat="45.81231" lon="3.06393">
        <ele>485</ele>
        <time>2019-03-09T13:03:54Z</time>
      </trkpt>
      <trkpt lat="45.81235" lon="3.06402">
        <ele>485</ele>
        <time>2019-03-09T13:04:54Z</time>
      </trkpt>
      <trkpt lat="45.81238" lon="3.06412">
        <ele>486</ele>
        <time>2019-03-09T13:05:54Z</time>
      </trkpt>
      <trkpt lat="45.81242" lon="3.06423">
        <ele>486</ele>
        <time>2019-03-09T13:06:54Z</time>
      </trkpt>
      <trkpt lat="45.81245" lon="3.06434">
        <ele>487</ele>
        <time>2019-03-09T13:07:54Z</time>
      </trkpt>
      <trkpt lat="45.81252" lon="3.06454">
        <ele>489</ele>
        <time>2019-03-09T13:08:54Z</time>
      </trkpt>
      <trkpt lat="45.81256" lon="3.06463">
        <ele>490</ele>
        <time>2019-03-09T13:09:54Z</time>
      </trkpt>
      <trkpt lat="45.81262" lon="3.0647">
        <ele>490</ele>
        <time>2019-03-09T13:10:54Z</time>
      </trkpt>
      <trkpt lat="45.81269" lon="3.06475">
        <ele>491</ele>
        <time>2019-03-09T13:11:54Z</time>
      </trkpt>
      <trkpt lat="45.81285" lon="3.06481">
        <ele>491</ele>
        <time>2019-03-09T13:12:54Z</time>
      </trkpt>
      <trkpt lat="45.81293" lon="3.06484">
        <ele>491</ele>
        <time>2019-03-09T13:13:54Z</time>
      </trkpt>
      <trkpt lat="45.81301" lon="3.06486">
        <ele>491</ele>
        <time>2019-03-09T13:14:54Z</time>
      </trkpt>
      <trkpt lat="45.81311" lon="3.0649">
        <ele>491</ele>
        <time>2019-03-09T13:15:54Z</time>
      </trkpt>
      <trkpt lat="45.81323" lon="3.06501">
        <ele>492</ele>
        <time>2019-03-09T13:16:54Z</time>
      </trkpt>
      <trkpt lat="45.81343" lon="3.06538">
        <ele>494</ele>
        <time>2019-03-09T13:17:54Z</time>
      </trkpt>
      <trkpt lat="45.81347" lon="3.06547">
        <ele>495</ele>
        <time>2019-03-09T13:18:54Z</time>
      </trkpt>
      <trkpt lat="45.81351" lon="3.06556">
        <ele>496</ele>
        <time>2019-03-09T13:19:54Z</time>
      </trkpt>
      <trkpt lat="45.81359" lon="3.06577">
        <ele>497</ele>
        <time>2019-03-09T13:20:54Z</time>
      </trkpt>
      <trkpt lat="45.81363" lon="3.06586">
        <ele>498</ele>
        <time>2019-03-09T13:21:54Z</time>
      </trkpt>
      <trkpt lat="45.81383" lon="3.0662">
        <ele>498</ele>
        <time>2019-03-09T13:22:54Z</time>
      </trkpt>
      <trkpt lat="45.81387" lon="3.06629">
        <ele>498</ele>
        <time>2019-03-09T13:23:54Z</time>
      </trkpt>
      <trkpt lat="45.8139" lon="3.06639">
        <ele>499</ele>
        <time>2019-03-09T13:24:54Z</time>
      </trkpt>
      <trkpt lat="45.81392" lon="3.06649">
        <ele>499</ele>
        <time>2019-03-09T13:25:54Z</time>
      </trkpt>
      <trkpt lat="45.81396" lon="3.06712">
        <ele>501</ele>
        <time>2019-03-09T13:26:54Z</time>
      </trkpt>
      <trkpt lat="45.81396" lon="3.06723">
        <ele>502</ele>
        <time>2019-03-09T13:27:54Z</time>
      </trkpt>
      <trkpt lat="45.81407" lon="3.06782">
        <ele>502</ele>
        <time>2019-03-09T13:28:54Z</time>
      </trkpt>
      <trkpt lat="45.81408" lon="3.06791">
        <ele>502</ele>
        <time>2019-03-09T13:29:54Z</time>
      </trkpt>
      <trkpt lat="45.81417" lon="3.0688">
        <ele>504</ele>
        <time>2019-03-09T13:30:54Z</time>
      </trkpt>
      <trkpt lat="45.81418" lon="3.06891">
        <ele>505</ele>
        <time>2019-03-09T13:31:54Z</time>
      </trkpt>
      <trkpt lat="45.81423" lon="3.06923">
        <ele>506</ele>
        <time>2019-03-09T13:32:54Z</time>
      </trkpt>
      <trkpt lat="45.81424" lon="3.06933">
        <ele>506</ele>
        <time>2019-03-09T13:33:54Z</time>
      </trkpt>
      <trkpt lat="45.81427" lon="3.06978">
        <ele>509</ele>
        <time>2019-03-09T13:34:54Z</time>
      </trkpt>
      <trkpt lat="45.81426" lon="3.0699">
        <ele>510</ele>
        <time>2019-03-09T13:35:54Z</time>
      </trkpt>
      <trkpt lat="45.81427" lon="3.07001">
        <ele>510</ele>
        <time>2019-03-09T13:36:54Z</time>
      </trkpt>
      <trkpt lat="45.81429" lon="3.07013">
        <ele>510</ele>
        <time>2019-03-09T13:37:54Z</time>
      </trkpt>
      <trkpt lat="45.81431" lon="3.07025">
        <ele>510</ele>
        <time>2019-03-09T13:38:54Z</time>
      </trkpt>
      <trkpt lat="45.81434" lon="3.07048">
        <ele>510</ele>
        <time>2019-03-09T13:39:54Z</time>
      </trkpt>
      <trkpt lat="45.81435" lon="3.07059">
        <ele>510</ele>
        <time>2019-03-09T13:40:54Z</time>
      </trkpt>
      <trkpt lat="45.81435" lon="3.0708">
        <ele>510</ele>
        <time>2019-03-09T13:41:54Z</time>
      </trkpt>
      <trkpt lat="45.81437" lon="3.07092">
        <ele>510</ele>
        <time>2019-03-09T13:42:54Z</time>
      </trkpt>
      <trkpt lat="45.81445" lon="3.07132">
        <ele>510</ele>
        <time>2019-03-09T13:43:54Z</time>
      </trkpt>
      <trkpt lat="45.81448" lon="3.07152">
        <ele>510</ele>
        <time>2019-03-09T13:44:54Z</time>
      </trkpt>
      <trkpt lat="45.81458" lon="3.07214">
        <ele>512</ele>
        <time>2019-03-09T13:45:54Z</time>
      </trkpt>
      <trkpt lat="45.81459" lon="3.07223">
        <ele>512</ele>
        <time>2019-03-09T13:46:54Z</time>
      </trkpt>
      <trkpt lat="45.81464" lon="3.07268">
        <ele>513</ele>
        <time>2019-03-09T13:47:54Z</time>
      </trkpt>
      <trkpt lat="45.81465" lon="3.07277">
        <ele>513</ele>
        <time>2019-03-09T13:48:54Z</time>
      </trkpt>
      <trkpt lat="45.81466" lon="3.07295">
        <ele>514</ele>
        <time>2019-03-09T13:49:54Z</time>
      </trkpt>
      <trkpt lat="45.81466" lon="3.07305">
        <ele>514</ele>
        <time>2019-03-09T13:50:54Z</time>
      </trkpt>
      <trkpt lat="45.81464" lon="3.07315">
        <ele>514</ele>
        <time>2019-03-09T13:51:54Z</time>
      </trkpt>
      <trkpt lat="45.81449" lon="3.07386">
        <ele>517</ele>
        <time>2019-03-09T13:52:54Z</time>
      </trkpt>
      <trkpt lat="45.81447" lon="3.07395">
        <ele>517</ele>
        <time>2019-03-09T13:53:54Z</time>
      </trkpt>
      <trkpt lat="45.81437" lon="3.0743">
        <ele>518</ele>
        <time>2019-03-09T13:54:54Z</time>
      </trkpt>
      <trkpt lat="45.81434" lon="3.07443">
        <ele>519</ele>
        <time>2019-03-09T13:55:54Z</time>
      </trkpt>
      <trkpt lat="45.81427" lon="3.07466">
        <ele>520</ele>
        <time>2019-03-09T13:56:54Z</time>
      </trkpt>
      <trkpt lat="45.81424" lon="3.07474">
        <ele>521</ele>
        <time>2019-03-09T13:57:54Z</time>
      </trkpt>
      <trkpt lat="45.8142" lon="3.07485">
        <ele>521</ele>
        <time>2019-03-09T13:58:54Z</time>
      </trkpt>
      <trkpt lat="45.81415" lon="3.07495">
        <ele>522</ele>
        <time>2019-03-09T13:59:54Z</time>
      </trkpt>
      <trkpt lat="45.81389" lon="3.07538">
        <ele>526</ele>
        <time>2019-03-09T14:00:54Z</time>
      </trkpt>
      <trkpt lat="45.81384" lon="3.07547">
        <ele>527</ele>
        <time>2019-03-09T14:01:54Z</time>
      </trkpt>
      <trkpt lat="45.81379" lon="3.07557">
        <ele>528</ele>
        <time>2019-03-09T14:02:54Z</time>
      </trkpt>
      <trkpt lat="45.81375" lon="3.07569">
        <ele>528</ele>
        <time>2019-03-09T14:03:54Z</time>
      </trkpt>
      <trkpt lat="45.81372" lon="3.0758">
        <ele>529</ele>
        <time>2019-03-09T14:04:54Z</time>
      </trkpt>
      <trkpt lat="45.81369" lon="3.07591">
        <ele>529</ele>
        <time>2019-03-09T14:05:54Z</time>
      </trkpt>
      <trkpt lat="45.81369" lon="3.07594">
        <ele>529</ele>
        <time>2019-03-09T14:06:54Z</time>
      </trkpt>
      <trkpt lat="45.81367" lon="3.0761">
        <ele>529</ele>
        <time>2019-03-09T14:07:54Z</time>
      </trkpt>
      <trkpt lat="45.8136" lon="3.0764">
        <ele>530</ele>
        <time>2019-03-09T14:08:54Z</time>
      </trkpt>
      <trkpt lat="45.81358" lon="3.07651">
        <ele>530</ele>
        <time>2019-03-09T14:09:54Z</time>
      </trkpt>
      <trkpt lat="45.81354" lon="3.07682">
        <ele>530</ele>
        <time>2019-03-09T14:10:54Z</time>
      </trkpt>
      <trkpt lat="45.81351" lon="3.07691">
        <ele>530</ele>
        <time>2019-03-09T14:11:54Z</time>
      </trkpt>
      <trkpt lat="45.81345" lon="3.07701">
        <ele>531</ele>
        <time>2019-03-09T14:12:54Z</time>
      </trkpt>
      <trkpt lat="45.81333" lon="3.07713">
        <ele>532</ele>
        <time>2019-03-09T14:13:54Z</time>
      </trkpt>
      <trkpt lat="45.81326" lon="3.07719">
        <ele>533</ele>
        <time>2019-03-09T14:14:54Z</time>
      </trkpt>
      <trkpt lat="45.8132" lon="3.07726">
        <ele>534</ele>
        <time>2019-03-09T14:15:54Z</time>
      </trkpt>
      <trkpt lat="45.81315" lon="3.07735">
        <ele>535</ele>
        <time>2019-03-09T14:16:54Z</time>
      </trkpt>
      <trkpt lat="45.81311" lon="3.07742">
        <ele>535</ele>
        <time>2019-03-09T14:17:54Z</time>
      </trkpt>
      <trkpt lat="45.81307" lon="3.07752">
        <ele>535</ele>
        <time>2019-03-09T14:18:54Z</time>
      </trkpt>
      <trkpt lat="45.81288" lon="3.07815">
        <ele>537</ele>
        <time>2019-03-09T14:19:54Z</time>
      </trkpt>
      <trkpt lat="45.81285" lon="3.0783">
        <ele>537</ele>
        <time>2019-03-09T14:20:54Z</time>
      </trkpt>
      <trkpt lat="45.81285" lon="3.07843">
        <ele>538</ele>
        <time>2019-03-09T14:21:54Z</time>
      </trkpt>
      <trkpt lat="45.81289" lon="3.07851">
        <ele>537</ele>
        <time>2019-03-09T14:22:54Z</time>
      </trkpt>
      <trkpt lat="45.81301" lon="3.07865">
        <ele>536</ele>
        <time>2019-03-09T14:23:54Z</time>
      </trkpt>
      <trkpt lat="45.81306" lon="3.07872">
        <ele>536</ele>
        <time>2019-03-09T14:24:54Z</time>
      </trkpt>
      <trkpt lat="45.81332" lon="3.07921">
        <ele>534</ele>
        <time>2019-03-09T14:25:54Z</time>
      </trkpt>
      <trkpt lat="45.81337" lon="3.07929">
        <ele>534</ele>
        <time>2019-03-09T14:26:54Z</time>
      </trkpt>
      <trkpt lat="45.8134" lon="3.07939">
        <ele>534</ele>
        <time>2019-03-09T14:27:54Z</time>
      </trkpt>
      <trkpt lat="45.81342" lon="3.07951">
        <ele>535</ele>
        <time>2019-03-09T14:28:54Z</time>
      </trkpt>
      <trkpt lat="45.81344" lon="3.07981">
        <ele>536</ele>
        <time>2019-03-09T14:29:54Z</time>
      </trkpt>
      <trkpt lat="45.81345" lon="3.07991">
        <ele>537</ele>
        <time>2019-03-09T14:30:54Z</time>
      </trkpt>
      <trkpt lat="45.81344" lon="3.08">
        <ele>537</ele>
        <time>2019-03-09T14:31:54Z</time>
      </trkpt>
      <trkpt lat="45.81345" lon="3.08013">
        <ele>538</ele>
        <time>2019-03-09T14:32:54Z</time>
      </trkpt>
      <trkpt lat="45.8135" lon="3.08038">
        <ele>538</ele>
        <time>2019-03-09T14:33:54Z</time>
      </trkpt>
      <trkpt lat="45.81352" lon="3.08049">
        <ele>538</ele>
        <time>2019-03-09T14:34:54Z</time>
      </trkpt>
      <trkpt lat="45.81354" lon="3.08064">
        <ele>538</ele>
        <time>2019-03-09T14:35:54Z</time>
      </trkpt>
      <trkpt lat="45.81356" lon="3.0808">
        <ele>539</ele>
        <time>2019-03-09T14:36:54Z</time>
      </trkpt>
      <trkpt lat="45.81366" lon="3.08136">
        <ele>540</ele>
        <time>2019-03-09T14:37:54Z</time>
      </trkpt>
      <trkpt lat="45.81368" lon="3.08147">
        <ele>541</ele>
        <time>2019-03-09T14:38:54Z</time>
      </trkpt>
      <trkpt lat="45.81367" lon="3.08171">
        <ele>542</ele>
        <time>2019-03-09T14:39:54Z</time>
      </trkpt>
      <trkpt lat="45.81366" lon="3.08182">
        <ele>542</ele>
        <time>2019-03-09T14:40:54Z</time>
      </trkpt>
      <trkpt lat="45.81356" lon="3.08259">
        <ele>546</ele>
        <time>2019-03-09T14:41:54Z</time>
      </trkpt>
      <trkpt lat="45.81355" lon="3.08269">
        <ele>546</ele>
        <time>2019-03-09T14:42:54Z</time>
      </trkpt>
      <trkpt lat="45.81355" lon="3.08281">
        <ele>547</ele>
        <time>2019-03-09T14:43:54Z</time>
      </trkpt>
      <trkpt lat="45.81356" lon="3.08284">
        <ele>546</ele>
        <time>2019-03-09T14:44:54Z</time>
      </trkpt>
      <trkpt lat="45.81358" lon="3.08301">
        <ele>547</ele>
        <time>2019-03-09T14:45:54Z</time>
      </trkpt>
      <trkpt lat="45.8136" lon="3.08334">
        <ele>547</ele>
        <time>2019-03-09T14:46:54Z</time>
      </trkpt>
      <trkpt lat="45.81359" lon="3.08345">
        <ele>547</ele>
        <time>2019-03-09T14:47:54Z</time>
      </trkpt>
      <trkpt lat="45.81358" lon="3.08355">
        <ele>547</ele>
        <time>2019-03-09T14:48:54Z</time>
      </trkpt>
      <trkpt lat="45.81352" lon="3.08375">
        <ele>548</ele>
        <time>2019-03-09T14:49:54Z</time>
      </trkpt>
      <trkpt lat="45.8135" lon="3.08385">
        <ele>549</ele>
        <time>2019-03-09T14:50:54Z</time>
      </trkpt>
      <trkpt lat="45.81347" lon="3.08407">
        <ele>549</ele>
        <time>2019-03-09T14:51:54Z</time>
      </trkpt>
      <trkpt lat="45.81345" lon="3.08417">
        <ele>549</ele>
        <time>2019-03-09T14:52:54Z</time>
      </trkpt>
      <trkpt lat="45.81343" lon="3.08428">
        <ele>549</ele>
        <time>2019-03-09T14:53:54Z</time>
      </trkpt>
      <trkpt lat="45.81339" lon="3.08439">
        <ele>549</ele>
        <time>2019-03-09T14:54:54Z</time>
      </trkpt>
      <trkpt lat="45.81336" lon="3.0845">
        <ele>549</ele>
        <time>2019-03-09T14:55:54Z</time>
      </trkpt>
      <trkpt lat="45.81331" lon="3.0846">
        <ele>550</ele>
        <time>2019-03-09T14:56:54Z</time>
      </trkpt>
      <trkpt lat="45.8132" lon="3.08485">
        <ele>551</ele>
        <time>2019-03-09T14:57:54Z</time>
      </trkpt>
      <trkpt lat="45.81316" lon="3.08492">
        <ele>551</ele>
        <time>2019-03-09T14:58:54Z</time>
      </trkpt>
      <trkpt lat="45.81277" lon="3.08562">
        <ele>552</ele>
        <time>2019-03-09T14:59:54Z</time>
      </trkpt>
      <trkpt lat="45.81273" lon="3.08569">
        <ele>552</ele>
        <time>2019-03-09T15:00:54Z</time>
      </trkpt>
      <trkpt lat="45.81247" lon="3.08625">
        <ele>551</ele>
        <time>2019-03-09T15:01:54Z</time>
      </trkpt>
      <trkpt lat="45.81243" lon="3.08633">
        <ele>550</ele>
        <time>2019-03-09T15:02:54Z</time>
      </trkpt>
      <trkpt lat="45.81239" lon="3.08641">
        <ele>550</ele>
        <time>2019-03-09T15:03:54Z</time>
      </trkpt>
      <trkpt lat="45.81235" lon="3.08649">
        <ele>549</ele>
        <time>2019-03-09T15:04:54Z</time>
      </trkpt>
      <trkpt lat="45.81216" lon="3.08679">
        <ele>548</ele>
        <time>2019-03-09T15:05:54Z</time>
      </trkpt>
      <trkpt lat="45.81223" lon="3.08686">
        <ele>548</ele>
        <time>2019-03-09T15:06:54Z</time>
      </trkpt>
      <trkpt lat="45.8123" lon="3.08683">
        <ele>547</ele>
        <time>2019-03-09T15:07:54Z</time>
      </trkpt>
      <trkpt lat="45.81238" lon="3.0868">
        <ele>547</ele>
        <time>2019-03-09T15:08:54Z</time>
      </trkpt>
      <trkpt lat="45.81253" lon="3.08672">
        <ele>546</ele>
        <time>2019-03-09T15:09:54Z</time>
      </trkpt>
      <trkpt lat="45.81258" lon="3.08669">
        <ele>545</ele>
        <time>2019-03-09T15:10:54Z</time>
      </trkpt>
      <trkpt lat="45.8129" lon="3.08648">
        <ele>542</ele>
        <time>2019-03-09T15:11:54Z</time>
      </trkpt>
      <trkpt lat="45.81295" lon="3.08645">
        <ele>542</ele>
        <time>2019-03-09T15:12:54Z</time>
      </trkpt>
      <trkpt lat="45.81319" lon="3.08628">
        <ele>539</ele>
        <time>2019-03-09T15:13:54Z</time>
      </trkpt>
      <trkpt lat="45.81324" lon="3.08624">
        <ele>539</ele>
        <time>2019-03-09T15:14:54Z</time>
      </trkpt>
      <trkpt lat="45.81344" lon="3.08612">
        <ele>536</ele>
        <time>2019-03-09T15:15:54Z</time>
      </trkpt>
      <trkpt lat="45.81349" lon="3.08609">
        <ele>535</ele>
        <time>2019-03-09T15:16:54Z</time>
      </trkpt>
      <trkpt lat="45.81357" lon="3.08603">
        <ele>534</ele>
        <time>2019-03-09T15:17:54Z</time>
      </trkpt>
      <trkpt lat="45.81362" lon="3.08599">
        <ele>533</ele>
        <time>2019-03-09T15:18:54Z</time>
      </trkpt>
      <trkpt lat="45.81376" lon="3.08587">
        <ele>531</ele>
        <time>2019-03-09T15:19:54Z</time>
      </trkpt>
      <trkpt lat="45.81381" lon="3.08583">
        <ele>531</ele>
        <time>2019-03-09T15:20:54Z</time>
      </trkpt>
      <trkpt lat="45.81427" lon="3.08546">
        <ele>525</ele>
        <time>2019-03-09T15:21:54Z</time>
      </trkpt>
      <trkpt lat="45.81431" lon="3.08543">
        <ele>524</ele>
        <time>2019-03-09T15:22:54Z</time>
      </trkpt>
      <trkpt lat="45.81442" lon="3.08538">
        <ele>522</ele>
        <time>2019-03-09T15:23:54Z</time>
      </trkpt>
      <trkpt lat="45.81447" lon="3.08537">
        <ele>521</ele>
        <time>2019-03-09T15:24:54Z</time>
      </trkpt>
      <trkpt lat="45.81461" lon="3.08535">
        <ele>519</ele>
        <time>2019-03-09T15:25:54Z</time>
      </trkpt>
      <trkpt lat="45.81466" lon="3.08535">
        <ele>518</ele>
        <time>2019-03-09T15:26:54Z</time>
      </trkpt>
      <trkpt lat="45.81475" lon="3.08531">
        <ele>516</ele>
        <time>2019-03-09T15:27:54Z</time>
      </trkpt>
      <trkpt lat="45.8148" lon="3.08528">
        <ele>515</ele>
        <time>2019-03-09T15:28:54Z</time>
      </trkpt>
      <trkpt lat="45.81488" lon="3.08521">
        <ele>513</ele>
        <time>2019-03-09T15:29:54Z</time>
      </trkpt>
      <trkpt lat="45.81492" lon="3.08518">
        <ele>513</ele>
        <time>2019-03-09T15:30:54Z</time>
      </trkpt>
      <trkpt lat="45.81516" lon="3.08484">
        <ele>508</ele>
        <time>2019-03-09T15:31:54Z</time>
      </trkpt>
      <trkpt lat="45.81519" lon="3.08479">
        <ele>508</ele>
        <time>2019-03-09T15:32:54Z</time>
      </trkpt>
      <trkpt lat="45.81533" lon="3.08462">
        <ele>505</ele>
        <time>2019-03-09T15:33:54Z</time>
      </trkpt>
      <trkpt lat="45.81537" lon="3.08456">
        <ele>505</ele>
        <time>2019-03-09T15:34:54Z</time>
      </trkpt>
      <trkpt lat="45.81545" lon="3.08443">
        <ele>503</ele>
        <time>2019-03-09T15:35:54Z</time>
      </trkpt>
      <trkpt lat="45.81548" lon="3.08436">
        <ele>503</ele>
        <time>2019-03-09T15:36:54Z</time>
      </trkpt>
      <trkpt lat="45.81565" lon="3.08397">
        <ele>499</ele>
        <time>2019-03-09T15:37:54Z</time>
      </trkpt>
      <trkpt lat="45.81568" lon="3.0839">
        <ele>498</ele>
        <time>2019-03-09T15:38:54Z</time>
      </trkpt>
      <trkpt lat="45.81581" lon="3.08364">
        <ele>494</ele>
        <time>2019-03-09T15:39:54Z</time>
      </trkpt>
      <trkpt lat="45.81584" lon="3.08359">
        <ele>493</ele>
        <time>2019-03-09T15:40:54Z</time>
      </trkpt>
      <trkpt lat="45.81596" lon="3.08344">
        <ele>490</ele>
        <time>2019-03-09T15:41:54Z</time>
      </trkpt>
      <trkpt lat="45.81599" lon="3.08339">
        <ele>489</ele>
        <time>2019-03-09T15:42:54Z</time>
      </trkpt>
      <trkpt lat="45.81636" lon="3.083">
        <ele>481</ele>
        <time>2019-03-09T15:43:54Z</time>
      </trkpt>
      <trkpt lat="45.8164" lon="3.08295">
        <ele>480</ele>
        <time>2019-03-09T15:44:54Z</time>
      </trkpt>
      <trkpt lat="45.81648" lon="3.08285">
        <ele>478</ele>
        <time>2019-03-09T15:45:54Z</time>
      </trkpt>
      <trkpt lat="45.81652" lon="3.0828">
        <ele>477</ele>
        <time>2019-03-09T15:46:54Z</time>
      </trkpt>
      <trkpt lat="45.81662" lon="3.08264">
        <ele>474</ele>
        <time>2019-03-09T15:47:54Z</time>
      </trkpt>
      <trkpt lat="45.81665" lon="3.08259">
        <ele>473</ele>
        <time>2019-03-09T15:48:54Z</time>
      </trkpt>
      <trkpt lat="45.81692" lon="3.082">
        <ele>463</ele>
        <time>2019-03-09T15:49:54Z</time>
      </trkpt>
      <trkpt lat="45.81695" lon="3.08195">
        <ele>462</ele>
        <time>2019-03-09T15:50:54Z</time>
      </trkpt>
      <trkpt lat="45.81702" lon="3.08186">
        <ele>460</ele>
        <time>2019-03-09T15:51:54Z</time>
      </trkpt>
      <trkpt lat="45.81707" lon="3.08182">
        <ele>458</ele>
        <time>2019-03-09T15:52:54Z</time>
      </trkpt>
      <trkpt lat="45.81711" lon="3.08178">
        <ele>457</ele>
        <time>2019-03-09T15:53:54Z</time>
      </trkpt>
      <trkpt lat="45.81722" lon="3.08171">
        <ele>453</ele>
        <time>2019-03-09T15:54:54Z</time>
      </trkpt>
      <trkpt lat="45.81727" lon="3.08167">
        <ele>452</ele>
        <time>2019-03-09T15:55:54Z</time>
      </trkpt>
      <trkpt lat="45.81731" lon="3.08161">
        <ele>451</ele>
        <time>2019-03-09T15:56:54Z</time>
      </trkpt>
      <trkpt lat="45.81735" lon="3.08153">
        <ele>449</ele>
        <time>2019-03-09T15:57:54Z</time>
      </trkpt>
      <trkpt lat="45.81749" lon="3.08097">
        <ele>444</ele>
        <time>2019-03-09T15:58:54Z</time>
      </trkpt>
      <trkpt lat="45.8175" lon="3.08087">
        <ele>444</ele>
        <time>2019-03-09T15:59:54Z</time>
      </trkpt>
      <trkpt lat="45.81751" lon="3.08076">
        <ele>443</ele>
        <time>2019-03-09T16:00:54Z</time>
      </trkpt>
      <trkpt lat="45.81744" lon="3.08028">
        <ele>443</ele>
        <time>2019-03-09T16:01:54Z</time>
      </trkpt>
      <trkpt lat="45.81743" lon="3.08017">
        <ele>442</ele>
        <time>2019-03-09T16:02:54Z</time>
      </trkpt>
      <trkpt lat="45.81744" lon="3.08005">
        <ele>441</ele>
        <time>2019-03-09T16:03:54Z</time>
      </trkpt>
      <trkpt lat="45.81746" lon="3.07993">
        <ele>440</ele>
        <time>2019-03-09T16:04:54Z</time>
      </trkpt>
      <trkpt lat="45.81758" lon="3.07958">
        <ele>435</ele>
        <time>2019-03-09T16:05:54Z</time>
      </trkpt>
      <trkpt lat="45.81761" lon="3.07945">
        <ele>434</ele>
        <time>2019-03-09T16:06:54Z</time>
      </trkpt>
      <trkpt lat="45.81762" lon="3.07932">
        <ele>433</ele>
        <time>2019-03-09T16:07:54Z</time>
      </trkpt>
      <trkpt lat="45.81761" lon="3.0792">
        <ele>433</ele>
        <time>2019-03-09T16:08:54Z</time>
      </trkpt>
      <trkpt lat="45.81759" lon="3.07908">
        <ele>434</ele>
        <time>2019-03-09T16:09:54Z</time>
      </trkpt>
      <trkpt lat="45.81759" lon="3.07898">
        <ele>435</ele>
        <time>2019-03-09T16:10:54Z</time>
      </trkpt>
      <trkpt lat="45.8176" lon="3.07889">
        <ele>435</ele>
        <time>2019-03-09T16:11:54Z</time>
      </trkpt>
      <trkpt lat="45.81762" lon="3.07883">
        <ele>435</ele>
        <time>2019-03-09T16:12:54Z</time>
      </trkpt>
      <trkpt lat="45.81767" lon="3.0788">
        <ele>434</ele>
        <time>2019-03-09T16:13:54Z</time>
      </trkpt>
      <trkpt lat="45.81772" lon="3.0788">
        <ele>432</ele>
        <time>2019-03-09T16:14:54Z</time>
      </trkpt>
      <trkpt lat="45.81776" lon="3.07886">
        <ele>431</ele>
        <time>2019-03-09T16:15:54Z</time>
      </trkpt>
      <trkpt lat="45.81778" lon="3.07895">
        <ele>430</ele>
        <time>2019-03-09T16:16:54Z</time>
      </trkpt>
      <trkpt lat="45.8178" lon="3.07914">
        <ele>429</ele>
        <time>2019-03-09T16:17:54Z</time>
      </trkpt>
      <trkpt lat="45.81783" lon="3.07923">
        <ele>428</ele>
        <time>2019-03-09T16:18:54Z</time>
      </trkpt>
      <trkpt lat="45.81786" lon="3.0793">
        <ele>427</ele>
        <time>2019-03-09T16:19:54Z</time>
      </trkpt>
      <trkpt lat="45.81801" lon="3.07953">
        <ele>423</ele>
        <time>2019-03-09T16:20:54Z</time>
      </trkpt>
      <trkpt lat="45.81805" lon="3.0796">
        <ele>422</ele>
        <time>2019-03-09T16:21:54Z</time>
      </trkpt>
      <trkpt lat="45.8181" lon="3.07966">
        <ele>421</ele>
        <time>2019-03-09T16:22:54Z</time>
      </trkpt>
      <trkpt lat="45.81815" lon="3.0797">
        <ele>419</ele>
        <time>2019-03-09T16:23:54Z</time>
      </trkpt>
      <trkpt lat="45.8182" lon="3.07973">
        <ele>418</ele>
        <time>2019-03-09T16:24:54Z</time>
      </trkpt>
      <trkpt lat="45.81826" lon="3.07973">
        <ele>416</ele>
        <time>2019-03-09T16:25:54Z</time>
      </trkpt>
      <trkpt lat="45.81832" lon="3.0797">
        <ele>414</ele>
        <time>2019-03-09T16:26:54Z</time>
      </trkpt>
      <trkpt lat="45.81861" lon="3.0795">
        <ele>410</ele>
        <time>2019-03-09T16:27:54Z</time>
      </trkpt>
      <trkpt lat="45.81868" lon="3.07944">
        <ele>409</ele>
        <time>2019-03-09T16:28:54Z</time>
      </trkpt>
      <trkpt lat="45.81877" lon="3.0794">
        <ele>407</ele>
        <time>2019-03-09T16:29:54Z</time>
      </trkpt>
      <trkpt lat="45.81886" lon="3.07935">
        <ele>406</ele>
        <time>2019-03-09T16:30:54Z</time>
      </trkpt>
      <trkpt lat="45.81895" lon="3.07932">
        <ele>404</ele>
        <time>2019-03-09T16:31:54Z</time>
      </trkpt>
      <trkpt lat="45.81903" lon="3.07929">
        <ele>403</ele>
        <time>2019-03-09T16:32:54Z</time>
      </trkpt>
      <trkpt lat="45.81933" lon="3.07921">
        <ele>400</ele>
        <time>2019-03-09T16:33:54Z</time>
      </trkpt>
      <trkpt lat="45.81941" lon="3.07919">
        <ele>399</ele>
        <time>2019-03-09T16:34:54Z</time>
      </trkpt>
      <trkpt lat="45.81959" lon="3.07918">
        <ele>397</ele>
        <time>2019-03-09T16:35:54Z</time>
      </trkpt>
      <trkpt lat="45.81968" lon="3.07917">
        <ele>397</ele>
        <time>2019-03-09T16:36:54Z</time>
      </trkpt>
      <trkpt lat="45.82014" lon="3.07911">
        <ele>393</ele>
        <time>2019-03-09T16:37:54Z</time>
      </trkpt>
      <trkpt lat="45.82022" lon="3.0791">
        <ele>392</ele>
        <time>2019-03-09T16:38:54Z</time>
      </trkpt>
      <trkpt lat="45.82036" lon="3.07905">
        <ele>391</ele>
        <time>2019-03-09T16:39:54Z</time>
      </trkpt>
      <trkpt lat="45.82043" lon="3.07903">
        <ele>390</ele>
        <time>2019-03-09T16:40:54Z</time>
      </trkpt>
      <trkpt lat="45.8205" lon="3.07899">
        <ele>389</ele>
        <time>2019-03-09T16:41:54Z</time>
      </trkpt>
      <trkpt lat="45.82055" lon="3.07894">
        <ele>388</ele>
        <time>2019-03-09T16:42:54Z</time>
      </trkpt>
      <trkpt lat="45.82058" lon="3.07888">
        <ele>388</ele>
        <time>2019-03-09T16:43:54Z</time>
      </trkpt>
      <trkpt lat="45.8206" lon="3.0788">
        <ele>388</ele>
        <time>2019-03-09T16:44:54Z</time>
      </trkpt>
      <trkpt lat="45.82059" lon="3.07871">
        <ele>388</ele>
        <time>2019-03-09T16:45:54Z</time>
      </trkpt>
      <trkpt lat="45.82054" lon="3.07822">
        <ele>388</ele>
        <time>2019-03-09T16:46:54Z</time>
      </trkpt>
      <trkpt lat="45.82053" lon="3.07812">
        <ele>388</ele>
        <time>2019-03-09T16:47:54Z</time>
      </trkpt>
      <trkpt lat="45.8205" lon="3.07743">
        <ele>389</ele>
        <time>2019-03-09T16:48:54Z</time>
      </trkpt>
      <trkpt lat="45.82049" lon="3.07734">
        <ele>389</ele>
        <time>2019-03-09T16:49:54Z</time>
      </trkpt>
      <trkpt lat="45.82048" lon="3.07726">
        <ele>389</ele>
        <time>2019-03-09T16:50:54Z</time>
      </trkpt>
      <trkpt lat="45.82047" lon="3.07718">
        <ele>389</ele>
        <time>2019-03-09T16:51:54Z</time>
      </trkpt>
      <trkpt lat="45.82041" lon="3.07646">
        <ele>389</ele>
        <time>2019-03-09T16:52:54Z</time>
      </trkpt>
      <trkpt lat="45.82041" lon="3.07635">
        <ele>389</ele>
        <time>2019-03-09T16:53:54Z</time>
      </trkpt>
      <trkpt lat="45.82041" lon="3.07624">
        <ele>389</ele>
        <time>2019-03-09T16:54:54Z</time>
      </trkpt>
      <trkpt lat="45.82043" lon="3.07614">
        <ele>388</ele>
        <time>2019-03-09T16:55:54Z</time>
      </trkpt>
      <trkpt lat="45.82048" lon="3.07606">
        <ele>387</ele>
        <time>2019-03-09T16:56:54Z</time>
      </trkpt>
      <trkpt lat="45.82056" lon="3.07601">
        <ele>386</ele>
        <time>2019-03-09T16:57:54Z</time>
      </trkpt>
      <trkpt lat="45.82064" lon="3.07598">
        <ele>385</ele>
        <time>2019-03-09T16:58:54Z</time>
      </trkpt>
      <trkpt lat="45.82073" lon="3.07597">
        <ele>384</ele>
        <time>2019-03-09T16:59:54Z</time>
      </trkpt>
      <trkpt lat="45.82078" lon="3.07597">
        <ele>384</ele>
        <time>2019-03-09T17:00:54Z</time>
      </trkpt>
      <trkpt lat="45.82099" lon="3.07596">
        <ele>382</ele>
        <time>2019-03-09T17:01:54Z</time>
      </trkpt>
      <trkpt lat="45.82105" lon="3.07596">
        <ele>382</ele>
        <time>2019-03-09T17:02:54Z</time>
      </trkpt>
      <trkpt lat="45.82123" lon="3.07594">
        <ele>382</ele>
        <time>2019-03-09T17:03:54Z</time>
      </trkpt>
      <trkpt lat="45.8213" lon="3.07594">
        <ele>381</ele>
        <time>2019-03-09T17:04:54Z</time>
      </trkpt>
      <trkpt lat="45.82155" lon="3.07593">
        <ele>380</ele>
        <time>2019-03-09T17:05:54Z</time>
      </trkpt>
      <trkpt lat="45.82162" lon="3.07593">
        <ele>380</ele>
        <time>2019-03-09T17:06:54Z</time>
      </trkpt>
      <trkpt lat="45.82185" lon="3.07591">
        <ele>379</ele>
        <time>2019-03-09T17:07:54Z</time>
      </trkpt>
      <trkpt lat="45.8219" lon="3.07591">
        <ele>379</ele>
        <time>2019-03-09T17:08:54Z</time>
      </trkpt>
      <trkpt lat="45.82195" lon="3.07591">
        <ele>379</ele>
        <time>2019-03-09T17:09:54Z</time>
      </trkpt>
      <trkpt lat="45.82199" lon="3.07592">
        <ele>378</ele>
        <time>2019-03-09T17:10:54Z</time>
      </trkpt>
      <trkpt lat="45.82204" lon="3.07594">
        <ele>378</ele>
        <time>2019-03-09T17:11:54Z</time>
      </trkpt>
      <trkpt lat="45.82208" lon="3.07598">
        <ele>378</ele>
        <time>2019-03-09T17:12:54Z</time>
      </trkpt>
      <trkpt lat="45.82211" lon="3.07604">
        <ele>378</ele>
        <time>2019-03-09T17:13:54Z</time>
      </trkpt>
      <trkpt lat="45.82211" lon="3.07611">
        <ele>378</ele>
        <time>2019-03-09T17:14:54Z</time>
      </trkpt>
      <trkpt lat="45.82209" lon="3.07648">
        <ele>378</ele>
        <time>2019-03-09T17:15:54Z</time>
      </trkpt>
      <trkpt lat="45.82208" lon="3.07656">
        <ele>378</ele>
        <time>2019-03-09T17:16:54Z</time>
      </trkpt>
      <trkpt lat="45.82207" lon="3.07695">
        <ele>379</ele>
        <time>2019-03-09T17:17:54Z</time>
      </trkpt>
      <trkpt lat="45.82207" lon="3.07703">
        <ele>379</ele>
        <time>2019-03-09T17:18:54Z</time>
      </trkpt>
      <trkpt lat="45.82208" lon="3.07729">
        <ele>380</ele>
        <time>2019-03-09T17:19:54Z</time>
      </trkpt>
      <trkpt lat="45.82208" lon="3.0774">
        <ele>380</ele>
        <time>2019-03-09T17:20:54Z</time>
      </trkpt>
      <trkpt lat="45.82213" lon="3.07785">
        <ele>379</ele>
        <time>2019-03-09T17:21:54Z</time>
      </trkpt>
      <trkpt lat="45.82215" lon="3.07796">
        <ele>379</ele>
        <time>2019-03-09T17:22:54Z</time>
      </trkpt>
      <trkpt lat="45.8222" lon="3.07806">
        <ele>379</ele>
        <time>2019-03-09T17:23:54Z</time>
      </trkpt>
      <trkpt lat="45.82226" lon="3.07814">
        <ele>378</ele>
        <time>2019-03-09T17:24:54Z</time>
      </trkpt>
      <trkpt lat="45.82234" lon="3.07815">
        <ele>378</ele>
        <time>2019-03-09T17:25:54Z</time>
      </trkpt>
      <trkpt lat="45.82243" lon="3.07814">
        <ele>378</ele>
        <time>2019-03-09T17:26:54Z</time>
      </trkpt>
      <trkpt lat="45.82248" lon="3.07812">
        <ele>377</ele>
        <time>2019-03-09T17:27:54Z</time>
      </trkpt>
      <trkpt lat="45.82327" lon="3.07786">
        <ele>375</ele>
        <time>2019-03-09T17:28:54Z</time>
      </trkpt>
      <trkpt lat="45.82333" lon="3.07784">
        <ele>374</ele>
        <time>2019-03-09T17:29:54Z</time>
      </trkpt>
      <trkpt lat="45.82345" lon="3.07778">
        <ele>374</ele>
        <time>2019-03-09T17:30:54Z</time>
      </trkpt>
      <trkpt lat="45.82351" lon="3.07776">
        <ele>374</ele>
        <time>2019-03-09T17:31:54Z</time>
      </trkpt>
      <trkpt lat="45.82378" lon="3.07759">
        <ele>375</ele>
        <time>2019-03-09T17:32:54Z</time>
      </trkpt>
      <trkpt lat="45.82386" lon="3.07755">
        <ele>375</ele>
        <time>2019-03-09T17:33:54Z</time>
      </trkpt>
      <trkpt lat="45.82405" lon="3.07746">
        <ele>375</ele>
        <time>2019-03-09T17:34:54Z</time>
      </trkpt>
      <trkpt lat="45.82409" lon="3.07745">
        <ele>375</ele>
        <time>2019-03-09T17:35:54Z</time>
      </trkpt>
      <trkpt lat="45.82414" lon="3.07745">
        <ele>375</ele>
        <time>2019-03-09T17:36:54Z</time>
      </trkpt>
      <trkpt lat="45.82423" lon="3.07745">
        <ele>375</ele>
        <time>2019-03-09T17:37:54Z</time>
      </trkpt>
      <trkpt lat="45.82438" lon="3.07752">
        <ele>376</ele>
        <time>2019-03-09T17:38:54Z</time>
      </trkpt>
      <trkpt lat="45.82445" lon="3.07755">
        <ele>377</ele>
        <time>2019-03-09T17:39:54Z</time>
      </trkpt>
      <trkpt lat="45.82475" lon="3.07772">
        <ele>378</ele>
        <time>2019-03-09T17:40:54Z</time>
      </trkpt>
      <trkpt lat="45.82482" lon="3.07774">
        <ele>379</ele>
        <time>2019-03-09T17:41:54Z</time>
      </trkpt>
      <trkpt lat="45.82505" lon="3.07776">
        <ele>380</ele>
        <time>2019-03-09T17:42:54Z</time>
      </trkpt>
      <trkpt lat="45.82516" lon="3.07772">
        <ele>381</ele>
        <time>2019-03-09T17:43:54Z</time>
      </trkpt>
      <trkpt lat="45.82524" lon="3.07771">
        <ele>381</ele>
        <time>2019-03-09T17:44:54Z</time>
      </trkpt>
      <trkpt lat="45.8254" lon="3.07766">
        <ele>382</ele>
        <time>2019-03-09T17:45:54Z</time>
      </trkpt>
      <trkpt lat="45.82542" lon="3.07764">
        <ele>382</ele>
        <time>2019-03-09T17:46:54Z</time>
      </trkpt>
      <trkpt lat="45.82554" lon="3.07763">
        <ele>382</ele>
        <time>2019-03-09T17:47:54Z</time>
      </trkpt>
      <trkpt lat="45.82561" lon="3.07765">
        <ele>382</ele>
        <time>2019-03-09T17:48:54Z</time>
      </trkpt>
      <trkpt lat="45.82569" lon="3.07766">
        <ele>383</ele>
        <time>2019-03-09T17:49:54Z</time>
      </trkpt>
      <trkpt lat="45.82576" lon="3.07763">
        <ele>383</ele>
        <time>2019-03-09T17:50:54Z</time>
      </trkpt>
      <trkpt lat="45.82584" lon="3.07762">
        <ele>383</ele>
        <time>2019-03-09T17:51:54Z</time>
      </trkpt>
      <trkpt lat="45.82592" lon="3.0776">
        <ele>383</ele>
        <time>2019-03-09T17:52:54Z</time>
      </trkpt>
      <trkpt lat="45.82615" lon="3.07752">
        <ele>384</ele>
        <time>2019-03-09T17:53:54Z</time>
      </trkpt>
      <trkpt lat="45.82623" lon="3.07749">
        <ele>384</ele>
        <time>2019-03-09T17:54:54Z</time>
      </trkpt>
      <trkpt lat="45.82635" lon="3.07746">
        <ele>384</ele>
        <time>2019-03-09T17:55:54Z</time>
      </trkpt>
      <trkpt lat="45.82641" lon="3.07744">
        <ele>385</ele>
        <time>2019-03-09T17:56:54Z</time>
      </trkpt>
      <trkpt lat="45.82656" lon="3.07741">
        <ele>385</ele>
        <time>2019-03-09T17:57:54Z</time>
      </trkpt>
      <trkpt lat="45.82665" lon="3.07739">
        <ele>385</ele>
        <time>2019-03-09T17:58:54Z</time>
      </trkpt>
      <trkpt lat="45.82677" lon="3.07735">
        <ele>386</ele>
        <time>2019-03-09T17:59:54Z</time>
      </trkpt>
      <trkpt lat="45.82684" lon="3.07732">
        <ele>386</ele>
        <time>2019-03-09T18:00:54Z</time>
      </trkpt>
      <trkpt lat="45.82711" lon="3.07719">
        <ele>388</ele>
        <time>2019-03-09T18:01:54Z</time>
      </trkpt>
      <trkpt lat="45.8272" lon="3.07714">
        <ele>388</ele>
        <time>2019-03-09T18:02:54Z</time>
      </trkpt>
      <trkpt lat="45.82746" lon="3.07695">
        <ele>390</ele>
        <time>2019-03-09T18:03:54Z</time>
      </trkpt>
      <trkpt lat="45.82754" lon="3.07691">
        <ele>391</ele>
        <time>2019-03-09T18:04:54Z</time>
      </trkpt>
      <trkpt lat="45.82762" lon="3.07687">
        <ele>391</ele>
        <time>2019-03-09T18:05:54Z</time>
      </trkpt>
      <trkpt lat="45.82769" lon="3.07689">
        <ele>392</ele>
        <time>2019-03-09T18:06:54Z</time>
      </trkpt>
      <trkpt lat="45.82778" lon="3.0769">
        <ele>392</ele>
        <time>2019-03-09T18:07:54Z</time>
      </trkpt>
      <trkpt lat="45.82784" lon="3.07685">
        <ele>393</ele>
        <time>2019-03-09T18:08:54Z</time>
      </trkpt>
      <trkpt lat="45.82789" lon="3.07679">
        <ele>393</ele>
        <time>2019-03-09T18:09:54Z</time>
      </trkpt>
      <trkpt lat="45.82794" lon="3.07671">
        <ele>394</ele>
        <time>2019-03-09T18:10:54Z</time>
      </trkpt>
      <trkpt lat="45.82801" lon="3.07664">
        <ele>395</ele>
        <time>2019-03-09T18:11:54Z</time>
      </trkpt>
      <trkpt lat="45.82808" lon="3.07662">
        <ele>395</ele>
        <time>2019-03-09T18:12:54Z</time>
      </trkpt>
      <trkpt lat="45.82815" lon="3.07665">
        <ele>395</ele>
        <time>2019-03-09T18:13:54Z</time>
      </trkpt>
      <trkpt lat="45.82822" lon="3.07671">
        <ele>395</ele>
        <time>2019-03-09T18:14:54Z</time>
      </trkpt>
      <trkpt lat="45.82829" lon="3.07674">
        <ele>396</ele>
        <time>2019-03-09T18:15:54Z</time>
      </trkpt>
      <trkpt lat="45.82836" lon="3.07668">
        <ele>396</ele>
        <time>2019-03-09T18:16:54Z</time>
      </trkpt>
      <trkpt lat="45.82841" lon="3.07661">
        <ele>396</ele>
        <time>2019-03-09T18:17:54Z</time>
      </trkpt>
      <trkpt lat="45.82843" lon="3.07659">
        <ele>397</ele>
        <time>2019-03-09T18:18:54Z</time>
      </trkpt>
      <trkpt lat="45.82847" lon="3.0763">
        <ele>398</ele>
        <time>2019-03-09T18:19:54Z</time>
      </trkpt>
      <trkpt lat="45.82849" lon="3.07618">
        <ele>398</ele>
        <time>2019-03-09T18:20:54Z</time>
      </trkpt>
      <trkpt lat="45.82857" lon="3.07613">
        <ele>399</ele>
        <time>2019-03-09T18:21:54Z</time>
      </trkpt>
      <trkpt lat="45.82866" lon="3.07611">
        <ele>399</ele>
        <time>2019-03-09T18:22:54Z</time>
      </trkpt>
      <trkpt lat="45.82871" lon="3.07601">
        <ele>399</ele>
        <time>2019-03-09T18:23:54Z</time>
      </trkpt>
      <trkpt lat="45.82871" lon="3.07588">
        <ele>400</ele>
        <time>2019-03-09T18:24:54Z</time>
      </trkpt>
      <trkpt lat="45.82872" lon="3.07576">
        <ele>400</ele>
        <time>2019-03-09T18:25:54Z</time>
      </trkpt>
      <trkpt lat="45.8287" lon="3.07553">
        <ele>401</ele>
        <time>2019-03-09T18:26:54Z</time>
      </trkpt>
      <trkpt lat="45.82869" lon="3.07542">
        <ele>401</ele>
        <time>2019-03-09T18:27:54Z</time>
      </trkpt>
      <trkpt lat="45.82871" lon="3.0745">
        <ele>403</ele>
        <time>2019-03-09T18:28:54Z</time>
      </trkpt>
      <trkpt lat="45.82871" lon="3.07439">
        <ele>404</ele>
        <time>2019-03-09T18:29:54Z</time>
      </trkpt>
      <trkpt lat="45.82868" lon="3.07385">
        <ele>405</ele>
        <time>2019-03-09T18:30:54Z</time>
      </trkpt>
      <trkpt lat="45.82868" lon="3.07381">
        <ele>405</ele>
        <time>2019-03-09T18:31:54Z</time>
      </trkpt>
      <trkpt lat="45.82866" lon="3.0726">
        <ele>408</ele>
        <time>2019-03-09T18:32:54Z</time>
      </trkpt>
      <trkpt lat="45.82865" lon="3.07248">
        <ele>408</ele>
        <time>2019-03-09T18:33:54Z</time>
      </trkpt>
      <trkpt lat="45.82865" lon="3.07224">
        <ele>409</ele>
        <time>2019-03-09T18:34:54Z</time>
      </trkpt>
      <trkpt lat="45.82866" lon="3.07212">
        <ele>409</ele>
        <time>2019-03-09T18:35:54Z</time>
      </trkpt>
      <trkpt lat="45.82865" lon="3.07164">
        <ele>411</ele>
        <time>2019-03-09T18:36:54Z</time>
      </trkpt>
      <trkpt lat="45.82866" lon="3.07152">
        <ele>412</ele>
        <time>2019-03-09T18:37:54Z</time>
      </trkpt>
      <trkpt lat="45.82865" lon="3.07137">
        <ele>413</ele>
        <time>2019-03-09T18:38:54Z</time>
      </trkpt>
      <trkpt lat="45.82866" lon="3.07118">
        <ele>414</ele>
        <time>2019-03-09T18:39:54Z</time>
      </trkpt>
      <trkpt lat="45.82867" lon="3.07094">
        <ele>416</ele>
        <time>2019-03-09T18:40:54Z</time>
      </trkpt>
      <trkpt lat="45.82868" lon="3.07082">
        <ele>417</ele>
        <time>2019-03-09T18:41:54Z</time>
      </trkpt>
      <trkpt lat="45.8287" lon="3.0707">
        <ele>417</ele>
        <time>2019-03-09T18:42:54Z</time>
      </trkpt>
      <trkpt lat="45.82871" lon="3.07059">
        <ele>418</ele>
        <time>2019-03-09T18:43:54Z</time>
      </trkpt>
      <trkpt lat="45.82876" lon="3.07036">
        <ele>419</ele>
        <time>2019-03-09T18:44:54Z</time>
      </trkpt>
      <trkpt lat="45.82878" lon="3.07023">
        <ele>420</ele>
        <time>2019-03-09T18:45:54Z</time>
      </trkpt>
      <trkpt lat="45.82882" lon="3.06987">
        <ele>422</ele>
        <time>2019-03-09T18:46:54Z</time>
      </trkpt>
      <trkpt lat="45.82883" lon="3.06975">
        <ele>423</ele>
        <time>2019-03-09T18:47:54Z</time>
      </trkpt>
      <trkpt lat="45.82883" lon="3.06963">
        <ele>423</ele>
        <time>2019-03-09T18:48:54Z</time>
      </trkpt>
      <trkpt lat="45.82884" lon="3.0695">
        <ele>424</ele>
        <time>2019-03-09T18:49:54Z</time>
      </trkpt>
      <trkpt lat="45.82883" lon="3.06938">
        <ele>424</ele>
        <time>2019-03-09T18:50:54Z</time>
      </trkpt>
      <trkpt lat="45.82883" lon="3.06926">
        <ele>424</ele>
        <time>2019-03-09T18:51:54Z</time>
      </trkpt>
      <trkpt lat="45.82881" lon="3.06887">
        <ele>425</ele>
        <time>2019-03-09T18:52:54Z</time>
      </trkpt>
      <trkpt lat="45.82881" lon="3.06869">
        <ele>426</ele>
        <time>2019-03-09T18:53:54Z</time>
      </trkpt>
      <trkpt lat="45.82881" lon="3.06845">
        <ele>427</ele>
        <time>2019-03-09T18:54:54Z</time>
      </trkpt>
      <trkpt lat="45.82881" lon="3.06833">
        <ele>427</ele>
        <time>2019-03-09T18:55:54Z</time>
      </trkpt>
      <trkpt lat="45.82884" lon="3.06799">
        <ele>428</ele>
        <time>2019-03-09T18:56:54Z</time>
      </trkpt>
      <trkpt lat="45.82885" lon="3.06787">
        <ele>428</ele>
        <time>2019-03-09T18:57:54Z</time>
      </trkpt>
      <trkpt lat="45.82892" lon="3.06741">
        <ele>430</ele>
        <time>2019-03-09T18:58:54Z</time>
      </trkpt>
      <trkpt lat="45.82894" lon="3.06731">
        <ele>430</ele>
        <time>2019-03-09T18:59:54Z</time>
      </trkpt>
      <trkpt lat="45.82893" lon="3.06718">
        <ele>430</ele>
        <time>2019-03-09T19:00:54Z</time>
      </trkpt>
      <trkpt lat="45.82888" lon="3.06709">
        <ele>430</ele>
        <time>2019-03-09T19:01:54Z</time>
      </trkpt>
      <trkpt lat="45.82881" lon="3.06704">
        <ele>429</ele>
        <time>2019-03-09T19:02:54Z</time>
      </trkpt>
      <trkpt lat="45.82874" lon="3.06699">
        <ele>429</ele>
        <time>2019-03-09T19:03:54Z</time>
      </trkpt>
      <trkpt lat="45.82866" lon="3.06695">
        <ele>429</ele>
        <time>2019-03-09T19:04:54Z</time>
      </trkpt>
      <trkpt lat="45.82861" lon="3.06686">
        <ele>428</ele>
        <time>2019-03-09T19:05:54Z</time>
      </trkpt>
      <trkpt lat="45.82859" lon="3.06682">
        <ele>428</ele>
        <time>2019-03-09T19:06:54Z</time>
      </trkpt>
      <trkpt lat="45.82854" lon="3.06664">
        <ele>428</ele>
        <time>2019-03-09T19:07:54Z</time>
      </trkpt>
      <trkpt lat="45.82855" lon="3.06654">
        <ele>429</ele>
        <time>2019-03-09T19:08:54Z</time>
      </trkpt>
      <trkpt lat="45.82863" lon="3.06634">
        <ele>430</ele>
        <time>2019-03-09T19:09:54Z</time>
      </trkpt>
      <trkpt lat="45.82867" lon="3.06624">
        <ele>431</ele>
        <time>2019-03-09T19:10:54Z</time>
      </trkpt>
      <trkpt lat="45.82871" lon="3.06613">
        <ele>431</ele>
        <time>2019-03-09T19:11:54Z</time>
      </trkpt>
      <trkpt lat="45.82875" lon="3.06602">
        <ele>432</ele>
        <time>2019-03-09T19:12:54Z</time>
      </trkpt>
      <trkpt lat="45.82884" lon="3.06583">
        <ele>434</ele>
        <time>2019-03-09T19:13:54Z</time>
      </trkpt>
      <trkpt lat="45.82889" lon="3.06573">
        <ele>435</ele>
        <time>2019-03-09T19:14:54Z</time>
      </trkpt>
      <trkpt lat="45.82897" lon="3.06567">
        <ele>436</ele>
        <time>2019-03-09T19:15:54Z</time>
      </trkpt>
      <trkpt lat="45.82913" lon="3.06559">
        <ele>438</ele>
        <time>2019-03-09T19:16:54Z</time>
      </trkpt>
      <trkpt lat="45.82921" lon="3.06556">
        <ele>438</ele>
        <time>2019-03-09T19:17:54Z</time>
      </trkpt>
      <trkpt lat="45.82922" lon="3.06555">
        <ele>438</ele>
        <time>2019-03-09T19:18:54Z</time>
      </trkpt>
      <trkpt lat="45.82936" lon="3.06549">
        <ele>439</ele>
        <time>2019-03-09T19:19:54Z</time>
      </trkpt>
      <trkpt lat="45.82952" lon="3.06544">
        <ele>441</ele>
        <time>2019-03-09T19:20:54Z</time>
      </trkpt>
      <trkpt lat="45.82961" lon="3.06543">
        <ele>441</ele>
        <time>2019-03-09T19:21:54Z</time>
      </trkpt>
      <trkpt lat="45.8297" lon="3.06544">
        <ele>442</ele>
        <time>2019-03-09T19:22:54Z</time>
      </trkpt>
      <trkpt lat="45.82978" lon="3.06546">
        <ele>442</ele>
        <time>2019-03-09T19:23:54Z</time>
      </trkpt>
      <trkpt lat="45.83001" lon="3.06562">
        <ele>443</ele>
        <time>2019-03-09T19:24:54Z</time>
      </trkpt>
      <trkpt lat="45.83008" lon="3.06566">
        <ele>443</ele>
        <time>2019-03-09T19:25:54Z</time>
      </trkpt>
      <trkpt lat="45.83016" lon="3.06569">
        <ele>444</ele>
        <time>2019-03-09T19:26:54Z</time>
      </trkpt>
      <trkpt lat="45.83025" lon="3.0657">
        <ele>445</ele>
        <time>2019-03-09T19:27:54Z</time>
      </trkpt>
      <trkpt lat="45.83034" lon="3.0657">
        <ele>445</ele>
        <time>2019-03-09T19:28:54Z</time>
      </trkpt>
      <trkpt lat="45.83041" lon="3.06569">
        <ele>446</ele>
        <time>2019-03-09T19:29:54Z</time>
      </trkpt>
      <trkpt lat="45.8305" lon="3.06567">
        <ele>447</ele>
        <time>2019-03-09T19:30:54Z</time>
      </trkpt>
      <trkpt lat="45.83072" lon="3.0656">
        <ele>449</ele>
        <time>2019-03-09T19:31:54Z</time>
      </trkpt>
      <trkpt lat="45.83081" lon="3.06557">
        <ele>449</ele>
        <time>2019-03-09T19:32:54Z</time>
      </trkpt>
      <trkpt lat="45.83089" lon="3.06556">
        <ele>450</ele>
        <time>2019-03-09T19:33:54Z</time>
      </trkpt>
      <trkpt lat="45.83097" lon="3.06555">
        <ele>451</ele>
        <time>2019-03-09T19:34:54Z</time>
      </trkpt>
      <trkpt lat="45.83112" lon="3.06555">
        <ele>452</ele>
        <time>2019-03-09T19:35:54Z</time>
      </trkpt>
      <trkpt lat="45.8312" lon="3.06554">
        <ele>452</ele>
        <time>2019-03-09T19:36:54Z</time>
      </trkpt>
      <trkpt lat="45.83128" lon="3.0655">
        <ele>453</ele>
        <time>2019-03-09T19:37:54Z</time>
      </trkpt>
      <trkpt lat="45.83135" lon="3.06546">
        <ele>454</ele>
        <time>2019-03-09T19:38:54Z</time>
      </trkpt>
      <trkpt lat="45.83142" lon="3.06542">
        <ele>454</ele>
        <time>2019-03-09T19:39:54Z</time>
      </trkpt>
      <trkpt lat="45.83149" lon="3.06539">
        <ele>455</ele>
        <time>2019-03-09T19:40:54Z</time>
      </trkpt>
      <trkpt lat="45.83156" lon="3.06539">
        <ele>455</ele>
        <time>2019-03-09T19:41:54Z</time>
      </trkpt>
      <trkpt lat="45.83164" lon="3.0654">
        <ele>456</ele>
        <time>2019-03-09T19:42:54Z</time>
      </trkpt>
      <trkpt lat="45.83171" lon="3.06544">
        <ele>456</ele>
        <time>2019-03-09T19:43:54Z</time>
      </trkpt>
      <trkpt lat="45.83183" lon="3.06556">
        <ele>457</ele>
        <time>2019-03-09T19:44:54Z</time>
      </trkpt>
      <trkpt lat="45.83186" lon="3.06557">
        <ele>457</ele>
        <time>2019-03-09T19:45:54Z</time>
      </trkpt>
      <trkpt lat="45.83197" lon="3.06565">
        <ele>458</ele>
        <time>2019-03-09T19:46:54Z</time>
      </trkpt>
      <trkpt lat="45.83204" lon="3.06566">
        <ele>458</ele>
        <time>2019-03-09T19:47:54Z</time>
      </trkpt>
      <trkpt lat="45.83212" lon="3.06565">
        <ele>459</ele>
        <time>2019-03-09T19:48:54Z</time>
      </trkpt>
      <trkpt lat="45.83219" lon="3.06562">
        <ele>459</ele>
        <time>2019-03-09T19:49:54Z</time>
      </trkpt>
      <trkpt lat="45.83227" lon="3.06559">
        <ele>460</ele>
        <time>2019-03-09T19:50:54Z</time>
      </trkpt>
      <trkpt lat="45.83257" lon="3.06544">
        <ele>462</ele>
        <time>2019-03-09T19:51:54Z</time>
      </trkpt>
      <trkpt lat="45.83265" lon="3.06543">
        <ele>463</ele>
        <time>2019-03-09T19:52:54Z</time>
      </trkpt>
      <trkpt lat="45.83282" lon="3.0654">
        <ele>464</ele>
        <time>2019-03-09T19:53:54Z</time>
      </trkpt>
      <trkpt lat="45.83291" lon="3.0654">
        <ele>464</ele>
        <time>2019-03-09T19:54:54Z</time>
      </trkpt>
      <trkpt lat="45.83318" lon="3.06543">
        <ele>466</ele>
        <time>2019-03-09T19:55:54Z</time>
      </trkpt>
      <trkpt lat="45.83332" lon="3.06544">
        <ele>467</ele>
        <time>2019-03-09T19:56:54Z</time>
      </trkpt>
      <trkpt lat="45.83348" lon="3.06545">
        <ele>469</ele>
        <time>2019-03-09T19:57:54Z</time>
      </trkpt>
      <trkpt lat="45.83355" lon="3.06546">
        <ele>470</ele>
        <time>2019-03-09T19:58:54Z</time>
      </trkpt>
      <trkpt lat="45.83364" lon="3.06543">
        <ele>471</ele>
        <time>2019-03-09T19:59:54Z</time>
      </trkpt>
      <trkpt lat="45.83372" lon="3.06539">
        <ele>472</ele>
        <time>2019-03-09T20:00:54Z</time>
      </trkpt>
      <trkpt lat="45.83379" lon="3.06533">
        <ele>472</ele>
        <time>2019-03-09T20:01:54Z</time>
      </trkpt>
      <trkpt lat="45.83401" lon="3.0652">
        <ele>475</ele>
        <time>2019-03-09T20:02:54Z</time>
      </trkpt>
      <trkpt lat="45.83408" lon="3.06515">
        <ele>476</ele>
        <time>2019-03-09T20:03:54Z</time>
      </trkpt>
      <trkpt lat="45.83438" lon="3.06502">
        <ele>479</ele>
        <time>2019-03-09T20:04:54Z</time>
      </trkpt>
      <trkpt lat="45.8344" lon="3.06501">
        <ele>479</ele>
        <time>2019-03-09T20:05:54Z</time>
      </trkpt>
      <trkpt lat="45.83453" lon="3.06492">
        <ele>480</ele>
        <time>2019-03-09T20:06:54Z</time>
      </trkpt>
      <trkpt lat="45.8346" lon="3.06486">
        <ele>481</ele>
        <time>2019-03-09T20:07:54Z</time>
      </trkpt>
      <trkpt lat="45.83466" lon="3.0648">
        <ele>482</ele>
        <time>2019-03-09T20:08:54Z</time>
      </trkpt>
      <trkpt lat="45.83472" lon="3.06474">
        <ele>482</ele>
        <time>2019-03-09T20:09:54Z</time>
      </trkpt>
      <trkpt lat="45.83478" lon="3.06467">
        <ele>483</ele>
        <time>2019-03-09T20:10:54Z</time>
      </trkpt>
      <trkpt lat="45.83483" lon="3.06459">
        <ele>483</ele>
        <time>2019-03-09T20:11:54Z</time>
      </trkpt>
      <trkpt lat="45.83496" lon="3.06446">
        <ele>484</ele>
        <time>2019-03-09T20:12:54Z</time>
      </trkpt>
      <trkpt lat="45.83502" lon="3.06439">
        <ele>485</ele>
        <time>2019-03-09T20:13:54Z</time>
      </trkpt>
      <trkpt lat="45.83514" lon="3.06423">
        <ele>485</ele>
        <time>2019-03-09T20:14:54Z</time>
      </trkpt>
      <trkpt lat="45.8352" lon="3.06414">
        <ele>486</ele>
        <time>2019-03-09T20:15:54Z</time>
      </trkpt>
      <trkpt lat="45.83535" lon="3.06387">
        <ele>486</ele>
        <time>2019-03-09T20:16:54Z</time>
      </trkpt>
      <trkpt lat="45.83537" lon="3.06385">
        <ele>487</ele>
        <time>2019-03-09T20:17:54Z</time>
      </trkpt>
      <trkpt lat="45.83545" lon="3.06372">
        <ele>487</ele>
        <time>2019-03-09T20:18:54Z</time>
      </trkpt>
      <trkpt lat="45.83551" lon="3.06366">
        <ele>488</ele>
        <time>2019-03-09T20:19:54Z</time>
      </trkpt>
      <trkpt lat="45.83556" lon="3.06359">
        <ele>488</ele>
        <time>2019-03-09T20:20:54Z</time>
      </trkpt>
      <trkpt lat="45.83566" lon="3.06344">
        <ele>489</ele>
        <time>2019-03-09T20:21:54Z</time>
      </trkpt>
      <trkpt lat="45.83571" lon="3.06336">
        <ele>489</ele>
        <time>2019-03-09T20:22:54Z</time>
      </trkpt>
      <trkpt lat="45.83577" lon="3.06317">
        <ele>490</ele>
        <time>2019-03-09T20:23:54Z</time>
      </trkpt>
      <trkpt lat="45.83581" lon="3.06308">
        <ele>490</ele>
        <time>2019-03-09T20:24:54Z</time>
      </trkpt>
      <trkpt lat="45.83586" lon="3.0629">
        <ele>491</ele>
        <time>2019-03-09T20:25:54Z</time>
      </trkpt>
      <trkpt lat="45.83589" lon="3.0628">
        <ele>492</ele>
        <time>2019-03-09T20:26:54Z</time>
      </trkpt>
      <trkpt lat="45.83588" lon="3.06235">
        <ele>493</ele>
        <time>2019-03-09T20:27:54Z</time>
      </trkpt>
      <trkpt lat="45.83588" lon="3.06222">
        <ele>494</ele>
        <time>2019-03-09T20:28:54Z</time>
      </trkpt>
      <trkpt lat="45.83588" lon="3.0621">
        <ele>494</ele>
        <time>2019-03-09T20:29:54Z</time>
      </trkpt>
      <trkpt lat="45.8359" lon="3.06196">
        <ele>495</ele>
        <time>2019-03-09T20:30:54Z</time>
      </trkpt>
      <trkpt lat="45.83598" lon="3.0618">
        <ele>496</ele>
        <time>2019-03-09T20:31:54Z</time>
      </trkpt>
      <trkpt lat="45.83605" lon="3.06174">
        <ele>496</ele>
        <time>2019-03-09T20:32:54Z</time>
      </trkpt>
      <trkpt lat="45.83613" lon="3.0617">
        <ele>497</ele>
        <time>2019-03-09T20:33:54Z</time>
      </trkpt>
      <trkpt lat="45.83628" lon="3.06163">
        <ele>498</ele>
        <time>2019-03-09T20:34:54Z</time>
      </trkpt>
      <trkpt lat="45.83635" lon="3.0616">
        <ele>498</ele>
        <time>2019-03-09T20:35:54Z</time>
      </trkpt>
      <trkpt lat="45.8367" lon="3.06147">
        <ele>499</ele>
        <time>2019-03-09T20:36:54Z</time>
      </trkpt>
      <trkpt lat="45.83678" lon="3.06144">
        <ele>500</ele>
        <time>2019-03-09T20:37:54Z</time>
      </trkpt>
      <trkpt lat="45.83685" lon="3.0614">
        <ele>500</ele>
        <time>2019-03-09T20:38:54Z</time>
      </trkpt>
      <trkpt lat="45.83692" lon="3.06135">
        <ele>500</ele>
        <time>2019-03-09T20:39:54Z</time>
      </trkpt>
      <trkpt lat="45.837" lon="3.06129">
        <ele>500</ele>
        <time>2019-03-09T20:40:54Z</time>
      </trkpt>
      <trkpt lat="45.83705" lon="3.06124">
        <ele>500</ele>
        <time>2019-03-09T20:41:54Z</time>
      </trkpt>
      <trkpt lat="45.83723" lon="3.06105">
        <ele>501</ele>
        <time>2019-03-09T20:42:54Z</time>
      </trkpt>
      <trkpt lat="45.83734" lon="3.06092">
        <ele>502</ele>
        <time>2019-03-09T20:43:54Z</time>
      </trkpt>
      <trkpt lat="45.8374" lon="3.06084">
        <ele>502</ele>
        <time>2019-03-09T20:44:54Z</time>
      </trkpt>
      <trkpt lat="45.83745" lon="3.06075">
        <ele>502</ele>
        <time>2019-03-09T20:45:54Z</time>
      </trkpt>
      <trkpt lat="45.83751" lon="3.06067">
        <ele>503</ele>
        <time>2019-03-09T20:46:54Z</time>
      </trkpt>
      <trkpt lat="45.83779" lon="3.06043">
        <ele>504</ele>
        <time>2019-03-09T20:47:54Z</time>
      </trkpt>
      <trkpt lat="45.83786" lon="3.06035">
        <ele>504</ele>
        <time>2019-03-09T20:48:54Z</time>
      </trkpt>
      <trkpt lat="45.83815" lon="3.05987">
        <ele>505</ele>
        <time>2019-03-09T20:49:54Z</time>
      </trkpt>
      <trkpt lat="45.83819" lon="3.05979">
        <ele>505</ele>
        <time>2019-03-09T20:50:54Z</time>
      </trkpt>
      <trkpt lat="45.83828" lon="3.05952">
        <ele>506</ele>
        <time>2019-03-09T20:51:54Z</time>
      </trkpt>
      <trkpt lat="45.83831" lon="3.05944">
        <ele>506</ele>
        <time>2019-03-09T20:52:54Z</time>
      </trkpt>
      <trkpt lat="45.83835" lon="3.05936">
        <ele>507</ele>
        <time>2019-03-09T20:53:54Z</time>
      </trkpt>
      <trkpt lat="45.8384" lon="3.0593">
        <ele>507</ele>
        <time>2019-03-09T20:54:54Z</time>
      </trkpt>
      <trkpt lat="45.83855" lon="3.05919">
        <ele>507</ele>
        <time>2019-03-09T20:55:54Z</time>
      </trkpt>
      <trkpt lat="45.83865" lon="3.05913">
        <ele>507</ele>
        <time>2019-03-09T20:56:54Z</time>
      </trkpt>
      <trkpt lat="45.83871" lon="3.05909">
        <ele>507</ele>
        <time>2019-03-09T20:57:54Z</time>
      </trkpt>
      <trkpt lat="45.83878" lon="3.05906">
        <ele>507</ele>
        <time>2019-03-09T20:58:54Z</time>
      </trkpt>
      <trkpt lat="45.83892" lon="3.05902">
        <ele>508</ele>
        <time>2019-03-09T20:59:54Z</time>
      </trkpt>
      <trkpt lat="45.83898" lon="3.05901">
        <ele>508</ele>
        <time>2019-03-09T21:00:54Z</time>
      </trkpt>
      <trkpt lat="45.83905" lon="3.05901">
        <ele>508</ele>
        <time>2019-03-09T21:01:54Z</time>
      </trkpt>
      <trkpt lat="45.83912" lon="3.05902">
        <ele>508</ele>
        <time>2019-03-09T21:02:54Z</time>
      </trkpt>
      <trkpt lat="45.83952" lon="3.05909">
        <ele>509</ele>
        <time>2019-03-09T21:03:54Z</time>
      </trkpt>
      <trkpt lat="45.83959" lon="3.0591">
        <ele>509</ele>
        <time>2019-03-09T21:04:54Z</time>
      </trkpt>
      <trkpt lat="45.83965" lon="3.05912">
        <ele>510</ele>
        <time>2019-03-09T21:05:54Z</time>
      </trkpt>
      <trkpt lat="45.83972" lon="3.05913">
        <ele>510</ele>
        <time>2019-03-09T21:06:54Z</time>
      </trkpt>
      <trkpt lat="45.83984" lon="3.05917">
        <ele>510</ele>
        <time>2019-03-09T21:07:54Z</time>
      </trkpt>
      <trkpt lat="45.83991" lon="3.05919">
        <ele>510</ele>
        <time>2019-03-09T21:08:54Z</time>
      </trkpt>
      <trkpt lat="45.83998" lon="3.05921">
        <ele>511</ele>
        <time>2019-03-09T21:09:54Z</time>
      </trkpt>
      <trkpt lat="45.84005" lon="3.05921">
        <ele>511</ele>
        <time>2019-03-09T21:10:54Z</time>
      </trkpt>
      <trkpt lat="45.84018" lon="3.05922">
        <ele>511</ele>
        <time>2019-03-09T21:11:54Z</time>
      </trkpt>
      <trkpt lat="45.84025" lon="3.05921">
        <ele>511</ele>
        <time>2019-03-09T21:12:54Z</time>
      </trkpt>
      <trkpt lat="45.84033" lon="3.05919">
        <ele>511</ele>
        <time>2019-03-09T21:13:54Z</time>
      </trkpt>
      <trkpt lat="45.84042" lon="3.05915">
        <ele>511</ele>
        <time>2019-03-09T21:14:54Z</time>
      </trkpt>
      <trkpt lat="45.84054" lon="3.05913">
        <ele>511</ele>
        <time>2019-03-09T21:15:54Z</time>
      </trkpt>
      <trkpt lat="45.84068" lon="3.05907">
        <ele>512</ele>
        <time>2019-03-09T21:16:54Z</time>
      </trkpt>
      <trkpt lat="45.84086" lon="3.0589">
        <ele>513</ele>
        <time>2019-03-09T21:17:54Z</time>
      </trkpt>
      <trkpt lat="45.84091" lon="3.05885">
        <ele>513</ele>
        <time>2019-03-09T21:18:54Z</time>
      </trkpt>
      <trkpt lat="45.84102" lon="3.05878">
        <ele>513</ele>
        <time>2019-03-09T21:19:54Z</time>
      </trkpt>
      <trkpt lat="45.84108" lon="3.05874">
        <ele>514</ele>
        <time>2019-03-09T21:20:54Z</time>
      </trkpt>
      <trkpt lat="45.8413" lon="3.05856">
        <ele>515</ele>
        <time>2019-03-09T21:21:54Z</time>
      </trkpt>
      <trkpt lat="45.84136" lon="3.05851">
        <ele>515</ele>
        <time>2019-03-09T21:22:54Z</time>
      </trkpt>
      <trkpt lat="45.84173" lon="3.05815">
        <ele>516</ele>
        <time>2019-03-09T21:23:54Z</time>
      </trkpt>
      <trkpt lat="45.84179" lon="3.0581">
        <ele>516</ele>
        <time>2019-03-09T21:24:54Z</time>
      </trkpt>
      <trkpt lat="45.84219" lon="3.05775">
        <ele>516</ele>
        <time>2019-03-09T21:25:54Z</time>
      </trkpt>
      <trkpt lat="45.84222" lon="3.05772">
        <ele>516</ele>
        <time>2019-03-09T21:26:54Z</time>
      </trkpt>
      <trkpt lat="45.84256" lon="3.05738">
        <ele>516</ele>
        <time>2019-03-09T21:27:54Z</time>
      </trkpt>
      <trkpt lat="45.84263" lon="3.05732">
        <ele>516</ele>
        <time>2019-03-09T21:28:54Z</time>
      </trkpt>
      <trkpt lat="45.84269" lon="3.05725">
        <ele>516</ele>
        <time>2019-03-09T21:29:54Z</time>
      </trkpt>
      <trkpt lat="45.84276" lon="3.05717">
        <ele>516</ele>
        <time>2019-03-09T21:30:54Z</time>
      </trkpt>
      <trkpt lat="45.84287" lon="3.05706">
        <ele>516</ele>
        <time>2019-03-09T21:31:54Z</time>
      </trkpt>
      <trkpt lat="45.84293" lon="3.057">
        <ele>516</ele>
        <time>2019-03-09T21:32:54Z</time>
      </trkpt>
      <trkpt lat="45.84303" lon="3.05689">
        <ele>516</ele>
        <time>2019-03-09T21:33:54Z</time>
      </trkpt>
      <trkpt lat="45.84315" lon="3.05677">
        <ele>516</ele>
        <time>2019-03-09T21:34:54Z</time>
      </trkpt>
      <trkpt lat="45.84322" lon="3.05671">
        <ele>516</ele>
        <time>2019-03-09T21:35:54Z</time>
      </trkpt>
      <trkpt lat="45.84363" lon="3.05627">
        <ele>518</ele>
        <time>2019-03-09T21:36:54Z</time>
      </trkpt>
      <trkpt lat="45.84368" lon="3.05621">
        <ele>518</ele>
        <time>2019-03-09T21:37:54Z</time>
      </trkpt>
      <trkpt lat="45.84405" lon="3.05572">
        <ele>518</ele>
        <time>2019-03-09T21:38:54Z</time>
      </trkpt>
      <trkpt lat="45.84411" lon="3.05565">
        <ele>518</ele>
        <time>2019-03-09T21:39:54Z</time>
      </trkpt>
      <trkpt lat="45.8443" lon="3.05543">
        <ele>518</ele>
        <time>2019-03-09T21:40:54Z</time>
      </trkpt>
      <trkpt lat="45.84437" lon="3.05536">
        <ele>517</ele>
        <time>2019-03-09T21:41:54Z</time>
      </trkpt>
      <trkpt lat="45.8451" lon="3.05459">
        <ele>516</ele>
        <time>2019-03-09T21:42:54Z</time>
      </trkpt>
      <trkpt lat="45.84517" lon="3.05452">
        <ele>516</ele>
        <time>2019-03-09T21:43:54Z</time>
      </trkpt>
      <trkpt lat="45.84531" lon="3.05439">
        <ele>516</ele>
        <time>2019-03-09T21:44:54Z</time>
      </trkpt>
      <trkpt lat="45.84537" lon="3.05432">
        <ele>516</ele>
        <time>2019-03-09T21:45:54Z</time>
      </trkpt>
      <trkpt lat="45.84593" lon="3.05371">
        <ele>515</ele>
        <time>2019-03-09T21:46:54Z</time>
      </trkpt>
      <trkpt lat="45.84601" lon="3.05364">
        <ele>514</ele>
        <time>2019-03-09T21:47:54Z</time>
      </trkpt>
      <trkpt lat="45.84606" lon="3.05355">
        <ele>514</ele>
        <time>2019-03-09T21:48:54Z</time>
      </trkpt>
      <trkpt lat="45.84614" lon="3.05336">
        <ele>514</ele>
        <time>2019-03-09T21:49:54Z</time>
      </trkpt>
      <trkpt lat="45.84619" lon="3.05329">
        <ele>514</ele>
        <time>2019-03-09T21:50:54Z</time>
      </trkpt>
      <trkpt lat="45.84624" lon="3.05324">
        <ele>514</ele>
        <time>2019-03-09T21:51:54Z</time>
      </trkpt>
      <trkpt lat="45.8463" lon="3.05318">
        <ele>514</ele>
        <time>2019-03-09T21:52:54Z</time>
      </trkpt>
      <trkpt lat="45.84663" lon="3.05282">
        <ele>513</ele>
        <time>2019-03-09T21:53:54Z</time>
      </trkpt>
      <trkpt lat="45.84671" lon="3.05274">
        <ele>513</ele>
        <time>2019-03-09T21:54:54Z</time>
      </trkpt>
      <trkpt lat="45.84678" lon="3.05269">
        <ele>513</ele>
        <time>2019-03-09T21:55:54Z</time>
      </trkpt>
      <trkpt lat="45.84691" lon="3.05262">
        <ele>513</ele>
        <time>2019-03-09T21:56:54Z</time>
      </trkpt>
      <trkpt lat="45.84695" lon="3.05261">
        <ele>513</ele>
        <time>2019-03-09T21:57:54Z</time>
      </trkpt>
      <trkpt lat="45.84705" lon="3.0526">
        <ele>512</ele>
        <time>2019-03-09T21:58:54Z</time>
      </trkpt>
      <trkpt lat="45.8471" lon="3.05261">
        <ele>512</ele>
        <time>2019-03-09T21:59:54Z</time>
      </trkpt>
      <trkpt lat="45.84726" lon="3.05268">
        <ele>512</ele>
        <time>2019-03-09T22:00:54Z</time>
      </trkpt>
      <trkpt lat="45.84732" lon="3.05271">
        <ele>512</ele>
        <time>2019-03-09T22:01:54Z</time>
      </trkpt>
      <trkpt lat="45.84738" lon="3.05272">
        <ele>511</ele>
        <time>2019-03-09T22:02:54Z</time>
      </trkpt>
      <trkpt lat="45.84744" lon="3.05273">
        <ele>511</ele>
        <time>2019-03-09T22:03:54Z</time>
      </trkpt>
      <trkpt lat="45.84756" lon="3.05271">
        <ele>510</ele>
        <time>2019-03-09T22:04:54Z</time>
      </trkpt>
      <trkpt lat="45.84761" lon="3.05269">
        <ele>510</ele>
        <time>2019-03-09T22:05:54Z</time>
      </trkpt>
      <trkpt lat="45.84776" lon="3.05259">
        <ele>507</ele>
        <time>2019-03-09T22:06:54Z</time>
      </trkpt>
      <trkpt lat="45.84781" lon="3.05254">
        <ele>507</ele>
        <time>2019-03-09T22:07:54Z</time>
      </trkpt>
      <trkpt lat="45.84785" lon="3.05246">
        <ele>506</ele>
        <time>2019-03-09T22:08:54Z</time>
      </trkpt>
      <trkpt lat="45.84787" lon="3.05238">
        <ele>505</ele>
        <time>2019-03-09T22:09:54Z</time>
      </trkpt>
      <trkpt lat="45.84788" lon="3.05228">
        <ele>503</ele>
        <time>2019-03-09T22:10:54Z</time>
      </trkpt>
      <trkpt lat="45.84787" lon="3.05218">
        <ele>503</ele>
        <time>2019-03-09T22:11:54Z</time>
      </trkpt>
      <trkpt lat="45.84785" lon="3.05209">
        <ele>502</ele>
        <time>2019-03-09T22:12:54Z</time>
      </trkpt>
      <trkpt lat="45.84781" lon="3.05199">
        <ele>502</ele>
        <time>2019-03-09T22:13:54Z</time>
      </trkpt>
      <trkpt lat="45.84777" lon="3.0519">
        <ele>502</ele>
        <time>2019-03-09T22:14:54Z</time>
      </trkpt>
      <trkpt lat="45.84741" lon="3.05133">
        <ele>502</ele>
        <time>2019-03-09T22:15:54Z</time>
      </trkpt>
      <trkpt lat="45.84737" lon="3.05121">
        <ele>501</ele>
        <time>2019-03-09T22:16:54Z</time>
      </trkpt>
      <trkpt lat="45.84734" lon="3.05107">
        <ele>500</ele>
        <time>2019-03-09T22:17:54Z</time>
      </trkpt>
      <trkpt lat="45.84733" lon="3.05093">
        <ele>499</ele>
        <time>2019-03-09T22:18:54Z</time>
      </trkpt>
      <trkpt lat="45.84736" lon="3.05078">
        <ele>497</ele>
        <time>2019-03-09T22:19:54Z</time>
      </trkpt>
      <trkpt lat="45.8474" lon="3.05065">
        <ele>497</ele>
        <time>2019-03-09T22:20:54Z</time>
      </trkpt>
      <trkpt lat="45.84745" lon="3.05052">
        <ele>496</ele>
        <time>2019-03-09T22:21:54Z</time>
      </trkpt>
      <trkpt lat="45.8475" lon="3.0504">
        <ele>495</ele>
        <time>2019-03-09T22:22:54Z</time>
      </trkpt>
      <trkpt lat="45.84755" lon="3.05028">
        <ele>495</ele>
        <time>2019-03-09T22:23:54Z</time>
      </trkpt>
      <trkpt lat="45.84779" lon="3.04987">
        <ele>495</ele>
        <time>2019-03-09T22:24:54Z</time>
      </trkpt>
      <trkpt lat="45.84784" lon="3.04978">
        <ele>495</ele>
        <time>2019-03-09T22:25:54Z</time>
      </trkpt>
      <trkpt lat="45.84812" lon="3.04941">
        <ele>496</ele>
        <time>2019-03-09T22:26:54Z</time>
      </trkpt>
      <trkpt lat="45.84817" lon="3.04935">
        <ele>496</ele>
        <time>2019-03-09T22:27:54Z</time>
      </trkpt>
      <trkpt lat="45.84853" lon="3.04894">
        <ele>497</ele>
        <time>2019-03-09T22:28:54Z</time>
      </trkpt>
      <trkpt lat="45.84857" lon="3.04889">
        <ele>497</ele>
        <time>2019-03-09T22:29:54Z</time>
      </trkpt>
      <trkpt lat="45.84877" lon="3.04864">
        <ele>497</ele>
        <time>2019-03-09T22:30:54Z</time>
      </trkpt>
      <trkpt lat="45.84881" lon="3.04859">
        <ele>497</ele>
        <time>2019-03-09T22:31:54Z</time>
      </trkpt>
      <trkpt lat="45.84892" lon="3.04843">
        <ele>496</ele>
        <time>2019-03-09T22:32:54Z</time>
      </trkpt>
      <trkpt lat="45.84896" lon="3.04836">
        <ele>496</ele>
        <time>2019-03-09T22:33:54Z</time>
      </trkpt>
      <trkpt lat="45.84919" lon="3.04797">
        <ele>494</ele>
        <time>2019-03-09T22:34:54Z</time>
      </trkpt>
      <trkpt lat="45.84924" lon="3.04789">
        <ele>493</ele>
        <time>2019-03-09T22:35:54Z</time>
      </trkpt>
      <trkpt lat="45.84958" lon="3.04737">
        <ele>490</ele>
        <time>2019-03-09T22:36:54Z</time>
      </trkpt>
      <trkpt lat="45.84963" lon="3.04729">
        <ele>490</ele>
        <time>2019-03-09T22:37:54Z</time>
      </trkpt>
      <trkpt lat="45.84974" lon="3.04712">
        <ele>489</ele>
        <time>2019-03-09T22:38:54Z</time>
      </trkpt>
      <trkpt lat="45.8498" lon="3.04704">
        <ele>489</ele>
        <time>2019-03-09T22:39:54Z</time>
      </trkpt>
      <trkpt lat="45.84991" lon="3.0469">
        <ele>488</ele>
        <time>2019-03-09T22:40:54Z</time>
      </trkpt>
      <trkpt lat="45.84996" lon="3.04683">
        <ele>488</ele>
        <time>2019-03-09T22:41:54Z</time>
      </trkpt>
      <trkpt lat="45.85009" lon="3.04665">
        <ele>488</ele>
        <time>2019-03-09T22:42:54Z</time>
      </trkpt>
      <trkpt lat="45.85013" lon="3.04657">
        <ele>488</ele>
        <time>2019-03-09T22:43:54Z</time>
      </trkpt>
      <trkpt lat="45.85021" lon="3.0465">
        <ele>489</ele>
        <time>2019-03-09T22:44:54Z</time>
      </trkpt>
      <trkpt lat="45.85024" lon="3.0464">
        <ele>490</ele>
        <time>2019-03-09T22:45:54Z</time>
      </trkpt>
      <trkpt lat="45.85021" lon="3.04631">
        <ele>490</ele>
        <time>2019-03-09T22:46:54Z</time>
      </trkpt>
      <trkpt lat="45.85013" lon="3.04625">
        <ele>491</ele>
        <time>2019-03-09T22:47:54Z</time>
      </trkpt>
      <trkpt lat="45.84992" lon="3.04621">
        <ele>491</ele>
        <time>2019-03-09T22:48:54Z</time>
      </trkpt>
      <trkpt lat="45.84985" lon="3.0462">
        <ele>491</ele>
        <time>2019-03-09T22:49:54Z</time>
      </trkpt>
      <trkpt lat="45.84972" lon="3.04617">
        <ele>492</ele>
        <time>2019-03-09T22:50:54Z</time>
      </trkpt>
      <trkpt lat="45.84965" lon="3.04616">
        <ele>492</ele>
        <time>2019-03-09T22:51:54Z</time>
      </trkpt>
      <trkpt lat="45.84958" lon="3.04617">
        <ele>493</ele>
        <time>2019-03-09T22:52:54Z</time>
      </trkpt>
      <trkpt lat="45.8495" lon="3.04618">
        <ele>493</ele>
        <time>2019-03-09T22:53:54Z</time>
      </trkpt>
      <trkpt lat="45.84941" lon="3.0462">
        <ele>493</ele>
        <time>2019-03-09T22:54:54Z</time>
      </trkpt>
      <trkpt lat="45.84929" lon="3.04624">
        <ele>493</ele>
        <time>2019-03-09T22:55:54Z</time>
      </trkpt>
      <trkpt lat="45.84892" lon="3.04635">
        <ele>496</ele>
        <time>2019-03-09T22:56:54Z</time>
      </trkpt>
      <trkpt lat="45.84885" lon="3.04637">
        <ele>497</ele>
        <time>2019-03-09T22:57:54Z</time>
      </trkpt>
      <trkpt lat="45.84862" lon="3.04647">
        <ele>498</ele>
        <time>2019-03-09T22:58:54Z</time>
      </trkpt>
      <trkpt lat="45.84854" lon="3.04647">
        <ele>499</ele>
        <time>2019-03-09T22:59:54Z</time>
      </trkpt>
      <trkpt lat="45.84847" lon="3.04644">
        <ele>499</ele>
        <time>2019-03-09T23:00:54Z</time>
      </trkpt>
      <trkpt lat="45.84844" lon="3.04632">
        <ele>500</ele>
        <time>2019-03-09T23:01:54Z</time>
      </trkpt>
      <trkpt lat="45.84846" lon="3.0462">
        <ele>500</ele>
        <time>2019-03-09T23:02:54Z</time>
      </trkpt>
      <trkpt lat="45.84846" lon="3.04608">
        <ele>500</ele>
        <time>2019-03-09T23:03:54Z</time>
      </trkpt>
      <trkpt lat="45.84847" lon="3.04597">
        <ele>500</ele>
        <time>2019-03-09T23:04:54Z</time>
      </trkpt>
      <trkpt lat="45.84852" lon="3.04576">
        <ele>501</ele>
        <time>2019-03-09T23:05:54Z</time>
      </trkpt>
      <trkpt lat="45.84855" lon="3.04566">
        <ele>502</ele>
        <time>2019-03-09T23:06:54Z</time>
      </trkpt>
      <trkpt lat="45.84861" lon="3.04558">
        <ele>503</ele>
        <time>2019-03-09T23:07:54Z</time>
      </trkpt>
      <trkpt lat="45.8487" lon="3.04553">
        <ele>503</ele>
        <time>2019-03-09T23:08:54Z</time>
      </trkpt>
      <trkpt lat="45.84911" lon="3.04518">
        <ele>504</ele>
        <time>2019-03-09T23:09:54Z</time>
      </trkpt>
      <trkpt lat="45.84917" lon="3.04513">
        <ele>504</ele>
        <time>2019-03-09T23:10:54Z</time>
      </trkpt>
      <trkpt lat="45.84931" lon="3.04501">
        <ele>505</ele>
        <time>2019-03-09T23:11:54Z</time>
      </trkpt>
      <trkpt lat="45.84933" lon="3.04499">
        <ele>506</ele>
        <time>2019-03-09T23:12:54Z</time>
      </trkpt>
      <trkpt lat="45.84943" lon="3.04487">
        <ele>508</ele>
        <time>2019-03-09T23:13:54Z</time>
      </trkpt>
      <trkpt lat="45.84953" lon="3.04472">
        <ele>510</ele>
        <time>2019-03-09T23:14:54Z</time>
      </trkpt>
      <trkpt lat="45.84958" lon="3.04464">
        <ele>511</ele>
        <time>2019-03-09T23:15:54Z</time>
      </trkpt>
      <trkpt lat="45.84965" lon="3.04456">
        <ele>513</ele>
        <time>2019-03-09T23:16:54Z</time>
      </trkpt>
      <trkpt lat="45.8497" lon="3.04449">
        <ele>514</ele>
        <time>2019-03-09T23:17:54Z</time>
      </trkpt>
      <trkpt lat="45.84996" lon="3.04418">
        <ele>519</ele>
        <time>2019-03-09T23:18:54Z</time>
      </trkpt>
      <trkpt lat="45.85003" lon="3.0441">
        <ele>520</ele>
        <time>2019-03-09T23:19:54Z</time>
      </trkpt>
      <trkpt lat="45.85018" lon="3.04394">
        <ele>522</ele>
        <time>2019-03-09T23:20:54Z</time>
      </trkpt>
      <trkpt lat="45.8503" lon="3.04381">
        <ele>524</ele>
        <time>2019-03-09T23:21:54Z</time>
      </trkpt>
      <trkpt lat="45.85035" lon="3.04373">
        <ele>525</ele>
        <time>2019-03-09T23:22:54Z</time>
      </trkpt>
      <trkpt lat="45.85037" lon="3.04361">
        <ele>527</ele>
        <time>2019-03-09T23:23:54Z</time>
      </trkpt>
      <trkpt lat="45.85036" lon="3.04348">
        <ele>530</ele>
        <time>2019-03-09T23:24:54Z</time>
      </trkpt>
      <trkpt lat="45.85031" lon="3.04338">
        <ele>533</ele>
        <time>2019-03-09T23:25:54Z</time>
      </trkpt>
      <trkpt lat="45.85028" lon="3.04328">
        <ele>535</ele>
        <time>2019-03-09T23:26:54Z</time>
      </trkpt>
      <trkpt lat="45.85026" lon="3.04317">
        <ele>537</ele>
        <time>2019-03-09T23:27:54Z</time>
      </trkpt>
      <trkpt lat="45.85022" lon="3.04305">
        <ele>540</ele>
        <time>2019-03-09T23:28:54Z</time>
      </trkpt>
      <trkpt lat="45.85015" lon="3.04299">
        <ele>541</ele>
        <time>2019-03-09T23:29:54Z</time>
      </trkpt>
      <trkpt lat="45.85006" lon="3.04297">
        <ele>542</ele>
        <time>2019-03-09T23:30:54Z</time>
      </trkpt>
      <trkpt lat="45.85005" lon="3.04298">
        <ele>542</ele>
        <time>2019-03-09T23:31:54Z</time>
      </trkpt>
      <trkpt lat="45.8499" lon="3.04296">
        <ele>543</ele>
        <time>2019-03-09T23:32:54Z</time>
      </trkpt>
      <trkpt lat="45.84967" lon="3.04293">
        <ele>545</ele>
        <time>2019-03-09T23:33:54Z</time>
      </trkpt>
      <trkpt lat="45.84958" lon="3.04292">
        <ele>545</ele>
        <time>2019-03-09T23:34:54Z</time>
      </trkpt>
      <trkpt lat="45.8495" lon="3.0429">
        <ele>546</ele>
        <time>2019-03-09T23:35:54Z</time>
      </trkpt>
      <trkpt lat="45.84941" lon="3.04288">
        <ele>547</ele>
        <time>2019-03-09T23:36:54Z</time>
      </trkpt>
      <trkpt lat="45.84917" lon="3.04285">
        <ele>549</ele>
        <time>2019-03-09T23:37:54Z</time>
      </trkpt>
      <trkpt lat="45.84909" lon="3.04284">
        <ele>550</ele>
        <time>2019-03-09T23:38:54Z</time>
      </trkpt>
      <trkpt lat="45.84878" lon="3.04277">
        <ele>556</ele>
        <time>2019-03-09T23:39:54Z</time>
      </trkpt>
      <trkpt lat="45.84869" lon="3.04275">
        <ele>558</ele>
        <time>2019-03-09T23:40:54Z</time>
      </trkpt>
      <trkpt lat="45.84861" lon="3.04274">
        <ele>560</ele>
        <time>2019-03-09T23:41:54Z</time>
      </trkpt>
      <trkpt lat="45.84852" lon="3.04275">
        <ele>561</ele>
        <time>2019-03-09T23:42:54Z</time>
      </trkpt>
      <trkpt lat="45.84844" lon="3.04276">
        <ele>561</ele>
        <time>2019-03-09T23:43:54Z</time>
      </trkpt>
      <trkpt lat="45.84837" lon="3.04277">
        <ele>562</ele>
        <time>2019-03-09T23:44:54Z</time>
      </trkpt>
      <trkpt lat="45.84829" lon="3.04279">
        <ele>563</ele>
        <time>2019-03-09T23:45:54Z</time>
      </trkpt>
      <trkpt lat="45.84821" lon="3.04282">
        <ele>563</ele>
        <time>2019-03-09T23:46:54Z</time>
      </trkpt>
      <trkpt lat="45.84795" lon="3.04288">
        <ele>565</ele>
        <time>2019-03-09T23:47:54Z</time>
      </trkpt>
      <trkpt lat="45.84788" lon="3.0429">
        <ele>565</ele>
        <time>2019-03-09T23:48:54Z</time>
      </trkpt>
      <trkpt lat="45.8478" lon="3.04293">
        <ele>565</ele>
        <time>2019-03-09T23:49:54Z</time>
      </trkpt>
      <trkpt lat="45.84772" lon="3.04295">
        <ele>566</ele>
        <time>2019-03-09T23:50:54Z</time>
      </trkpt>
      <trkpt lat="45.84764" lon="3.04299">
        <ele>565</ele>
        <time>2019-03-09T23:51:54Z</time>
      </trkpt>
      <trkpt lat="45.84756" lon="3.04301">
        <ele>566</ele>
        <time>2019-03-09T23:52:54Z</time>
      </trkpt>
      <trkpt lat="45.84741" lon="3.04308">
        <ele>565</ele>
        <time>2019-03-09T23:53:54Z</time>
      </trkpt>
      <trkpt lat="45.84733" lon="3.04312">
        <ele>564</ele>
        <time>2019-03-09T23:54:54Z</time>
      </trkpt>
      <trkpt lat="45.84717" lon="3.04318">
        <ele>563</ele>
        <time>2019-03-09T23:55:54Z</time>
      </trkpt>
      <trkpt lat="45.84715" lon="3.04319">
        <ele>562</ele>
        <time>2019-03-09T23:56:54Z</time>
      </trkpt>
      <trkpt lat="45.84702" lon="3.0432">
        <ele>563</ele>
        <time>2019-03-09T23:57:54Z</time>
      </trkpt>
      <trkpt lat="45.84695" lon="3.04321">
        <ele>563</ele>
        <time>2019-03-09T23:58:54Z</time>
      </trkpt>
      <trkpt lat="45.84664" lon="3.04329">
        <ele>561</ele>
        <time>2019-03-09T23:59:54Z</time>
      </trkpt>
      <trkpt lat="45.84657" lon="3.04331">
        <ele>560</ele>
        <time>2019-03-10T00:00:54Z</time>
      </trkpt>
      <trkpt lat="45.8465" lon="3.04331">
        <ele>560</ele>
        <time>2019-03-10T00:01:54Z</time>
      </trkpt>
      <trkpt lat="45.84642" lon="3.0433">
        <ele>560</ele>
        <time>2019-03-10T00:02:54Z</time>
      </trkpt>
      <trkpt lat="45.84634" lon="3.04328">
        <ele>560</ele>
        <time>2019-03-10T00:03:54Z</time>
      </trkpt>
      <trkpt lat="45.84626" lon="3.04325">
        <ele>561</ele>
        <time>2019-03-10T00:04:54Z</time>
      </trkpt>
      <trkpt lat="45.84619" lon="3.0432">
        <ele>561</ele>
        <time>2019-03-10T00:05:54Z</time>
      </trkpt>
      <trkpt lat="45.84614" lon="3.04314">
        <ele>562</ele>
        <time>2019-03-10T00:06:54Z</time>
      </trkpt>
      <trkpt lat="45.84608" lon="3.04307">
        <ele>564</ele>
        <time>2019-03-10T00:07:54Z</time>
      </trkpt>
      <trkpt lat="45.84606" lon="3.04298">
        <ele>566</ele>
        <time>2019-03-10T00:08:54Z</time>
      </trkpt>
      <trkpt lat="45.84596" lon="3.04281">
        <ele>568</ele>
        <time>2019-03-10T00:09:54Z</time>
      </trkpt>
      <trkpt lat="45.84591" lon="3.04272">
        <ele>570</ele>
        <time>2019-03-10T00:10:54Z</time>
      </trkpt>
      <trkpt lat="45.84584" lon="3.04267">
        <ele>570</ele>
        <time>2019-03-10T00:11:54Z</time>
      </trkpt>
      <trkpt lat="45.84569" lon="3.04263">
        <ele>569</ele>
        <time>2019-03-10T00:12:54Z</time>
      </trkpt>
      <trkpt lat="45.84561" lon="3.04262">
        <ele>568</ele>
        <time>2019-03-10T00:13:54Z</time>
      </trkpt>
      <trkpt lat="45.84555" lon="3.04258">
        <ele>568</ele>
        <time>2019-03-10T00:14:54Z</time>
      </trkpt>
      <trkpt lat="45.84549" lon="3.04253">
        <ele>568</ele>
        <time>2019-03-10T00:15:54Z</time>
      </trkpt>
      <trkpt lat="45.84543" lon="3.04247">
        <ele>568</ele>
        <time>2019-03-10T00:16:54Z</time>
      </trkpt>
      <trkpt lat="45.84539" lon="3.04239">
        <ele>569</ele>
        <time>2019-03-10T00:17:54Z</time>
      </trkpt>
      <trkpt lat="45.84534" lon="3.04229">
        <ele>570</ele>
        <time>2019-03-10T00:18:54Z</time>
      </trkpt>
      <trkpt lat="45.84528" lon="3.0422">
        <ele>571</ele>
        <time>2019-03-10T00:19:54Z</time>
      </trkpt>
      <trkpt lat="45.84523" lon="3.04211">
        <ele>571</ele>
        <time>2019-03-10T00:20:54Z</time>
      </trkpt>
      <trkpt lat="45.84519" lon="3.04202">
        <ele>572</ele>
        <time>2019-03-10T00:21:54Z</time>
      </trkpt>
      <trkpt lat="45.84516" lon="3.0419">
        <ele>573</ele>
        <time>2019-03-10T00:22:54Z</time>
      </trkpt>
      <trkpt lat="45.84511" lon="3.04179">
        <ele>574</ele>
        <time>2019-03-10T00:23:54Z</time>
      </trkpt>
      <trkpt lat="45.8451" lon="3.04167">
        <ele>576</ele>
        <time>2019-03-10T00:24:54Z</time>
      </trkpt>
      <trkpt lat="45.84505" lon="3.04133">
        <ele>579</ele>
        <time>2019-03-10T00:25:54Z</time>
      </trkpt>
      <trkpt lat="45.84504" lon="3.0412">
        <ele>581</ele>
        <time>2019-03-10T00:26:54Z</time>
      </trkpt>
      <trkpt lat="45.84492" lon="3.04104">
        <ele>583</ele>
        <time>2019-03-10T00:27:54Z</time>
      </trkpt>
      <trkpt lat="45.84491" lon="3.04103">
        <ele>583</ele>
        <time>2019-03-10T00:28:54Z</time>
      </trkpt>
      <trkpt lat="45.8448" lon="3.04086">
        <ele>586</ele>
        <time>2019-03-10T00:29:54Z</time>
      </trkpt>
      <trkpt lat="45.84474" lon="3.04078">
        <ele>587</ele>
        <time>2019-03-10T00:30:54Z</time>
      </trkpt>
      <trkpt lat="45.84467" lon="3.04072">
        <ele>587</ele>
        <time>2019-03-10T00:31:54Z</time>
      </trkpt>
      <trkpt lat="45.8446" lon="3.04067">
        <ele>588</ele>
        <time>2019-03-10T00:32:54Z</time>
      </trkpt>
      <trkpt lat="45.84452" lon="3.04064">
        <ele>588</ele>
        <time>2019-03-10T00:33:54Z</time>
      </trkpt>
      <trkpt lat="45.84444" lon="3.04061">
        <ele>588</ele>
        <time>2019-03-10T00:34:54Z</time>
      </trkpt>
      <trkpt lat="45.84436" lon="3.04057">
        <ele>589</ele>
        <time>2019-03-10T00:35:54Z</time>
      </trkpt>
      <trkpt lat="45.84435" lon="3.04056">
        <ele>589</ele>
        <time>2019-03-10T00:36:54Z</time>
      </trkpt>
      <trkpt lat="45.84429" lon="3.04041">
        <ele>590</ele>
        <time>2019-03-10T00:37:54Z</time>
      </trkpt>
      <trkpt lat="45.84436" lon="3.04036">
        <ele>590</ele>
        <time>2019-03-10T00:38:54Z</time>
      </trkpt>
      <trkpt lat="45.84443" lon="3.04029">
        <ele>591</ele>
        <time>2019-03-10T00:39:54Z</time>
      </trkpt>
      <trkpt lat="45.84446" lon="3.04018">
        <ele>591</ele>
        <time>2019-03-10T00:40:54Z</time>
      </trkpt>
      <trkpt lat="45.84444" lon="3.04005">
        <ele>592</ele>
        <time>2019-03-10T00:41:54Z</time>
      </trkpt>
      <trkpt lat="45.8444" lon="3.03994">
        <ele>593</ele>
        <time>2019-03-10T00:42:54Z</time>
      </trkpt>
      <trkpt lat="45.84438" lon="3.03983">
        <ele>593</ele>
        <time>2019-03-10T00:43:54Z</time>
      </trkpt>
      <trkpt lat="45.84435" lon="3.03974">
        <ele>592</ele>
        <time>2019-03-10T00:44:54Z</time>
      </trkpt>
      <trkpt lat="45.8442" lon="3.03926">
        <ele>591</ele>
        <time>2019-03-10T00:45:54Z</time>
      </trkpt>
      <trkpt lat="45.84417" lon="3.03916">
        <ele>591</ele>
        <time>2019-03-10T00:46:54Z</time>
      </trkpt>
      <trkpt lat="45.84415" lon="3.03905">
        <ele>591</ele>
        <time>2019-03-10T00:47:54Z</time>
      </trkpt>
      <trkpt lat="45.84416" lon="3.03894">
        <ele>592</ele>
        <time>2019-03-10T00:48:54Z</time>
      </trkpt>
      <trkpt lat="45.8442" lon="3.03885">
        <ele>592</ele>
        <time>2019-03-10T00:49:54Z</time>
      </trkpt>
      <trkpt lat="45.84426" lon="3.03878">
        <ele>593</ele>
        <time>2019-03-10T00:50:54Z</time>
      </trkpt>
      <trkpt lat="45.84445" lon="3.0386">
        <ele>595</ele>
        <time>2019-03-10T00:51:54Z</time>
      </trkpt>
      <trkpt lat="45.84451" lon="3.03852">
        <ele>595</ele>
        <time>2019-03-10T00:52:54Z</time>
      </trkpt>
      <trkpt lat="45.84468" lon="3.03826">
        <ele>597</ele>
        <time>2019-03-10T00:53:54Z</time>
      </trkpt>
      <trkpt lat="45.84473" lon="3.03817">
        <ele>598</ele>
        <time>2019-03-10T00:54:54Z</time>
      </trkpt>
      <trkpt lat="45.84517" lon="3.03753">
        <ele>602</ele>
        <time>2019-03-10T00:55:54Z</time>
      </trkpt>
      <trkpt lat="45.84523" lon="3.03745">
        <ele>603</ele>
        <time>2019-03-10T00:56:54Z</time>
      </trkpt>
      <trkpt lat="45.84534" lon="3.03726">
        <ele>605</ele>
        <time>2019-03-10T00:57:54Z</time>
      </trkpt>
      <trkpt lat="45.84539" lon="3.03717">
        <ele>605</ele>
        <time>2019-03-10T00:58:54Z</time>
      </trkpt>
      <trkpt lat="45.8455" lon="3.03697">
        <ele>606</ele>
        <time>2019-03-10T00:59:54Z</time>
      </trkpt>
      <trkpt lat="45.84555" lon="3.03687">
        <ele>607</ele>
        <time>2019-03-10T01:00:54Z</time>
      </trkpt>
      <trkpt lat="45.84578" lon="3.03651">
        <ele>608</ele>
        <time>2019-03-10T01:01:54Z</time>
      </trkpt>
      <trkpt lat="45.84583" lon="3.03644">
        <ele>609</ele>
        <time>2019-03-10T01:02:54Z</time>
      </trkpt>
      <trkpt lat="45.84591" lon="3.03626">
        <ele>609</ele>
        <time>2019-03-10T01:03:54Z</time>
      </trkpt>
      <trkpt lat="45.84595" lon="3.03616">
        <ele>610</ele>
        <time>2019-03-10T01:04:54Z</time>
      </trkpt>
      <trkpt lat="45.84611" lon="3.03569">
        <ele>611</ele>
        <time>2019-03-10T01:05:54Z</time>
      </trkpt>
      <trkpt lat="45.84614" lon="3.0356">
        <ele>611</ele>
        <time>2019-03-10T01:06:54Z</time>
      </trkpt>
      <trkpt lat="45.84617" lon="3.03549">
        <ele>612</ele>
        <time>2019-03-10T01:07:54Z</time>
      </trkpt>
      <trkpt lat="45.84619" lon="3.0354">
        <ele>612</ele>
        <time>2019-03-10T01:08:54Z</time>
      </trkpt>
      <trkpt lat="45.84627" lon="3.03534">
        <ele>613</ele>
        <time>2019-03-10T01:09:54Z</time>
      </trkpt>
      <trkpt lat="45.84634" lon="3.03539">
        <ele>613</ele>
        <time>2019-03-10T01:10:54Z</time>
      </trkpt>
      <trkpt lat="45.84641" lon="3.03544">
        <ele>614</ele>
        <time>2019-03-10T01:11:54Z</time>
      </trkpt>
      <trkpt lat="45.84648" lon="3.03538">
        <ele>614</ele>
        <time>2019-03-10T01:12:54Z</time>
      </trkpt>
      <trkpt lat="45.84654" lon="3.0353">
        <ele>615</ele>
        <time>2019-03-10T01:13:54Z</time>
      </trkpt>
      <trkpt lat="45.84655" lon="3.03517">
        <ele>615</ele>
        <time>2019-03-10T01:14:54Z</time>
      </trkpt>
      <trkpt lat="45.84651" lon="3.03506">
        <ele>615</ele>
        <time>2019-03-10T01:15:54Z</time>
      </trkpt>
      <trkpt lat="45.84648" lon="3.03494">
        <ele>615</ele>
        <time>2019-03-10T01:16:54Z</time>
      </trkpt>
      <trkpt lat="45.84648" lon="3.03484">
        <ele>615</ele>
        <time>2019-03-10T01:17:54Z</time>
      </trkpt>
      <trkpt lat="45.84648" lon="3.03481">
        <ele>616</ele>
        <time>2019-03-10T01:18:54Z</time>
      </trkpt>
      <trkpt lat="45.84648" lon="3.0346">
        <ele>616</ele>
        <time>2019-03-10T01:19:54Z</time>
      </trkpt>
      <trkpt lat="45.84652" lon="3.03449">
        <ele>617</ele>
        <time>2019-03-10T01:20:54Z</time>
      </trkpt>
      <trkpt lat="45.8466" lon="3.03448">
        <ele>617</ele>
        <time>2019-03-10T01:21:54Z</time>
      </trkpt>
      <trkpt lat="45.84667" lon="3.03453">
        <ele>617</ele>
        <time>2019-03-10T01:22:54Z</time>
      </trkpt>
      <trkpt lat="45.84675" lon="3.03448">
        <ele>618</ele>
        <time>2019-03-10T01:23:54Z</time>
      </trkpt>
      <trkpt lat="45.8468" lon="3.03439">
        <ele>618</ele>
        <time>2019-03-10T01:24:54Z</time>
      </trkpt>
      <trkpt lat="45.84685" lon="3.03429">
        <ele>619</ele>
        <time>2019-03-10T01:25:54Z</time>
      </trkpt>
      <trkpt lat="45.84705" lon="3.03394">
        <ele>623</ele>
        <time>2019-03-10T01:26:54Z</time>
      </trkpt>
      <trkpt lat="45.84711" lon="3.03384">
        <ele>624</ele>
        <time>2019-03-10T01:27:54Z</time>
      </trkpt>
      <trkpt lat="45.84747" lon="3.03326">
        <ele>630</ele>
        <time>2019-03-10T01:28:54Z</time>
      </trkpt>
      <trkpt lat="45.84752" lon="3.03319">
        <ele>631</ele>
        <time>2019-03-10T01:29:54Z</time>
      </trkpt>
      <trkpt lat="45.84759" lon="3.03314">
        <ele>632</ele>
        <time>2019-03-10T01:30:54Z</time>
      </trkpt>
      <trkpt lat="45.84767" lon="3.03314">
        <ele>633</ele>
        <time>2019-03-10T01:31:54Z</time>
      </trkpt>
      <trkpt lat="45.84773" lon="3.03318">
        <ele>633</ele>
        <time>2019-03-10T01:32:54Z</time>
      </trkpt>
      <trkpt lat="45.84778" lon="3.03324">
        <ele>633</ele>
        <time>2019-03-10T01:33:54Z</time>
      </trkpt>
      <trkpt lat="45.84784" lon="3.0333">
        <ele>633</ele>
        <time>2019-03-10T01:34:54Z</time>
      </trkpt>
      <trkpt lat="45.8479" lon="3.03335">
        <ele>633</ele>
        <time>2019-03-10T01:35:54Z</time>
      </trkpt>
      <trkpt lat="45.84796" lon="3.0334">
        <ele>633</ele>
        <time>2019-03-10T01:36:54Z</time>
      </trkpt>
      <trkpt lat="45.84803" lon="3.03346">
        <ele>633</ele>
        <time>2019-03-10T01:37:54Z</time>
      </trkpt>
      <trkpt lat="45.8481" lon="3.03351">
        <ele>633</ele>
        <time>2019-03-10T01:38:54Z</time>
      </trkpt>
      <trkpt lat="45.84836" lon="3.03368">
        <ele>634</ele>
        <time>2019-03-10T01:39:54Z</time>
      </trkpt>
      <trkpt lat="45.84847" lon="3.03376">
        <ele>634</ele>
        <time>2019-03-10T01:40:54Z</time>
      </trkpt>
      <trkpt lat="45.84862" lon="3.03388">
        <ele>634</ele>
        <time>2019-03-10T01:41:54Z</time>
      </trkpt>
      <trkpt lat="45.8487" lon="3.03394">
        <ele>634</ele>
        <time>2019-03-10T01:42:54Z</time>
      </trkpt>
      <trkpt lat="45.84885" lon="3.03406">
        <ele>634</ele>
        <time>2019-03-10T01:43:54Z</time>
      </trkpt>
      <trkpt lat="45.84892" lon="3.03413">
        <ele>633</ele>
        <time>2019-03-10T01:44:54Z</time>
      </trkpt>
      <trkpt lat="45.84917" lon="3.03425">
        <ele>634</ele>
        <time>2019-03-10T01:45:54Z</time>
      </trkpt>
      <trkpt lat="45.84925" lon="3.03428">
        <ele>634</ele>
        <time>2019-03-10T01:46:54Z</time>
      </trkpt>
      <trkpt lat="45.84933" lon="3.03429">
        <ele>634</ele>
        <time>2019-03-10T01:47:54Z</time>
      </trkpt>
      <trkpt lat="45.84941" lon="3.03428">
        <ele>634</ele>
        <time>2019-03-10T01:48:54Z</time>
      </trkpt>
      <trkpt lat="45.84948" lon="3.03426">
        <ele>634</ele>
        <time>2019-03-10T01:49:54Z</time>
      </trkpt>
      <trkpt lat="45.84956" lon="3.03422">
        <ele>634</ele>
        <time>2019-03-10T01:50:54Z</time>
      </trkpt>
      <trkpt lat="45.84963" lon="3.03417">
        <ele>635</ele>
        <time>2019-03-10T01:51:54Z</time>
      </trkpt>
      <trkpt lat="45.84984" lon="3.034">
        <ele>636</ele>
        <time>2019-03-10T01:52:54Z</time>
      </trkpt>
      <trkpt lat="45.84991" lon="3.03395">
        <ele>636</ele>
        <time>2019-03-10T01:53:54Z</time>
      </trkpt>
      <trkpt lat="45.85023" lon="3.03359">
        <ele>638</ele>
        <time>2019-03-10T01:54:54Z</time>
      </trkpt>
      <trkpt lat="45.85029" lon="3.03353">
        <ele>638</ele>
        <time>2019-03-10T01:55:54Z</time>
      </trkpt>
      <trkpt lat="45.85067" lon="3.03317">
        <ele>640</ele>
        <time>2019-03-10T01:56:54Z</time>
      </trkpt>
      <trkpt lat="45.85075" lon="3.03311">
        <ele>641</ele>
        <time>2019-03-10T01:57:54Z</time>
      </trkpt>
      <trkpt lat="45.85081" lon="3.03304">
        <ele>641</ele>
        <time>2019-03-10T01:58:54Z</time>
      </trkpt>
      <trkpt lat="45.85092" lon="3.03288">
        <ele>642</ele>
        <time>2019-03-10T01:59:54Z</time>
      </trkpt>
      <trkpt lat="45.85098" lon="3.03281">
        <ele>643</ele>
        <time>2019-03-10T02:00:54Z</time>
      </trkpt>
      <trkpt lat="45.85103" lon="3.03273">
        <ele>643</ele>
        <time>2019-03-10T02:01:54Z</time>
      </trkpt>
      <trkpt lat="45.85107" lon="3.03262">
        <ele>644</ele>
        <time>2019-03-10T02:02:54Z</time>
      </trkpt>
      <trkpt lat="45.85108" lon="3.0326">
        <ele>644</ele>
        <time>2019-03-10T02:03:54Z</time>
      </trkpt>
      <trkpt lat="45.85113" lon="3.03241">
        <ele>646</ele>
        <time>2019-03-10T02:04:54Z</time>
      </trkpt>
      <trkpt lat="45.85117" lon="3.0323">
        <ele>647</ele>
        <time>2019-03-10T02:05:54Z</time>
      </trkpt>
      <trkpt lat="45.85121" lon="3.0322">
        <ele>649</ele>
        <time>2019-03-10T02:06:54Z</time>
      </trkpt>
      <trkpt lat="45.85123" lon="3.03207">
        <ele>650</ele>
        <time>2019-03-10T02:07:54Z</time>
      </trkpt>
      <trkpt lat="45.85128" lon="3.0317">
        <ele>655</ele>
        <time>2019-03-10T02:08:54Z</time>
      </trkpt>
      <trkpt lat="45.85134" lon="3.03162">
        <ele>656</ele>
        <time>2019-03-10T02:09:54Z</time>
      </trkpt>
      <trkpt lat="45.85156" lon="3.03146">
        <ele>658</ele>
        <time>2019-03-10T02:10:54Z</time>
      </trkpt>
      <trkpt lat="45.85163" lon="3.03141">
        <ele>659</ele>
        <time>2019-03-10T02:11:54Z</time>
      </trkpt>
      <trkpt lat="45.85171" lon="3.03137">
        <ele>660</ele>
        <time>2019-03-10T02:12:54Z</time>
      </trkpt>
      <trkpt lat="45.85179" lon="3.03132">
        <ele>661</ele>
        <time>2019-03-10T02:13:54Z</time>
      </trkpt>
      <trkpt lat="45.85187" lon="3.03132">
        <ele>661</ele>
        <time>2019-03-10T02:14:54Z</time>
      </trkpt>
      <trkpt lat="45.85195" lon="3.03136">
        <ele>661</ele>
        <time>2019-03-10T02:15:54Z</time>
      </trkpt>
      <trkpt lat="45.85202" lon="3.03141">
        <ele>660</ele>
        <time>2019-03-10T02:16:54Z</time>
      </trkpt>
      <trkpt lat="45.85209" lon="3.03144">
        <ele>659</ele>
        <time>2019-03-10T02:17:54Z</time>
      </trkpt>
      <trkpt lat="45.85217" lon="3.03144">
        <ele>660</ele>
        <time>2019-03-10T02:18:54Z</time>
      </trkpt>
      <trkpt lat="45.85218" lon="3.03144">
        <ele>660</ele>
        <time>2019-03-10T02:19:54Z</time>
      </trkpt>
      <trkpt lat="45.85232" lon="3.03139">
        <ele>661</ele>
        <time>2019-03-10T02:20:54Z</time>
      </trkpt>
      <trkpt lat="45.85241" lon="3.03135">
        <ele>662</ele>
        <time>2019-03-10T02:21:54Z</time>
      </trkpt>
      <trkpt lat="45.85249" lon="3.03134">
        <ele>663</ele>
        <time>2019-03-10T02:22:54Z</time>
      </trkpt>
      <trkpt lat="45.85257" lon="3.03132">
        <ele>663</ele>
        <time>2019-03-10T02:23:54Z</time>
      </trkpt>
      <trkpt lat="45.85272" lon="3.0312">
        <ele>664</ele>
        <time>2019-03-10T02:24:54Z</time>
      </trkpt>
      <trkpt lat="45.85278" lon="3.03113">
        <ele>665</ele>
        <time>2019-03-10T02:25:54Z</time>
      </trkpt>
      <trkpt lat="45.85284" lon="3.03103">
        <ele>667</ele>
        <time>2019-03-10T02:26:54Z</time>
      </trkpt>
      <trkpt lat="45.85284" lon="3.03102">
        <ele>667</ele>
        <time>2019-03-10T02:27:54Z</time>
      </trkpt>
      <trkpt lat="45.85286" lon="3.03079">
        <ele>671</ele>
        <time>2019-03-10T02:28:54Z</time>
      </trkpt>
      <trkpt lat="45.85285" lon="3.03078">
        <ele>671</ele>
        <time>2019-03-10T02:29:54Z</time>
      </trkpt>
      <trkpt lat="45.85284" lon="3.03056">
        <ele>675</ele>
        <time>2019-03-10T02:30:54Z</time>
      </trkpt>
      <trkpt lat="45.85285" lon="3.03044">
        <ele>677</ele>
        <time>2019-03-10T02:31:54Z</time>
      </trkpt>
      <trkpt lat="45.85287" lon="3.03034">
        <ele>678</ele>
        <time>2019-03-10T02:32:54Z</time>
      </trkpt>
      <trkpt lat="45.85287" lon="3.03021">
        <ele>680</ele>
        <time>2019-03-10T02:33:54Z</time>
      </trkpt>
      <trkpt lat="45.8529" lon="3.0301">
        <ele>682</ele>
        <time>2019-03-10T02:34:54Z</time>
      </trkpt>
      <trkpt lat="45.85294" lon="3.03001">
        <ele>683</ele>
        <time>2019-03-10T02:35:54Z</time>
      </trkpt>
      <trkpt lat="45.85304" lon="3.02985">
        <ele>685</ele>
        <time>2019-03-10T02:36:54Z</time>
      </trkpt>
      <trkpt lat="45.85311" lon="3.02977">
        <ele>685</ele>
        <time>2019-03-10T02:37:54Z</time>
      </trkpt>
      <trkpt lat="45.85325" lon="3.02948">
        <ele>688</ele>
        <time>2019-03-10T02:38:54Z</time>
      </trkpt>
      <trkpt lat="45.8533" lon="3.02939">
        <ele>689</ele>
        <time>2019-03-10T02:39:54Z</time>
      </trkpt>
      <trkpt lat="45.85345" lon="3.02908">
        <ele>691</ele>
        <time>2019-03-10T02:40:54Z</time>
      </trkpt>
      <trkpt lat="45.85349" lon="3.02898">
        <ele>692</ele>
        <time>2019-03-10T02:41:54Z</time>
      </trkpt>
      <trkpt lat="45.85353" lon="3.02888">
        <ele>692</ele>
        <time>2019-03-10T02:42:54Z</time>
      </trkpt>
      <trkpt lat="45.85357" lon="3.02879">
        <ele>693</ele>
        <time>2019-03-10T02:43:54Z</time>
      </trkpt>
      <trkpt lat="45.85365" lon="3.02856">
        <ele>694</ele>
        <time>2019-03-10T02:44:54Z</time>
      </trkpt>
      <trkpt lat="45.85369" lon="3.02848">
        <ele>695</ele>
        <time>2019-03-10T02:45:54Z</time>
      </trkpt>
      <trkpt lat="45.85389" lon="3.02811">
        <ele>696</ele>
        <time>2019-03-10T02:46:54Z</time>
      </trkpt>
      <trkpt lat="45.85394" lon="3.02801">
        <ele>696</ele>
        <time>2019-03-10T02:47:54Z</time>
      </trkpt>
      <trkpt lat="45.85405" lon="3.02783">
        <ele>696</ele>
        <time>2019-03-10T02:48:54Z</time>
      </trkpt>
      <trkpt lat="45.8541" lon="3.02775">
        <ele>696</ele>
        <time>2019-03-10T02:49:54Z</time>
      </trkpt>
      <trkpt lat="45.85427" lon="3.02752">
        <ele>697</ele>
        <time>2019-03-10T02:50:54Z</time>
      </trkpt>
      <trkpt lat="45.85432" lon="3.02744">
        <ele>697</ele>
        <time>2019-03-10T02:51:54Z</time>
      </trkpt>
      <trkpt lat="45.85458" lon="3.02685">
        <ele>698</ele>
        <time>2019-03-10T02:52:54Z</time>
      </trkpt>
      <trkpt lat="45.85462" lon="3.02676">
        <ele>699</ele>
        <time>2019-03-10T02:53:54Z</time>
      </trkpt>
      <trkpt lat="45.85465" lon="3.02667">
        <ele>699</ele>
        <time>2019-03-10T02:54:54Z</time>
      </trkpt>
      <trkpt lat="45.8547" lon="3.02657">
        <ele>700</ele>
        <time>2019-03-10T02:55:54Z</time>
      </trkpt>
      <trkpt lat="45.85476" lon="3.02651">
        <ele>700</ele>
        <time>2019-03-10T02:56:54Z</time>
      </trkpt>
      <trkpt lat="45.85482" lon="3.02646">
        <ele>700</ele>
        <time>2019-03-10T02:57:54Z</time>
      </trkpt>
      <trkpt lat="45.8549" lon="3.02641">
        <ele>700</ele>
        <time>2019-03-10T02:58:54Z</time>
      </trkpt>
      <trkpt lat="45.85497" lon="3.02637">
        <ele>699</ele>
        <time>2019-03-10T02:59:54Z</time>
      </trkpt>
      <trkpt lat="45.85503" lon="3.0263">
        <ele>700</ele>
        <time>2019-03-10T03:00:54Z</time>
      </trkpt>
      <trkpt lat="45.85508" lon="3.02624">
        <ele>701</ele>
        <time>2019-03-10T03:01:54Z</time>
      </trkpt>
      <trkpt lat="45.85538" lon="3.02567">
        <ele>706</ele>
        <time>2019-03-10T03:02:54Z</time>
      </trkpt>
      <trkpt lat="45.85543" lon="3.02558">
        <ele>707</ele>
        <time>2019-03-10T03:03:54Z</time>
      </trkpt>
      <trkpt lat="45.85549" lon="3.02548">
        <ele>708</ele>
        <time>2019-03-10T03:04:54Z</time>
      </trkpt>
      <trkpt lat="45.85554" lon="3.02539">
        <ele>709</ele>
        <time>2019-03-10T03:05:54Z</time>
      </trkpt>
      <trkpt lat="45.85588" lon="3.02487">
        <ele>714</ele>
        <time>2019-03-10T03:06:54Z</time>
      </trkpt>
      <trkpt lat="45.85589" lon="3.02485">
        <ele>714</ele>
        <time>2019-03-10T03:07:54Z</time>
      </trkpt>
      <trkpt lat="45.85599" lon="3.02468">
        <ele>716</ele>
        <time>2019-03-10T03:08:54Z</time>
      </trkpt>
      <trkpt lat="45.85605" lon="3.02459">
        <ele>717</ele>
        <time>2019-03-10T03:09:54Z</time>
      </trkpt>
      <trkpt lat="45.8561" lon="3.02449">
        <ele>718</ele>
        <time>2019-03-10T03:10:54Z</time>
      </trkpt>
      <trkpt lat="45.85614" lon="3.0244">
        <ele>718</ele>
        <time>2019-03-10T03:11:54Z</time>
      </trkpt>
      <trkpt lat="45.85618" lon="3.0243">
        <ele>719</ele>
        <time>2019-03-10T03:12:54Z</time>
      </trkpt>
      <trkpt lat="45.85624" lon="3.02408">
        <ele>720</ele>
        <time>2019-03-10T03:13:54Z</time>
      </trkpt>
      <trkpt lat="45.85629" lon="3.02399">
        <ele>721</ele>
        <time>2019-03-10T03:14:54Z</time>
      </trkpt>
      <trkpt lat="45.85636" lon="3.02391">
        <ele>722</ele>
        <time>2019-03-10T03:15:54Z</time>
      </trkpt>
      <trkpt lat="45.85671" lon="3.02366">
        <ele>725</ele>
        <time>2019-03-10T03:16:54Z</time>
      </trkpt>
      <trkpt lat="45.85677" lon="3.0236">
        <ele>725</ele>
        <time>2019-03-10T03:17:54Z</time>
      </trkpt>
      <trkpt lat="45.85682" lon="3.02351">
        <ele>726</ele>
        <time>2019-03-10T03:18:54Z</time>
      </trkpt>
      <trkpt lat="45.85682" lon="3.0234">
        <ele>726</ele>
        <time>2019-03-10T03:19:54Z</time>
      </trkpt>
      <trkpt lat="45.85692" lon="3.02308">
        <ele>728</ele>
        <time>2019-03-10T03:20:54Z</time>
      </trkpt>
      <trkpt lat="45.85695" lon="3.02299">
        <ele>728</ele>
        <time>2019-03-10T03:21:54Z</time>
      </trkpt>
      <trkpt lat="45.85697" lon="3.02289">
        <ele>728</ele>
        <time>2019-03-10T03:22:54Z</time>
      </trkpt>
      <trkpt lat="45.857" lon="3.02278">
        <ele>729</ele>
        <time>2019-03-10T03:23:54Z</time>
      </trkpt>
      <trkpt lat="45.85703" lon="3.02265">
        <ele>729</ele>
        <time>2019-03-10T03:24:54Z</time>
      </trkpt>
      <trkpt lat="45.85708" lon="3.02246">
        <ele>730</ele>
        <time>2019-03-10T03:25:54Z</time>
      </trkpt>
      <trkpt lat="45.85711" lon="3.02237">
        <ele>730</ele>
        <time>2019-03-10T03:26:54Z</time>
      </trkpt>
      <trkpt lat="45.85713" lon="3.02227">
        <ele>731</ele>
        <time>2019-03-10T03:27:54Z</time>
      </trkpt>
      <trkpt lat="45.85717" lon="3.02207">
        <ele>732</ele>
        <time>2019-03-10T03:28:54Z</time>
      </trkpt>
      <trkpt lat="45.8572" lon="3.02198">
        <ele>733</ele>
        <time>2019-03-10T03:29:54Z</time>
      </trkpt>
      <trkpt lat="45.85724" lon="3.02187">
        <ele>734</ele>
        <time>2019-03-10T03:30:54Z</time>
      </trkpt>
      <trkpt lat="45.85744" lon="3.02165">
        <ele>735</ele>
        <time>2019-03-10T03:31:54Z</time>
      </trkpt>
      <trkpt lat="45.8575" lon="3.02157">
        <ele>736</ele>
        <time>2019-03-10T03:32:54Z</time>
      </trkpt>
      <trkpt lat="45.85756" lon="3.02148">
        <ele>736</ele>
        <time>2019-03-10T03:33:54Z</time>
      </trkpt>
      <trkpt lat="45.85762" lon="3.02138">
        <ele>737</ele>
        <time>2019-03-10T03:34:54Z</time>
      </trkpt>
      <trkpt lat="45.85767" lon="3.02128">
        <ele>737</ele>
        <time>2019-03-10T03:35:54Z</time>
      </trkpt>
      <trkpt lat="45.8581" lon="3.02035">
        <ele>742</ele>
        <time>2019-03-10T03:36:54Z</time>
      </trkpt>
      <trkpt lat="45.85818" lon="3.02016">
        <ele>743</ele>
        <time>2019-03-10T03:37:54Z</time>
      </trkpt>
      <trkpt lat="45.85825" lon="3.01997">
        <ele>744</ele>
        <time>2019-03-10T03:38:54Z</time>
      </trkpt>
      <trkpt lat="45.85829" lon="3.01988">
        <ele>745</ele>
        <time>2019-03-10T03:39:54Z</time>
      </trkpt>
      <trkpt lat="45.85832" lon="3.01978">
        <ele>746</ele>
        <time>2019-03-10T03:40:54Z</time>
      </trkpt>
      <trkpt lat="45.85836" lon="3.01968">
        <ele>746</ele>
        <time>2019-03-10T03:41:54Z</time>
      </trkpt>
      <trkpt lat="45.85845" lon="3.01948">
        <ele>748</ele>
        <time>2019-03-10T03:42:54Z</time>
      </trkpt>
      <trkpt lat="45.85852" lon="3.01931">
        <ele>749</ele>
        <time>2019-03-10T03:43:54Z</time>
      </trkpt>
      <trkpt lat="45.85853" lon="3.01918">
        <ele>750</ele>
        <time>2019-03-10T03:44:54Z</time>
      </trkpt>
      <trkpt lat="45.85853" lon="3.01907">
        <ele>750</ele>
        <time>2019-03-10T03:45:54Z</time>
      </trkpt>
      <trkpt lat="45.85851" lon="3.01896">
        <ele>751</ele>
        <time>2019-03-10T03:46:54Z</time>
      </trkpt>
      <trkpt lat="45.85848" lon="3.01885">
        <ele>752</ele>
        <time>2019-03-10T03:47:54Z</time>
      </trkpt>
      <trkpt lat="45.85841" lon="3.01862">
        <ele>753</ele>
        <time>2019-03-10T03:48:54Z</time>
      </trkpt>
      <trkpt lat="45.85837" lon="3.01851">
        <ele>754</ele>
        <time>2019-03-10T03:49:54Z</time>
      </trkpt>
      <trkpt lat="45.85833" lon="3.01842">
        <ele>754</ele>
        <time>2019-03-10T03:50:54Z</time>
      </trkpt>
      <trkpt lat="45.85828" lon="3.01833">
        <ele>755</ele>
        <time>2019-03-10T03:51:54Z</time>
      </trkpt>
      <trkpt lat="45.85822" lon="3.01824">
        <ele>754</ele>
        <time>2019-03-10T03:52:54Z</time>
      </trkpt>
      <trkpt lat="45.85813" lon="3.0181">
        <ele>753</ele>
        <time>2019-03-10T03:53:54Z</time>
      </trkpt>
      <trkpt lat="45.85808" lon="3.01804">
        <ele>753</ele>
        <time>2019-03-10T03:54:54Z</time>
      </trkpt>
      <trkpt lat="45.85759" lon="3.01741">
        <ele>752</ele>
        <time>2019-03-10T03:55:54Z</time>
      </trkpt>
      <trkpt lat="45.85754" lon="3.01734">
        <ele>752</ele>
        <time>2019-03-10T03:56:54Z</time>
      </trkpt>
      <trkpt lat="45.85725" lon="3.01695">
        <ele>752</ele>
        <time>2019-03-10T03:57:54Z</time>
      </trkpt>
      <trkpt lat="45.85719" lon="3.01688">
        <ele>752</ele>
        <time>2019-03-10T03:58:54Z</time>
      </trkpt>
      <trkpt lat="45.85708" lon="3.01675">
        <ele>752</ele>
        <time>2019-03-10T03:59:54Z</time>
      </trkpt>
      <trkpt lat="45.85702" lon="3.01668">
        <ele>752</ele>
        <time>2019-03-10T04:00:54Z</time>
      </trkpt>
      <trkpt lat="45.8566" lon="3.01624">
        <ele>753</ele>
        <time>2019-03-10T04:01:54Z</time>
      </trkpt>
      <trkpt lat="45.85654" lon="3.01618">
        <ele>753</ele>
        <time>2019-03-10T04:02:54Z</time>
      </trkpt>
      <trkpt lat="45.85638" lon="3.01599">
        <ele>754</ele>
        <time>2019-03-10T04:03:54Z</time>
      </trkpt>
      <trkpt lat="45.85632" lon="3.01593">
        <ele>754</ele>
        <time>2019-03-10T04:04:54Z</time>
      </trkpt>
      <trkpt lat="45.85615" lon="3.01576">
        <ele>756</ele>
        <time>2019-03-10T04:05:54Z</time>
      </trkpt>
      <trkpt lat="45.85609" lon="3.01568">
        <ele>756</ele>
        <time>2019-03-10T04:06:54Z</time>
      </trkpt>
      <trkpt lat="45.85608" lon="3.01564">
        <ele>756</ele>
        <time>2019-03-10T04:07:54Z</time>
      </trkpt>
      <trkpt lat="45.85603" lon="3.01545">
        <ele>756</ele>
        <time>2019-03-10T04:08:54Z</time>
      </trkpt>
      <trkpt lat="45.85593" lon="3.01502">
        <ele>756</ele>
        <time>2019-03-10T04:09:54Z</time>
      </trkpt>
      <trkpt lat="45.8559" lon="3.01493">
        <ele>756</ele>
        <time>2019-03-10T04:10:54Z</time>
      </trkpt>
      <trkpt lat="45.85576" lon="3.01421">
        <ele>757</ele>
        <time>2019-03-10T04:11:54Z</time>
      </trkpt>
      <trkpt lat="45.85574" lon="3.0141">
        <ele>757</ele>
        <time>2019-03-10T04:12:54Z</time>
      </trkpt>
      <trkpt lat="45.8557" lon="3.01384">
        <ele>757</ele>
        <time>2019-03-10T04:13:54Z</time>
      </trkpt>
      <trkpt lat="45.85569" lon="3.01373">
        <ele>756</ele>
        <time>2019-03-10T04:14:54Z</time>
      </trkpt>
      <trkpt lat="45.85564" lon="3.0135">
        <ele>756</ele>
        <time>2019-03-10T04:15:54Z</time>
      </trkpt>
      <trkpt lat="45.85563" lon="3.01338">
        <ele>756</ele>
        <time>2019-03-10T04:16:54Z</time>
      </trkpt>
      <trkpt lat="45.85558" lon="3.01328">
        <ele>757</ele>
        <time>2019-03-10T04:17:54Z</time>
      </trkpt>
      <trkpt lat="45.85553" lon="3.01315">
        <ele>757</ele>
        <time>2019-03-10T04:18:54Z</time>
      </trkpt>
      <trkpt lat="45.85547" lon="3.01299">
        <ele>758</ele>
        <time>2019-03-10T04:19:54Z</time>
      </trkpt>
      <trkpt lat="45.85539" lon="3.01295">
        <ele>759</ele>
        <time>2019-03-10T04:20:54Z</time>
      </trkpt>
      <trkpt lat="45.85532" lon="3.01298">
        <ele>761</ele>
        <time>2019-03-10T04:21:54Z</time>
      </trkpt>
      <trkpt lat="45.85526" lon="3.01307">
        <ele>762</ele>
        <time>2019-03-10T04:22:54Z</time>
      </trkpt>
      <trkpt lat="45.85524" lon="3.01317">
        <ele>763</ele>
        <time>2019-03-10T04:23:54Z</time>
      </trkpt>
      <trkpt lat="45.85521" lon="3.01329">
        <ele>764</ele>
        <time>2019-03-10T04:24:54Z</time>
      </trkpt>
      <trkpt lat="45.8552" lon="3.01341">
        <ele>764</ele>
        <time>2019-03-10T04:25:54Z</time>
      </trkpt>
      <trkpt lat="45.85517" lon="3.01353">
        <ele>765</ele>
        <time>2019-03-10T04:26:54Z</time>
      </trkpt>
      <trkpt lat="45.85514" lon="3.01364">
        <ele>766</ele>
        <time>2019-03-10T04:27:54Z</time>
      </trkpt>
      <trkpt lat="45.85505" lon="3.01365">
        <ele>768</ele>
        <time>2019-03-10T04:28:54Z</time>
      </trkpt>
      <trkpt lat="45.85499" lon="3.01357">
        <ele>769</ele>
        <time>2019-03-10T04:29:54Z</time>
      </trkpt>
      <trkpt lat="45.85489" lon="3.01342">
        <ele>769</ele>
        <time>2019-03-10T04:30:54Z</time>
      </trkpt>
      <trkpt lat="45.85477" lon="3.01323">
        <ele>769</ele>
        <time>2019-03-10T04:31:54Z</time>
      </trkpt>
      <trkpt lat="45.85472" lon="3.01312">
        <ele>769</ele>
        <time>2019-03-10T04:32:54Z</time>
      </trkpt>
      <trkpt lat="45.8545" lon="3.01279">
        <ele>771</ele>
        <time>2019-03-10T04:33:54Z</time>
      </trkpt>
      <trkpt lat="45.85446" lon="3.0127">
        <ele>771</ele>
        <time>2019-03-10T04:34:54Z</time>
      </trkpt>
      <trkpt lat="45.85436" lon="3.01255">
        <ele>772</ele>
        <time>2019-03-10T04:35:54Z</time>
      </trkpt>
      <trkpt lat="45.8543" lon="3.01247">
        <ele>772</ele>
        <time>2019-03-10T04:36:54Z</time>
      </trkpt>
      <trkpt lat="45.85426" lon="3.01238">
        <ele>772</ele>
        <time>2019-03-10T04:37:54Z</time>
      </trkpt>
      <trkpt lat="45.85421" lon="3.01228">
        <ele>772</ele>
        <time>2019-03-10T04:38:54Z</time>
      </trkpt>
      <trkpt lat="45.8537" lon="3.01139">
        <ele>771</ele>
        <time>2019-03-10T04:39:54Z</time>
      </trkpt>
      <trkpt lat="45.85366" lon="3.01133">
        <ele>771</ele>
        <time>2019-03-10T04:40:54Z</time>
      </trkpt>
      <trkpt lat="45.85357" lon="3.01119">
        <ele>771</ele>
        <time>2019-03-10T04:41:54Z</time>
      </trkpt>
      <trkpt lat="45.85352" lon="3.01112">
        <ele>771</ele>
        <time>2019-03-10T04:42:54Z</time>
      </trkpt>
      <trkpt lat="45.85346" lon="3.01105">
        <ele>771</ele>
        <time>2019-03-10T04:43:54Z</time>
      </trkpt>
      <trkpt lat="45.85341" lon="3.01099">
        <ele>771</ele>
        <time>2019-03-10T04:44:54Z</time>
      </trkpt>
      <trkpt lat="45.85332" lon="3.01084">
        <ele>771</ele>
        <time>2019-03-10T04:45:54Z</time>
      </trkpt>
      <trkpt lat="45.85326" lon="3.01078">
        <ele>771</ele>
        <time>2019-03-10T04:46:54Z</time>
      </trkpt>
      <trkpt lat="45.85322" lon="3.0107">
        <ele>771</ele>
        <time>2019-03-10T04:47:54Z</time>
      </trkpt>
      <trkpt lat="45.85306" lon="3.0102">
        <ele>770</ele>
        <time>2019-03-10T04:48:54Z</time>
      </trkpt>
      <trkpt lat="45.85302" lon="3.01011">
        <ele>770</ele>
        <time>2019-03-10T04:49:54Z</time>
      </trkpt>
      <trkpt lat="45.85299" lon="3.00999">
        <ele>770</ele>
        <time>2019-03-10T04:50:54Z</time>
      </trkpt>
      <trkpt lat="45.85296" lon="3.00987">
        <ele>771</ele>
        <time>2019-03-10T04:51:54Z</time>
      </trkpt>
      <trkpt lat="45.85277" lon="3.00935">
        <ele>771</ele>
        <time>2019-03-10T04:52:54Z</time>
      </trkpt>
      <trkpt lat="45.85274" lon="3.00927">
        <ele>772</ele>
        <time>2019-03-10T04:53:54Z</time>
      </trkpt>
      <trkpt lat="45.8525" lon="3.00853">
        <ele>774</ele>
        <time>2019-03-10T04:54:54Z</time>
      </trkpt>
      <trkpt lat="45.85248" lon="3.00845">
        <ele>774</ele>
        <time>2019-03-10T04:55:54Z</time>
      </trkpt>
      <trkpt lat="45.85223" lon="3.00775">
        <ele>777</ele>
        <time>2019-03-10T04:56:54Z</time>
      </trkpt>
      <trkpt lat="45.85219" lon="3.00764">
        <ele>778</ele>
        <time>2019-03-10T04:57:54Z</time>
      </trkpt>
      <trkpt lat="45.85216" lon="3.00752">
        <ele>778</ele>
        <time>2019-03-10T04:58:54Z</time>
      </trkpt>
      <trkpt lat="45.85213" lon="3.00742">
        <ele>779</ele>
        <time>2019-03-10T04:59:54Z</time>
      </trkpt>
      <trkpt lat="45.85194" lon="3.00661">
        <ele>782</ele>
        <time>2019-03-10T05:00:54Z</time>
      </trkpt>
      <trkpt lat="45.85193" lon="3.00651">
        <ele>782</ele>
        <time>2019-03-10T05:01:54Z</time>
      </trkpt>
      <trkpt lat="45.85179" lon="3.00544">
        <ele>787</ele>
        <time>2019-03-10T05:02:54Z</time>
      </trkpt>
      <trkpt lat="45.85176" lon="3.00532">
        <ele>788</ele>
        <time>2019-03-10T05:03:54Z</time>
      </trkpt>
      <trkpt lat="45.85176" lon="3.00529">
        <ele>788</ele>
        <time>2019-03-10T05:04:54Z</time>
      </trkpt>
      <trkpt lat="45.85174" lon="3.00507">
        <ele>789</ele>
        <time>2019-03-10T05:05:54Z</time>
      </trkpt>
      <trkpt lat="45.85171" lon="3.00487">
        <ele>790</ele>
        <time>2019-03-10T05:06:54Z</time>
      </trkpt>
      <trkpt lat="45.8517" lon="3.00477">
        <ele>790</ele>
        <time>2019-03-10T05:07:54Z</time>
      </trkpt>
      <trkpt lat="45.85167" lon="3.00451">
        <ele>791</ele>
        <time>2019-03-10T05:08:54Z</time>
      </trkpt>
      <trkpt lat="45.85169" lon="3.00437">
        <ele>792</ele>
        <time>2019-03-10T05:09:54Z</time>
      </trkpt>
      <trkpt lat="45.85175" lon="3.00415">
        <ele>793</ele>
        <time>2019-03-10T05:10:54Z</time>
      </trkpt>
      <trkpt lat="45.85179" lon="3.00405">
        <ele>793</ele>
        <time>2019-03-10T05:11:54Z</time>
      </trkpt>
      <trkpt lat="45.85187" lon="3.00388">
        <ele>793</ele>
        <time>2019-03-10T05:12:54Z</time>
      </trkpt>
      <trkpt lat="45.85191" lon="3.00381">
        <ele>792</ele>
        <time>2019-03-10T05:13:54Z</time>
      </trkpt>
      <trkpt lat="45.85226" lon="3.00322">
        <ele>790</ele>
        <time>2019-03-10T05:14:54Z</time>
      </trkpt>
      <trkpt lat="45.85229" lon="3.00316">
        <ele>790</ele>
        <time>2019-03-10T05:15:54Z</time>
      </trkpt>
      <trkpt lat="45.85297" lon="3.00179">
        <ele>786</ele>
        <time>2019-03-10T05:16:54Z</time>
      </trkpt>
      <trkpt lat="45.85301" lon="3.0017">
        <ele>785</ele>
        <time>2019-03-10T05:17:54Z</time>
      </trkpt>
      <trkpt lat="45.85312" lon="3.00143">
        <ele>786</ele>
        <time>2019-03-10T05:18:54Z</time>
      </trkpt>
      <trkpt lat="45.85316" lon="3.00132">
        <ele>787</ele>
        <time>2019-03-10T05:19:54Z</time>
      </trkpt>
      <trkpt lat="45.85333" lon="3.00099">
        <ele>788</ele>
        <time>2019-03-10T05:20:54Z</time>
      </trkpt>
      <trkpt lat="45.85335" lon="3.00097">
        <ele>788</ele>
        <time>2019-03-10T05:21:54Z</time>
      </trkpt>
      <trkpt lat="45.85342" lon="3.00081">
        <ele>789</ele>
        <time>2019-03-10T05:22:54Z</time>
      </trkpt>
      <trkpt lat="45.8535" lon="3.00061">
        <ele>790</ele>
        <time>2019-03-10T05:23:54Z</time>
      </trkpt>
      <trkpt lat="45.85355" lon="3.00051">
        <ele>791</ele>
        <time>2019-03-10T05:24:54Z</time>
      </trkpt>
      <trkpt lat="45.85357" lon="3.0004">
        <ele>792</ele>
        <time>2019-03-10T05:25:54Z</time>
      </trkpt>
      <trkpt lat="45.85356" lon="3.00029">
        <ele>793</ele>
        <time>2019-03-10T05:26:54Z</time>
      </trkpt>
      <trkpt lat="45.85351" lon="3.0002">
        <ele>794</ele>
        <time>2019-03-10T05:27:54Z</time>
      </trkpt>
      <trkpt lat="45.85344" lon="3.00014">
        <ele>794</ele>
        <time>2019-03-10T05:28:54Z</time>
      </trkpt>
      <trkpt lat="45.85338" lon="3.00006">
        <ele>795</ele>
        <time>2019-03-10T05:29:54Z</time>
      </trkpt>
      <trkpt lat="45.85331" lon="3">
        <ele>796</ele>
        <time>2019-03-10T05:30:54Z</time>
      </trkpt>
      <trkpt lat="45.85304" lon="2.99976">
        <ele>798</ele>
        <time>2019-03-10T05:31:54Z</time>
      </trkpt>
      <trkpt lat="45.85296" lon="2.9997">
        <ele>799</ele>
        <time>2019-03-10T05:32:54Z</time>
      </trkpt>
      <trkpt lat="45.8529" lon="2.99966">
        <ele>799</ele>
        <time>2019-03-10T05:33:54Z</time>
      </trkpt>
      <trkpt lat="45.85288" lon="2.99965">
        <ele>799</ele>
        <time>2019-03-10T05:34:54Z</time>
      </trkpt>
      <trkpt lat="45.85263" lon="2.99953">
        <ele>802</ele>
        <time>2019-03-10T05:35:54Z</time>
      </trkpt>
      <trkpt lat="45.85256" lon="2.99949">
        <ele>802</ele>
        <time>2019-03-10T05:36:54Z</time>
      </trkpt>
      <trkpt lat="45.85242" lon="2.99939">
        <ele>804</ele>
        <time>2019-03-10T05:37:54Z</time>
      </trkpt>
      <trkpt lat="45.85235" lon="2.99933">
        <ele>804</ele>
        <time>2019-03-10T05:38:54Z</time>
      </trkpt>
      <trkpt lat="45.8522" lon="2.9992">
        <ele>806</ele>
        <time>2019-03-10T05:39:54Z</time>
      </trkpt>
      <trkpt lat="45.85213" lon="2.99914">
        <ele>806</ele>
        <time>2019-03-10T05:40:54Z</time>
      </trkpt>
      <trkpt lat="45.85208" lon="2.99905">
        <ele>806</ele>
        <time>2019-03-10T05:41:54Z</time>
      </trkpt>
      <trkpt lat="45.85199" lon="2.99888">
        <ele>807</ele>
        <time>2019-03-10T05:42:54Z</time>
      </trkpt>
      <trkpt lat="45.85193" lon="2.9988">
        <ele>807</ele>
        <time>2019-03-10T05:43:54Z</time>
      </trkpt>
      <trkpt lat="45.85179" lon="2.99871">
        <ele>808</ele>
        <time>2019-03-10T05:44:54Z</time>
      </trkpt>
      <trkpt lat="45.85177" lon="2.9987">
        <ele>808</ele>
        <time>2019-03-10T05:45:54Z</time>
      </trkpt>
      <trkpt lat="45.85158" lon="2.99862">
        <ele>809</ele>
        <time>2019-03-10T05:46:54Z</time>
      </trkpt>
      <trkpt lat="45.8515" lon="2.99859">
        <ele>809</ele>
        <time>2019-03-10T05:47:54Z</time>
      </trkpt>
      <trkpt lat="45.85127" lon="2.99849">
        <ele>810</ele>
        <time>2019-03-10T05:48:54Z</time>
      </trkpt>
      <trkpt lat="45.85119" lon="2.99846">
        <ele>811</ele>
        <time>2019-03-10T05:49:54Z</time>
      </trkpt>
      <trkpt lat="45.85104" lon="2.99838">
        <ele>812</ele>
        <time>2019-03-10T05:50:54Z</time>
      </trkpt>
      <trkpt lat="45.85095" lon="2.99834">
        <ele>812</ele>
        <time>2019-03-10T05:51:54Z</time>
      </trkpt>
      <trkpt lat="45.8509" lon="2.99826">
        <ele>813</ele>
        <time>2019-03-10T05:52:54Z</time>
      </trkpt>
      <trkpt lat="45.85086" lon="2.99817">
        <ele>813</ele>
        <time>2019-03-10T05:53:54Z</time>
      </trkpt>
      <trkpt lat="45.85081" lon="2.9981">
        <ele>814</ele>
        <time>2019-03-10T05:54:54Z</time>
      </trkpt>
      <trkpt lat="45.85069" lon="2.99797">
        <ele>815</ele>
        <time>2019-03-10T05:55:54Z</time>
      </trkpt>
      <trkpt lat="45.85068" lon="2.99796">
        <ele>815</ele>
        <time>2019-03-10T05:56:54Z</time>
      </trkpt>
      <trkpt lat="45.85039" lon="2.99781">
        <ele>816</ele>
        <time>2019-03-10T05:57:54Z</time>
      </trkpt>
      <trkpt lat="45.85032" lon="2.99778">
        <ele>816</ele>
        <time>2019-03-10T05:58:54Z</time>
      </trkpt>
      <trkpt lat="45.85026" lon="2.99773">
        <ele>816</ele>
        <time>2019-03-10T05:59:54Z</time>
      </trkpt>
      <trkpt lat="45.8502" lon="2.99768">
        <ele>817</ele>
        <time>2019-03-10T06:00:54Z</time>
      </trkpt>
      <trkpt lat="45.85" lon="2.99759">
        <ele>817</ele>
        <time>2019-03-10T06:01:54Z</time>
      </trkpt>
      <trkpt lat="45.84994" lon="2.99754">
        <ele>817</ele>
        <time>2019-03-10T06:02:54Z</time>
      </trkpt>
      <trkpt lat="45.84983" lon="2.99742">
        <ele>817</ele>
        <time>2019-03-10T06:03:54Z</time>
      </trkpt>
      <trkpt lat="45.84978" lon="2.99736">
        <ele>817</ele>
        <time>2019-03-10T06:04:54Z</time>
      </trkpt>
      <trkpt lat="45.84974" lon="2.99729">
        <ele>818</ele>
        <time>2019-03-10T06:05:54Z</time>
      </trkpt>
      <trkpt lat="45.84969" lon="2.99722">
        <ele>818</ele>
        <time>2019-03-10T06:06:54Z</time>
      </trkpt>
      <trkpt lat="45.84963" lon="2.99717">
        <ele>818</ele>
        <time>2019-03-10T06:07:54Z</time>
      </trkpt>
      <trkpt lat="45.84948" lon="2.997">
        <ele>818</ele>
        <time>2019-03-10T06:08:54Z</time>
      </trkpt>
      <trkpt lat="45.84943" lon="2.99695">
        <ele>818</ele>
        <time>2019-03-10T06:09:54Z</time>
      </trkpt>
      <trkpt lat="45.84912" lon="2.99656">
        <ele>818</ele>
        <time>2019-03-10T06:10:54Z</time>
      </trkpt>
      <trkpt lat="45.84907" lon="2.9965">
        <ele>818</ele>
        <time>2019-03-10T06:11:54Z</time>
      </trkpt>
      <trkpt lat="45.8489" lon="2.99631">
        <ele>818</ele>
        <time>2019-03-10T06:12:54Z</time>
      </trkpt>
      <trkpt lat="45.84883" lon="2.99627">
        <ele>818</ele>
        <time>2019-03-10T06:13:54Z</time>
      </trkpt>
      <trkpt lat="45.84874" lon="2.99615">
        <ele>819</ele>
        <time>2019-03-10T06:14:54Z</time>
      </trkpt>
      <trkpt lat="45.84868" lon="2.99609">
        <ele>819</ele>
        <time>2019-03-10T06:15:54Z</time>
      </trkpt>
      <trkpt lat="45.84862" lon="2.99593">
        <ele>819</ele>
        <time>2019-03-10T06:16:54Z</time>
      </trkpt>
      <trkpt lat="45.84857" lon="2.99585">
        <ele>820</ele>
        <time>2019-03-10T06:17:54Z</time>
      </trkpt>
      <trkpt lat="45.84852" lon="2.99577">
        <ele>820</ele>
        <time>2019-03-10T06:18:54Z</time>
      </trkpt>
      <trkpt lat="45.84847" lon="2.99569">
        <ele>821</ele>
        <time>2019-03-10T06:19:54Z</time>
      </trkpt>
      <trkpt lat="45.84842" lon="2.99562">
        <ele>821</ele>
        <time>2019-03-10T06:20:54Z</time>
      </trkpt>
      <trkpt lat="45.84836" lon="2.99556">
        <ele>821</ele>
        <time>2019-03-10T06:21:54Z</time>
      </trkpt>
      <trkpt lat="45.84832" lon="2.99549">
        <ele>821</ele>
        <time>2019-03-10T06:22:54Z</time>
      </trkpt>
      <trkpt lat="45.84828" lon="2.99543">
        <ele>822</ele>
        <time>2019-03-10T06:23:54Z</time>
      </trkpt>
      <trkpt lat="45.84823" lon="2.99536">
        <ele>822</ele>
        <time>2019-03-10T06:24:54Z</time>
      </trkpt>
      <trkpt lat="45.84817" lon="2.9953">
        <ele>823</ele>
        <time>2019-03-10T06:25:54Z</time>
      </trkpt>
      <trkpt lat="45.84809" lon="2.99517">
        <ele>824</ele>
        <time>2019-03-10T06:26:54Z</time>
      </trkpt>
      <trkpt lat="45.84804" lon="2.9951">
        <ele>824</ele>
        <time>2019-03-10T06:27:54Z</time>
      </trkpt>
      <trkpt lat="45.848" lon="2.99503">
        <ele>825</ele>
        <time>2019-03-10T06:28:54Z</time>
      </trkpt>
      <trkpt lat="45.84796" lon="2.99496">
        <ele>825</ele>
        <time>2019-03-10T06:29:54Z</time>
      </trkpt>
      <trkpt lat="45.84786" lon="2.99485">
        <ele>826</ele>
        <time>2019-03-10T06:30:54Z</time>
      </trkpt>
      <trkpt lat="45.84779" lon="2.99476">
        <ele>827</ele>
        <time>2019-03-10T06:31:54Z</time>
      </trkpt>
      <trkpt lat="45.84767" lon="2.99465">
        <ele>828</ele>
        <time>2019-03-10T06:32:54Z</time>
      </trkpt>
      <trkpt lat="45.8476" lon="2.99459">
        <ele>829</ele>
        <time>2019-03-10T06:33:54Z</time>
      </trkpt>
      <trkpt lat="45.84748" lon="2.99447">
        <ele>831</ele>
        <time>2019-03-10T06:34:54Z</time>
      </trkpt>
      <trkpt lat="45.84741" lon="2.9944">
        <ele>831</ele>
        <time>2019-03-10T06:35:54Z</time>
      </trkpt>
      <trkpt lat="45.84717" lon="2.99412">
        <ele>833</ele>
        <time>2019-03-10T06:36:54Z</time>
      </trkpt>
      <trkpt lat="45.84711" lon="2.99405">
        <ele>833</ele>
        <time>2019-03-10T06:37:54Z</time>
      </trkpt>
      <trkpt lat="45.84705" lon="2.99399">
        <ele>833</ele>
        <time>2019-03-10T06:38:54Z</time>
      </trkpt>
      <trkpt lat="45.84699" lon="2.99393">
        <ele>834</ele>
        <time>2019-03-10T06:39:54Z</time>
      </trkpt>
      <trkpt lat="45.84693" lon="2.99387">
        <ele>834</ele>
        <time>2019-03-10T06:40:54Z</time>
      </trkpt>
      <trkpt lat="45.84687" lon="2.9938">
        <ele>834</ele>
        <time>2019-03-10T06:41:54Z</time>
      </trkpt>
      <trkpt lat="45.84682" lon="2.99372">
        <ele>835</ele>
        <time>2019-03-10T06:42:54Z</time>
      </trkpt>
      <trkpt lat="45.84675" lon="2.99365">
        <ele>835</ele>
        <time>2019-03-10T06:43:54Z</time>
      </trkpt>
      <trkpt lat="45.84668" lon="2.99358">
        <ele>835</ele>
        <time>2019-03-10T06:44:54Z</time>
      </trkpt>
      <trkpt lat="45.8465" lon="2.99334">
        <ele>836</ele>
        <time>2019-03-10T06:45:54Z</time>
      </trkpt>
      <trkpt lat="45.84648" lon="2.99332">
        <ele>836</ele>
        <time>2019-03-10T06:46:54Z</time>
      </trkpt>
      <trkpt lat="45.84636" lon="2.9932">
        <ele>837</ele>
        <time>2019-03-10T06:47:54Z</time>
      </trkpt>
      <trkpt lat="45.8463" lon="2.99316">
        <ele>837</ele>
        <time>2019-03-10T06:48:54Z</time>
      </trkpt>
      <trkpt lat="45.84626" lon="2.99311">
        <ele>837</ele>
        <time>2019-03-10T06:49:54Z</time>
      </trkpt>
      <trkpt lat="45.84619" lon="2.99304">
        <ele>837</ele>
        <time>2019-03-10T06:50:54Z</time>
      </trkpt>
      <trkpt lat="45.84611" lon="2.99298">
        <ele>837</ele>
        <time>2019-03-10T06:51:54Z</time>
      </trkpt>
      <trkpt lat="45.84585" lon="2.99276">
        <ele>838</ele>
        <time>2019-03-10T06:52:54Z</time>
      </trkpt>
      <trkpt lat="45.84579" lon="2.99272">
        <ele>838</ele>
        <time>2019-03-10T06:53:54Z</time>
      </trkpt>
      <trkpt lat="45.84573" lon="2.99269">
        <ele>838</ele>
        <time>2019-03-10T06:54:54Z</time>
      </trkpt>
      <trkpt lat="45.84566" lon="2.99268">
        <ele>838</ele>
        <time>2019-03-10T06:55:54Z</time>
      </trkpt>
      <trkpt lat="45.8456" lon="2.99266">
        <ele>838</ele>
        <time>2019-03-10T06:56:54Z</time>
      </trkpt>
      <trkpt lat="45.84553" lon="2.99262">
        <ele>838</ele>
        <time>2019-03-10T06:57:54Z</time>
      </trkpt>
      <trkpt lat="45.84547" lon="2.99258">
        <ele>838</ele>
        <time>2019-03-10T06:58:54Z</time>
      </trkpt>
      <trkpt lat="45.84536" lon="2.99249">
        <ele>839</ele>
        <time>2019-03-10T06:59:54Z</time>
      </trkpt>
      <trkpt lat="45.8453" lon="2.99245">
        <ele>839</ele>
        <time>2019-03-10T07:00:54Z</time>
      </trkpt>
      <trkpt lat="45.84511" lon="2.99235">
        <ele>839</ele>
        <time>2019-03-10T07:01:54Z</time>
      </trkpt>
      <trkpt lat="45.84505" lon="2.99231">
        <ele>838</ele>
        <time>2019-03-10T07:02:54Z</time>
      </trkpt>
      <trkpt lat="45.84492" lon="2.99222">
        <ele>838</ele>
        <time>2019-03-10T07:03:54Z</time>
      </trkpt>
      <trkpt lat="45.84484" lon="2.99216">
        <ele>837</ele>
        <time>2019-03-10T07:04:54Z</time>
      </trkpt>
      <trkpt lat="45.84478" lon="2.99212">
        <ele>836</ele>
        <time>2019-03-10T07:05:54Z</time>
      </trkpt>
      <trkpt lat="45.84474" lon="2.9921">
        <ele>836</ele>
        <time>2019-03-10T07:06:54Z</time>
      </trkpt>
      <trkpt lat="45.84463" lon="2.99203">
        <ele>835</ele>
        <time>2019-03-10T07:07:54Z</time>
      </trkpt>
      <trkpt lat="45.84456" lon="2.99198">
        <ele>835</ele>
        <time>2019-03-10T07:08:54Z</time>
      </trkpt>
      <trkpt lat="45.84434" lon="2.99187">
        <ele>833</ele>
        <time>2019-03-10T07:09:54Z</time>
      </trkpt>
      <trkpt lat="45.84427" lon="2.99183">
        <ele>833</ele>
        <time>2019-03-10T07:10:54Z</time>
      </trkpt>
      <trkpt lat="45.84398" lon="2.99163">
        <ele>832</ele>
        <time>2019-03-10T07:11:54Z</time>
      </trkpt>
      <trkpt lat="45.84391" lon="2.99158">
        <ele>832</ele>
        <time>2019-03-10T07:12:54Z</time>
      </trkpt>
      <trkpt lat="45.84377" lon="2.99148">
        <ele>833</ele>
        <time>2019-03-10T07:13:54Z</time>
      </trkpt>
      <trkpt lat="45.84371" lon="2.99143">
        <ele>833</ele>
        <time>2019-03-10T07:14:54Z</time>
      </trkpt>
      <trkpt lat="45.8436" lon="2.99133">
        <ele>833</ele>
        <time>2019-03-10T07:15:54Z</time>
      </trkpt>
      <trkpt lat="45.84355" lon="2.99128">
        <ele>833</ele>
        <time>2019-03-10T07:16:54Z</time>
      </trkpt>
      <trkpt lat="45.84349" lon="2.9912">
        <ele>834</ele>
        <time>2019-03-10T07:17:54Z</time>
      </trkpt>
      <trkpt lat="45.84344" lon="2.99116">
        <ele>834</ele>
        <time>2019-03-10T07:18:54Z</time>
      </trkpt>
      <trkpt lat="45.84336" lon="2.99109">
        <ele>834</ele>
        <time>2019-03-10T07:19:54Z</time>
      </trkpt>
      <trkpt lat="45.84324" lon="2.99095">
        <ele>835</ele>
        <time>2019-03-10T07:20:54Z</time>
      </trkpt>
      <trkpt lat="45.84317" lon="2.99088">
        <ele>836</ele>
        <time>2019-03-10T07:21:54Z</time>
      </trkpt>
      <trkpt lat="45.84309" lon="2.99082">
        <ele>836</ele>
        <time>2019-03-10T07:22:54Z</time>
      </trkpt>
      <trkpt lat="45.84293" lon="2.99066">
        <ele>837</ele>
        <time>2019-03-10T07:23:54Z</time>
      </trkpt>
      <trkpt lat="45.84283" lon="2.99055">
        <ele>838</ele>
        <time>2019-03-10T07:24:54Z</time>
      </trkpt>
      <trkpt lat="45.84254" lon="2.99031">
        <ele>840</ele>
        <time>2019-03-10T07:25:54Z</time>
      </trkpt>
      <trkpt lat="45.84247" lon="2.99024">
        <ele>840</ele>
        <time>2019-03-10T07:26:54Z</time>
      </trkpt>
      <trkpt lat="45.8424" lon="2.99016">
        <ele>841</ele>
        <time>2019-03-10T07:27:54Z</time>
      </trkpt>
      <trkpt lat="45.84224" lon="2.99">
        <ele>842</ele>
        <time>2019-03-10T07:28:54Z</time>
      </trkpt>
      <trkpt lat="45.84219" lon="2.98996">
        <ele>842</ele>
        <time>2019-03-10T07:29:54Z</time>
      </trkpt>
      <trkpt lat="45.84201" lon="2.9898">
        <ele>842</ele>
        <time>2019-03-10T07:30:54Z</time>
      </trkpt>
      <trkpt lat="45.84195" lon="2.98975">
        <ele>843</ele>
        <time>2019-03-10T07:31:54Z</time>
      </trkpt>
      <trkpt lat="45.84191" lon="2.98969">
        <ele>843</ele>
        <time>2019-03-10T07:32:54Z</time>
      </trkpt>
      <trkpt lat="45.84185" lon="2.98965">
        <ele>843</ele>
        <time>2019-03-10T07:33:54Z</time>
      </trkpt>
      <trkpt lat="45.84179" lon="2.9896">
        <ele>843</ele>
        <time>2019-03-10T07:34:54Z</time>
      </trkpt>
      <trkpt lat="45.84132" lon="2.98935">
        <ele>844</ele>
        <time>2019-03-10T07:35:54Z</time>
      </trkpt>
      <trkpt lat="45.84126" lon="2.98931">
        <ele>844</ele>
        <time>2019-03-10T07:36:54Z</time>
      </trkpt>
      <trkpt lat="45.84123" lon="2.98929">
        <ele>845</ele>
        <time>2019-03-10T07:37:54Z</time>
      </trkpt>
      <trkpt lat="45.84114" lon="2.98921">
        <ele>845</ele>
        <time>2019-03-10T07:38:54Z</time>
      </trkpt>
      <trkpt lat="45.84105" lon="2.98909">
        <ele>845</ele>
        <time>2019-03-10T07:39:54Z</time>
      </trkpt>
      <trkpt lat="45.84098" lon="2.98901">
        <ele>845</ele>
        <time>2019-03-10T07:40:54Z</time>
      </trkpt>
      <trkpt lat="45.84091" lon="2.98897">
        <ele>845</ele>
        <time>2019-03-10T07:41:54Z</time>
      </trkpt>
      <trkpt lat="45.84084" lon="2.98892">
        <ele>845</ele>
        <time>2019-03-10T07:42:54Z</time>
      </trkpt>
      <trkpt lat="45.84077" lon="2.98888">
        <ele>846</ele>
        <time>2019-03-10T07:43:54Z</time>
      </trkpt>
      <trkpt lat="45.8407" lon="2.98883">
        <ele>846</ele>
        <time>2019-03-10T07:44:54Z</time>
      </trkpt>
      <trkpt lat="45.84033" lon="2.9887">
        <ele>848</ele>
        <time>2019-03-10T07:45:54Z</time>
      </trkpt>
      <trkpt lat="45.84026" lon="2.98867">
        <ele>848</ele>
        <time>2019-03-10T07:46:54Z</time>
      </trkpt>
      <trkpt lat="45.83988" lon="2.98845">
        <ele>849</ele>
        <time>2019-03-10T07:47:54Z</time>
      </trkpt>
      <trkpt lat="45.83981" lon="2.98841">
        <ele>850</ele>
        <time>2019-03-10T07:48:54Z</time>
      </trkpt>
      <trkpt lat="45.83974" lon="2.98835">
        <ele>850</ele>
        <time>2019-03-10T07:49:54Z</time>
      </trkpt>
      <trkpt lat="45.83968" lon="2.9883">
        <ele>851</ele>
        <time>2019-03-10T07:50:54Z</time>
      </trkpt>
      <trkpt lat="45.83956" lon="2.98821">
        <ele>851</ele>
        <time>2019-03-10T07:51:54Z</time>
      </trkpt>
      <trkpt lat="45.83952" lon="2.98819">
        <ele>851</ele>
        <time>2019-03-10T07:52:54Z</time>
      </trkpt>
      <trkpt lat="45.8393" lon="2.988">
        <ele>852</ele>
        <time>2019-03-10T07:53:54Z</time>
      </trkpt>
      <trkpt lat="45.83922" lon="2.98794">
        <ele>853</ele>
        <time>2019-03-10T07:54:54Z</time>
      </trkpt>
      <trkpt lat="45.83911" lon="2.98784">
        <ele>853</ele>
        <time>2019-03-10T07:55:54Z</time>
      </trkpt>
      <trkpt lat="45.83906" lon="2.98779">
        <ele>853</ele>
        <time>2019-03-10T07:56:54Z</time>
      </trkpt>
      <trkpt lat="45.83897" lon="2.98767">
        <ele>853</ele>
        <time>2019-03-10T07:57:54Z</time>
      </trkpt>
      <trkpt lat="45.83892" lon="2.98761">
        <ele>854</ele>
        <time>2019-03-10T07:58:54Z</time>
      </trkpt>
      <trkpt lat="45.83885" lon="2.98757">
        <ele>854</ele>
        <time>2019-03-10T07:59:54Z</time>
      </trkpt>
      <trkpt lat="45.83879" lon="2.98755">
        <ele>854</ele>
        <time>2019-03-10T08:00:54Z</time>
      </trkpt>
      <trkpt lat="45.83865" lon="2.98746">
        <ele>854</ele>
        <time>2019-03-10T08:01:54Z</time>
      </trkpt>
      <trkpt lat="45.83853" lon="2.98738">
        <ele>855</ele>
        <time>2019-03-10T08:02:54Z</time>
      </trkpt>
      <trkpt lat="45.83834" lon="2.98733">
        <ele>856</ele>
        <time>2019-03-10T08:03:54Z</time>
      </trkpt>
      <trkpt lat="45.8382" lon="2.98793">
        <ele>856</ele>
        <time>2019-03-10T08:04:54Z</time>
      </trkpt>
      <trkpt lat="45.83808" lon="2.98926">
        <ele>856</ele>
        <time>2019-03-10T08:05:54Z</time>
      </trkpt>
      <trkpt lat="45.83798" lon="2.99054">
        <ele>851</ele>
        <time>2019-03-10T08:06:54Z</time>
      </trkpt>
      <trkpt lat="45.83783" lon="2.99118">
        <ele>848</ele>
        <time>2019-03-10T08:07:54Z</time>
      </trkpt>
      <trkpt lat="45.83769" lon="2.99193">
        <ele>843</ele>
        <time>2019-03-10T08:08:54Z</time>
      </trkpt>
      <trkpt lat="45.83751" lon="2.99223">
        <ele>842</ele>
        <time>2019-03-10T08:09:54Z</time>
      </trkpt>
      <trkpt lat="45.83742" lon="2.99253">
        <ele>840</ele>
        <time>2019-03-10T08:10:54Z</time>
      </trkpt>
      <trkpt lat="45.83726" lon="2.99258">
        <ele>841</ele>
        <time>2019-03-10T08:11:54Z</time>
      </trkpt>
      <trkpt lat="45.83691" lon="2.99295">
        <ele>842</ele>
        <time>2019-03-10T08:12:54Z</time>
      </trkpt>
      <trkpt lat="45.83647" lon="2.99366">
        <ele>841</ele>
        <time>2019-03-10T08:13:54Z</time>
      </trkpt>
      <trkpt lat="45.83609" lon="2.99433">
        <ele>838</ele>
        <time>2019-03-10T08:14:54Z</time>
      </trkpt>
      <trkpt lat="45.83582" lon="2.99458">
        <ele>838</ele>
        <time>2019-03-10T08:15:54Z</time>
      </trkpt>
      <trkpt lat="45.83559" lon="2.99486">
        <ele>839</ele>
        <time>2019-03-10T08:16:54Z</time>
      </trkpt>
      <trkpt lat="45.83546" lon="2.99499">
        <ele>839</ele>
        <time>2019-03-10T08:17:54Z</time>
      </trkpt>
      <trkpt lat="45.83507" lon="2.99497">
        <ele>842</ele>
        <time>2019-03-10T08:18:54Z</time>
      </trkpt>
      <trkpt lat="45.8347" lon="2.99466">
        <ele>842</ele>
        <time>2019-03-10T08:19:54Z</time>
      </trkpt>
      <trkpt lat="45.83424" lon="2.99434">
        <ele>844</ele>
        <time>2019-03-10T08:20:54Z</time>
      </trkpt>
      <trkpt lat="45.83401" lon="2.99424">
        <ele>844</ele>
        <time>2019-03-10T08:21:54Z</time>
      </trkpt>
      <trkpt lat="45.83366" lon="2.99381">
        <ele>846</ele>
        <time>2019-03-10T08:22:54Z</time>
      </trkpt>
      <trkpt lat="45.83321" lon="2.99386">
        <ele>848</ele>
        <time>2019-03-10T08:23:54Z</time>
      </trkpt>
      <trkpt lat="45.83273" lon="2.99374">
        <ele>851</ele>
        <time>2019-03-10T08:24:54Z</time>
      </trkpt>
      <trkpt lat="45.8323" lon="2.9936">
        <ele>853</ele>
        <time>2019-03-10T08:25:54Z</time>
      </trkpt>
      <trkpt lat="45.83185" lon="2.99344">
        <ele>854</ele>
        <time>2019-03-10T08:26:54Z</time>
      </trkpt>
      <trkpt lat="45.83159" lon="2.99342">
        <ele>855</ele>
        <time>2019-03-10T08:27:54Z</time>
      </trkpt>
      <trkpt lat="45.83071" lon="2.99348">
        <ele>862</ele>
        <time>2019-03-10T08:28:54Z</time>
      </trkpt>
      <trkpt lat="45.83069" lon="2.99378">
        <ele>863</ele>
        <time>2019-03-10T08:29:54Z</time>
      </trkpt>
      <trkpt lat="45.83063" lon="2.99401">
        <ele>866</ele>
        <time>2019-03-10T08:30:54Z</time>
      </trkpt>
      <trkpt lat="45.83065" lon="2.99407">
        <ele>866</ele>
        <time>2019-03-10T08:31:54Z</time>
      </trkpt>
      <trkpt lat="45.83069" lon="2.99419">
        <ele>865</ele>
        <time>2019-03-10T08:32:54Z</time>
      </trkpt>
      <trkpt lat="45.83089" lon="2.9948">
        <ele>864</ele>
        <time>2019-03-10T08:33:54Z</time>
      </trkpt>
      <trkpt lat="45.83092" lon="2.9949">
        <ele>864</ele>
        <time>2019-03-10T08:34:54Z</time>
      </trkpt>
      <trkpt lat="45.83103" lon="2.99518">
        <ele>864</ele>
        <time>2019-03-10T08:35:54Z</time>
      </trkpt>
      <trkpt lat="45.83106" lon="2.99527">
        <ele>864</ele>
        <time>2019-03-10T08:36:54Z</time>
      </trkpt>
      <trkpt lat="45.83108" lon="2.99536">
        <ele>864</ele>
        <time>2019-03-10T08:37:54Z</time>
      </trkpt>
      <trkpt lat="45.83108" lon="2.99546">
        <ele>864</ele>
        <time>2019-03-10T08:38:54Z</time>
      </trkpt>
      <trkpt lat="45.8311" lon="2.99558">
        <ele>865</ele>
        <time>2019-03-10T08:39:54Z</time>
      </trkpt>
      <trkpt lat="45.83117" lon="2.99588">
        <ele>866</ele>
        <time>2019-03-10T08:40:54Z</time>
      </trkpt>
      <trkpt lat="45.83119" lon="2.99599">
        <ele>866</ele>
        <time>2019-03-10T08:41:54Z</time>
      </trkpt>
      <trkpt lat="45.8312" lon="2.99609">
        <ele>867</ele>
        <time>2019-03-10T08:42:54Z</time>
      </trkpt>
      <trkpt lat="45.83117" lon="2.9962">
        <ele>868</ele>
        <time>2019-03-10T08:43:54Z</time>
      </trkpt>
      <trkpt lat="45.83109" lon="2.99619">
        <ele>868</ele>
        <time>2019-03-10T08:44:54Z</time>
      </trkpt>
      <trkpt lat="45.83101" lon="2.99615">
        <ele>869</ele>
        <time>2019-03-10T08:45:54Z</time>
      </trkpt>
      <trkpt lat="45.83082" lon="2.99598">
        <ele>870</ele>
        <time>2019-03-10T08:46:54Z</time>
      </trkpt>
      <trkpt lat="45.83076" lon="2.9959">
        <ele>870</ele>
        <time>2019-03-10T08:47:54Z</time>
      </trkpt>
      <trkpt lat="45.8307" lon="2.99582">
        <ele>870</ele>
        <time>2019-03-10T08:48:54Z</time>
      </trkpt>
      <trkpt lat="45.83064" lon="2.99573">
        <ele>870</ele>
        <time>2019-03-10T08:49:54Z</time>
      </trkpt>
      <trkpt lat="45.83059" lon="2.99563">
        <ele>871</ele>
        <time>2019-03-10T08:50:54Z</time>
      </trkpt>
      <trkpt lat="45.83056" lon="2.99554">
        <ele>871</ele>
        <time>2019-03-10T08:51:54Z</time>
      </trkpt>
      <trkpt lat="45.83047" lon="2.99537">
        <ele>872</ele>
        <time>2019-03-10T08:52:54Z</time>
      </trkpt>
      <trkpt lat="45.83043" lon="2.99528">
        <ele>872</ele>
        <time>2019-03-10T08:53:54Z</time>
      </trkpt>
      <trkpt lat="45.83028" lon="2.99501">
        <ele>874</ele>
        <time>2019-03-10T08:54:54Z</time>
      </trkpt>
      <trkpt lat="45.83021" lon="2.99495">
        <ele>875</ele>
        <time>2019-03-10T08:55:54Z</time>
      </trkpt>
      <trkpt lat="45.82998" lon="2.99489">
        <ele>879</ele>
        <time>2019-03-10T08:56:54Z</time>
      </trkpt>
      <trkpt lat="45.82997" lon="2.99488">
        <ele>879</ele>
        <time>2019-03-10T08:57:54Z</time>
      </trkpt>
      <trkpt lat="45.8298" lon="2.99487">
        <ele>879</ele>
        <time>2019-03-10T08:58:54Z</time>
      </trkpt>
      <trkpt lat="45.82972" lon="2.99486">
        <ele>880</ele>
        <time>2019-03-10T08:59:54Z</time>
      </trkpt>
      <trkpt lat="45.82949" lon="2.99487">
        <ele>881</ele>
        <time>2019-03-10T09:00:54Z</time>
      </trkpt>
      <trkpt lat="45.82941" lon="2.99487">
        <ele>881</ele>
        <time>2019-03-10T09:01:54Z</time>
      </trkpt>
      <trkpt lat="45.82933" lon="2.99486">
        <ele>881</ele>
        <time>2019-03-10T09:02:54Z</time>
      </trkpt>
      <trkpt lat="45.82924" lon="2.99484">
        <ele>881</ele>
        <time>2019-03-10T09:03:54Z</time>
      </trkpt>
      <trkpt lat="45.82917" lon="2.99479">
        <ele>881</ele>
        <time>2019-03-10T09:04:54Z</time>
      </trkpt>
      <trkpt lat="45.8291" lon="2.99472">
        <ele>881</ele>
        <time>2019-03-10T09:05:54Z</time>
      </trkpt>
      <trkpt lat="45.82902" lon="2.99459">
        <ele>881</ele>
        <time>2019-03-10T09:06:54Z</time>
      </trkpt>
      <trkpt lat="45.82898" lon="2.99452">
        <ele>881</ele>
        <time>2019-03-10T09:07:54Z</time>
      </trkpt>
      <trkpt lat="45.82891" lon="2.99436">
        <ele>881</ele>
        <time>2019-03-10T09:08:54Z</time>
      </trkpt>
      <trkpt lat="45.82888" lon="2.99428">
        <ele>881</ele>
        <time>2019-03-10T09:09:54Z</time>
      </trkpt>
      <trkpt lat="45.82882" lon="2.99412">
        <ele>881</ele>
        <time>2019-03-10T09:10:54Z</time>
      </trkpt>
      <trkpt lat="45.82879" lon="2.99403">
        <ele>881</ele>
        <time>2019-03-10T09:11:54Z</time>
      </trkpt>
      <trkpt lat="45.82874" lon="2.99393">
        <ele>881</ele>
        <time>2019-03-10T09:12:54Z</time>
      </trkpt>
      <trkpt lat="45.82868" lon="2.99384">
        <ele>881</ele>
        <time>2019-03-10T09:13:54Z</time>
      </trkpt>
      <trkpt lat="45.82859" lon="2.9938">
        <ele>881</ele>
        <time>2019-03-10T09:14:54Z</time>
      </trkpt>
      <trkpt lat="45.82853" lon="2.9938">
        <ele>882</ele>
        <time>2019-03-10T09:15:54Z</time>
      </trkpt>
      <trkpt lat="45.82841" lon="2.99383">
        <ele>882</ele>
        <time>2019-03-10T09:16:54Z</time>
      </trkpt>
      <trkpt lat="45.82834" lon="2.99383">
        <ele>882</ele>
        <time>2019-03-10T09:17:54Z</time>
      </trkpt>
      <trkpt lat="45.828" lon="2.99394">
        <ele>882</ele>
        <time>2019-03-10T09:18:54Z</time>
      </trkpt>
      <trkpt lat="45.82793" lon="2.99395">
        <ele>882</ele>
        <time>2019-03-10T09:19:54Z</time>
      </trkpt>
      <trkpt lat="45.82768" lon="2.99405">
        <ele>881</ele>
        <time>2019-03-10T09:20:54Z</time>
      </trkpt>
      <trkpt lat="45.82762" lon="2.99407">
        <ele>881</ele>
        <time>2019-03-10T09:21:54Z</time>
      </trkpt>
      <trkpt lat="45.82718" lon="2.99425">
        <ele>882</ele>
        <time>2019-03-10T09:22:54Z</time>
      </trkpt>
      <trkpt lat="45.82712" lon="2.99427">
        <ele>882</ele>
        <time>2019-03-10T09:23:54Z</time>
      </trkpt>
      <trkpt lat="45.82706" lon="2.99428">
        <ele>882</ele>
        <time>2019-03-10T09:24:54Z</time>
      </trkpt>
      <trkpt lat="45.82699" lon="2.9943">
        <ele>882</ele>
        <time>2019-03-10T09:25:54Z</time>
      </trkpt>
      <trkpt lat="45.82674" lon="2.99438">
        <ele>882</ele>
        <time>2019-03-10T09:26:54Z</time>
      </trkpt>
      <trkpt lat="45.82671" lon="2.99439">
        <ele>882</ele>
        <time>2019-03-10T09:27:54Z</time>
      </trkpt>
      <trkpt lat="45.82648" lon="2.99445">
        <ele>883</ele>
        <time>2019-03-10T09:28:54Z</time>
      </trkpt>
      <trkpt lat="45.82642" lon="2.99446">
        <ele>883</ele>
        <time>2019-03-10T09:29:54Z</time>
      </trkpt>
      <trkpt lat="45.82604" lon="2.99457">
        <ele>884</ele>
        <time>2019-03-10T09:30:54Z</time>
      </trkpt>
      <trkpt lat="45.82598" lon="2.99459">
        <ele>884</ele>
        <time>2019-03-10T09:31:54Z</time>
      </trkpt>
      <trkpt lat="45.8256" lon="2.99468">
        <ele>886</ele>
        <time>2019-03-10T09:32:54Z</time>
      </trkpt>
      <trkpt lat="45.82554" lon="2.99469">
        <ele>887</ele>
        <time>2019-03-10T09:33:54Z</time>
      </trkpt>
      <trkpt lat="45.82508" lon="2.99484">
        <ele>890</ele>
        <time>2019-03-10T09:34:54Z</time>
      </trkpt>
      <trkpt lat="45.82501" lon="2.99485">
        <ele>890</ele>
        <time>2019-03-10T09:35:54Z</time>
      </trkpt>
      <trkpt lat="45.82464" lon="2.99493">
        <ele>891</ele>
        <time>2019-03-10T09:36:54Z</time>
      </trkpt>
      <trkpt lat="45.82455" lon="2.99495">
        <ele>892</ele>
        <time>2019-03-10T09:37:54Z</time>
      </trkpt>
      <trkpt lat="45.82413" lon="2.99503">
        <ele>893</ele>
        <time>2019-03-10T09:38:54Z</time>
      </trkpt>
      <trkpt lat="45.82407" lon="2.99504">
        <ele>894</ele>
        <time>2019-03-10T09:39:54Z</time>
      </trkpt>
      <trkpt lat="45.82395" lon="2.99504">
        <ele>896</ele>
        <time>2019-03-10T09:40:54Z</time>
      </trkpt>
      <trkpt lat="45.82388" lon="2.99503">
        <ele>896</ele>
        <time>2019-03-10T09:41:54Z</time>
      </trkpt>
      <trkpt lat="45.82382" lon="2.99501">
        <ele>897</ele>
        <time>2019-03-10T09:42:54Z</time>
      </trkpt>
      <trkpt lat="45.82374" lon="2.99498">
        <ele>898</ele>
        <time>2019-03-10T09:43:54Z</time>
      </trkpt>
      <trkpt lat="45.82367" lon="2.99498">
        <ele>899</ele>
        <time>2019-03-10T09:44:54Z</time>
      </trkpt>
      <trkpt lat="45.82361" lon="2.99499">
        <ele>900</ele>
        <time>2019-03-10T09:45:54Z</time>
      </trkpt>
      <trkpt lat="45.82353" lon="2.99502">
        <ele>901</ele>
        <time>2019-03-10T09:46:54Z</time>
      </trkpt>
      <trkpt lat="45.82347" lon="2.99503">
        <ele>901</ele>
        <time>2019-03-10T09:47:54Z</time>
      </trkpt>
      <trkpt lat="45.82334" lon="2.99508">
        <ele>903</ele>
        <time>2019-03-10T09:48:54Z</time>
      </trkpt>
      <trkpt lat="45.82328" lon="2.9951">
        <ele>903</ele>
        <time>2019-03-10T09:49:54Z</time>
      </trkpt>
      <trkpt lat="45.82316" lon="2.99512">
        <ele>902</ele>
        <time>2019-03-10T09:50:54Z</time>
      </trkpt>
      <trkpt lat="45.82309" lon="2.99513">
        <ele>902</ele>
        <time>2019-03-10T09:51:54Z</time>
      </trkpt>
      <trkpt lat="45.82293" lon="2.99514">
        <ele>902</ele>
        <time>2019-03-10T09:52:54Z</time>
      </trkpt>
      <trkpt lat="45.82283" lon="2.99516">
        <ele>902</ele>
        <time>2019-03-10T09:53:54Z</time>
      </trkpt>
      <trkpt lat="45.82276" lon="2.99516">
        <ele>902</ele>
        <time>2019-03-10T09:54:54Z</time>
      </trkpt>
      <trkpt lat="45.8227" lon="2.99515">
        <ele>902</ele>
        <time>2019-03-10T09:55:54Z</time>
      </trkpt>
      <trkpt lat="45.82256" lon="2.99511">
        <ele>901</ele>
        <time>2019-03-10T09:56:54Z</time>
      </trkpt>
      <trkpt lat="45.8225" lon="2.9951">
        <ele>901</ele>
        <time>2019-03-10T09:57:54Z</time>
      </trkpt>
      <trkpt lat="45.82244" lon="2.99511">
        <ele>901</ele>
        <time>2019-03-10T09:58:54Z</time>
      </trkpt>
      <trkpt lat="45.82237" lon="2.99511">
        <ele>900</ele>
        <time>2019-03-10T09:59:54Z</time>
      </trkpt>
      <trkpt lat="45.82203" lon="2.99507">
        <ele>898</ele>
        <time>2019-03-10T10:00:54Z</time>
      </trkpt>
      <trkpt lat="45.82196" lon="2.99506">
        <ele>898</ele>
        <time>2019-03-10T10:01:54Z</time>
      </trkpt>
      <trkpt lat="45.82176" lon="2.99504">
        <ele>897</ele>
        <time>2019-03-10T10:02:54Z</time>
      </trkpt>
      <trkpt lat="45.82169" lon="2.99504">
        <ele>896</ele>
        <time>2019-03-10T10:03:54Z</time>
      </trkpt>
      <trkpt lat="45.82156" lon="2.99503">
        <ele>896</ele>
        <time>2019-03-10T10:04:54Z</time>
      </trkpt>
      <trkpt lat="45.82149" lon="2.99502">
        <ele>896</ele>
        <time>2019-03-10T10:05:54Z</time>
      </trkpt>
      <trkpt lat="45.82143" lon="2.99501">
        <ele>897</ele>
        <time>2019-03-10T10:06:54Z</time>
      </trkpt>
      <trkpt lat="45.82136" lon="2.99501">
        <ele>897</ele>
        <time>2019-03-10T10:07:54Z</time>
      </trkpt>
      <trkpt lat="45.82116" lon="2.99499">
        <ele>897</ele>
        <time>2019-03-10T10:08:54Z</time>
      </trkpt>
      <trkpt lat="45.8211" lon="2.99498">
        <ele>897</ele>
        <time>2019-03-10T10:09:54Z</time>
      </trkpt>
      <trkpt lat="45.82103" lon="2.99498">
        <ele>898</ele>
        <time>2019-03-10T10:10:54Z</time>
      </trkpt>
      <trkpt lat="45.82083" lon="2.99503">
        <ele>898</ele>
        <time>2019-03-10T10:11:54Z</time>
      </trkpt>
      <trkpt lat="45.82073" lon="2.99504">
        <ele>898</ele>
        <time>2019-03-10T10:12:54Z</time>
      </trkpt>
      <trkpt lat="45.82066" lon="2.99505">
        <ele>898</ele>
        <time>2019-03-10T10:13:54Z</time>
      </trkpt>
      <trkpt lat="45.82054" lon="2.99503">
        <ele>898</ele>
        <time>2019-03-10T10:14:54Z</time>
      </trkpt>
      <trkpt lat="45.82047" lon="2.99502">
        <ele>898</ele>
        <time>2019-03-10T10:15:54Z</time>
      </trkpt>
      <trkpt lat="45.82026" lon="2.99504">
        <ele>898</ele>
        <time>2019-03-10T10:16:54Z</time>
      </trkpt>
      <trkpt lat="45.8202" lon="2.99503">
        <ele>898</ele>
        <time>2019-03-10T10:17:54Z</time>
      </trkpt>
      <trkpt lat="45.82007" lon="2.995">
        <ele>898</ele>
        <time>2019-03-10T10:18:54Z</time>
      </trkpt>
      <trkpt lat="45.82" lon="2.99498">
        <ele>898</ele>
        <time>2019-03-10T10:19:54Z</time>
      </trkpt>
      <trkpt lat="45.81981" lon="2.9949">
        <ele>899</ele>
        <time>2019-03-10T10:20:54Z</time>
      </trkpt>
      <trkpt lat="45.81974" lon="2.99487">
        <ele>900</ele>
        <time>2019-03-10T10:21:54Z</time>
      </trkpt>
      <trkpt lat="45.81955" lon="2.9948">
        <ele>901</ele>
        <time>2019-03-10T10:22:54Z</time>
      </trkpt>
      <trkpt lat="45.81949" lon="2.99478">
        <ele>901</ele>
        <time>2019-03-10T10:23:54Z</time>
      </trkpt>
      <trkpt lat="45.81929" lon="2.99473">
        <ele>902</ele>
        <time>2019-03-10T10:24:54Z</time>
      </trkpt>
      <trkpt lat="45.81923" lon="2.99471">
        <ele>902</ele>
        <time>2019-03-10T10:25:54Z</time>
      </trkpt>
      <trkpt lat="45.81917" lon="2.99468">
        <ele>902</ele>
        <time>2019-03-10T10:26:54Z</time>
      </trkpt>
      <trkpt lat="45.81911" lon="2.99465">
        <ele>902</ele>
        <time>2019-03-10T10:27:54Z</time>
      </trkpt>
      <trkpt lat="45.81906" lon="2.99462">
        <ele>902</ele>
        <time>2019-03-10T10:28:54Z</time>
      </trkpt>
      <trkpt lat="45.819" lon="2.99459">
        <ele>902</ele>
        <time>2019-03-10T10:29:54Z</time>
      </trkpt>
      <trkpt lat="45.81894" lon="2.99457">
        <ele>902</ele>
        <time>2019-03-10T10:30:54Z</time>
      </trkpt>
      <trkpt lat="45.81885" lon="2.99455">
        <ele>902</ele>
        <time>2019-03-10T10:31:54Z</time>
      </trkpt>
      <trkpt lat="45.81869" lon="2.99448">
        <ele>902</ele>
        <time>2019-03-10T10:32:54Z</time>
      </trkpt>
      <trkpt lat="45.81861" lon="2.99445">
        <ele>902</ele>
        <time>2019-03-10T10:33:54Z</time>
      </trkpt>
      <trkpt lat="45.81855" lon="2.99444">
        <ele>902</ele>
        <time>2019-03-10T10:34:54Z</time>
      </trkpt>
      <trkpt lat="45.81834" lon="2.99441">
        <ele>903</ele>
        <time>2019-03-10T10:35:54Z</time>
      </trkpt>
      <trkpt lat="45.81828" lon="2.9944">
        <ele>903</ele>
        <time>2019-03-10T10:36:54Z</time>
      </trkpt>
      <trkpt lat="45.81822" lon="2.99438">
        <ele>903</ele>
        <time>2019-03-10T10:37:54Z</time>
      </trkpt>
      <trkpt lat="45.81815" lon="2.99437">
        <ele>903</ele>
        <time>2019-03-10T10:38:54Z</time>
      </trkpt>
      <trkpt lat="45.81809" lon="2.99437">
        <ele>903</ele>
        <time>2019-03-10T10:39:54Z</time>
      </trkpt>
      <trkpt lat="45.818" lon="2.99436">
        <ele>903</ele>
        <time>2019-03-10T10:40:54Z</time>
      </trkpt>
      <trkpt lat="45.81791" lon="2.99435">
        <ele>903</ele>
        <time>2019-03-10T10:41:54Z</time>
      </trkpt>
      <trkpt lat="45.81783" lon="2.99432">
        <ele>903</ele>
        <time>2019-03-10T10:42:54Z</time>
      </trkpt>
      <trkpt lat="45.81776" lon="2.99431">
        <ele>903</ele>
        <time>2019-03-10T10:43:54Z</time>
      </trkpt>
      <trkpt lat="45.81769" lon="2.9943">
        <ele>904</ele>
        <time>2019-03-10T10:44:54Z</time>
      </trkpt>
      <trkpt lat="45.81761" lon="2.99432">
        <ele>904</ele>
        <time>2019-03-10T10:45:54Z</time>
      </trkpt>
      <trkpt lat="45.81753" lon="2.99429">
        <ele>904</ele>
        <time>2019-03-10T10:46:54Z</time>
      </trkpt>
      <trkpt lat="45.81746" lon="2.99433">
        <ele>904</ele>
        <time>2019-03-10T10:47:54Z</time>
      </trkpt>
      <trkpt lat="45.81735" lon="2.99451">
        <ele>906</ele>
        <time>2019-03-10T10:48:54Z</time>
      </trkpt>
      <trkpt lat="45.81734" lon="2.99454">
        <ele>906</ele>
        <time>2019-03-10T10:49:54Z</time>
      </trkpt>
      <trkpt lat="45.81718" lon="2.99488">
        <ele>908</ele>
        <time>2019-03-10T10:50:54Z</time>
      </trkpt>
      <trkpt lat="45.81714" lon="2.99498">
        <ele>909</ele>
        <time>2019-03-10T10:51:54Z</time>
      </trkpt>
      <trkpt lat="45.81709" lon="2.9952">
        <ele>911</ele>
        <time>2019-03-10T10:52:54Z</time>
      </trkpt>
      <trkpt lat="45.81707" lon="2.99532">
        <ele>912</ele>
        <time>2019-03-10T10:53:54Z</time>
      </trkpt>
      <trkpt lat="45.81702" lon="2.99553">
        <ele>914</ele>
        <time>2019-03-10T10:54:54Z</time>
      </trkpt>
      <trkpt lat="45.81699" lon="2.99565">
        <ele>916</ele>
        <time>2019-03-10T10:55:54Z</time>
      </trkpt>
      <trkpt lat="45.81697" lon="2.99576">
        <ele>917</ele>
        <time>2019-03-10T10:56:54Z</time>
      </trkpt>
      <trkpt lat="45.81696" lon="2.99587">
        <ele>917</ele>
        <time>2019-03-10T10:57:54Z</time>
      </trkpt>
      <trkpt lat="45.8169" lon="2.9962">
        <ele>920</ele>
        <time>2019-03-10T10:58:54Z</time>
      </trkpt>
      <trkpt lat="45.81688" lon="2.99632">
        <ele>921</ele>
        <time>2019-03-10T10:59:54Z</time>
      </trkpt>
      <trkpt lat="45.81688" lon="2.99688">
        <ele>924</ele>
        <time>2019-03-10T11:00:54Z</time>
      </trkpt>
      <trkpt lat="45.81689" lon="2.99699">
        <ele>924</ele>
        <time>2019-03-10T11:01:54Z</time>
      </trkpt>
      <trkpt lat="45.8169" lon="2.99711">
        <ele>924</ele>
        <time>2019-03-10T11:02:54Z</time>
      </trkpt>
      <trkpt lat="45.8169" lon="2.99722">
        <ele>924</ele>
        <time>2019-03-10T11:03:54Z</time>
      </trkpt>
      <trkpt lat="45.8169" lon="2.99744">
        <ele>925</ele>
        <time>2019-03-10T11:04:54Z</time>
      </trkpt>
      <trkpt lat="45.8169" lon="2.99748">
        <ele>925</ele>
        <time>2019-03-10T11:05:54Z</time>
      </trkpt>
      <trkpt lat="45.81694" lon="2.9978">
        <ele>924</ele>
        <time>2019-03-10T11:06:54Z</time>
      </trkpt>
      <trkpt lat="45.81695" lon="2.99792">
        <ele>924</ele>
        <time>2019-03-10T11:07:54Z</time>
      </trkpt>
      <trkpt lat="45.81683" lon="2.99808">
        <ele>926</ele>
        <time>2019-03-10T11:08:54Z</time>
      </trkpt>
      <trkpt lat="45.81678" lon="2.99816">
        <ele>926</ele>
        <time>2019-03-10T11:09:54Z</time>
      </trkpt>
      <trkpt lat="45.81673" lon="2.99826">
        <ele>926</ele>
        <time>2019-03-10T11:10:54Z</time>
      </trkpt>
      <trkpt lat="45.8167" lon="2.99838">
        <ele>927</ele>
        <time>2019-03-10T11:11:54Z</time>
      </trkpt>
      <trkpt lat="45.81664" lon="2.99848">
        <ele>927</ele>
        <time>2019-03-10T11:12:54Z</time>
      </trkpt>
      <trkpt lat="45.81647" lon="2.99874">
        <ele>929</ele>
        <time>2019-03-10T11:13:54Z</time>
      </trkpt>
      <trkpt lat="45.81642" lon="2.99882">
        <ele>929</ele>
        <time>2019-03-10T11:14:54Z</time>
      </trkpt>
      <trkpt lat="45.81635" lon="2.99891">
        <ele>929</ele>
        <time>2019-03-10T11:15:54Z</time>
      </trkpt>
      <trkpt lat="45.81629" lon="2.99898">
        <ele>930</ele>
        <time>2019-03-10T11:16:54Z</time>
      </trkpt>
      <trkpt lat="45.81613" lon="2.99922">
        <ele>930</ele>
        <time>2019-03-10T11:17:54Z</time>
      </trkpt>
      <trkpt lat="45.81606" lon="2.99931">
        <ele>930</ele>
        <time>2019-03-10T11:18:54Z</time>
      </trkpt>
      <trkpt lat="45.81584" lon="2.99971">
        <ele>929</ele>
        <time>2019-03-10T11:19:54Z</time>
      </trkpt>
      <trkpt lat="45.8158" lon="2.99979">
        <ele>929</ele>
        <time>2019-03-10T11:20:54Z</time>
      </trkpt>
      <trkpt lat="45.81571" lon="2.99994">
        <ele>929</ele>
        <time>2019-03-10T11:21:54Z</time>
      </trkpt>
      <trkpt lat="45.81566" lon="3.00002">
        <ele>930</ele>
        <time>2019-03-10T11:22:54Z</time>
      </trkpt>
      <trkpt lat="45.81535" lon="3.00035">
        <ele>933</ele>
        <time>2019-03-10T11:23:54Z</time>
      </trkpt>
      <trkpt lat="45.81528" lon="3.00041">
        <ele>933</ele>
        <time>2019-03-10T11:24:54Z</time>
      </trkpt>
      <trkpt lat="45.81517" lon="3.00057">
        <ele>934</ele>
        <time>2019-03-10T11:25:54Z</time>
      </trkpt>
      <trkpt lat="45.81512" lon="3.00067">
        <ele>934</ele>
        <time>2019-03-10T11:26:54Z</time>
      </trkpt>
      <trkpt lat="45.81506" lon="3.00084">
        <ele>934</ele>
        <time>2019-03-10T11:27:54Z</time>
      </trkpt>
      <trkpt lat="45.81504" lon="3.0009">
        <ele>934</ele>
        <time>2019-03-10T11:28:54Z</time>
      </trkpt>
      <trkpt lat="45.81503" lon="3.00096">
        <ele>933</ele>
        <time>2019-03-10T11:29:54Z</time>
      </trkpt>
      <trkpt lat="45.815" lon="3.00108">
        <ele>932</ele>
        <time>2019-03-10T11:30:54Z</time>
      </trkpt>
      <trkpt lat="45.81497" lon="3.00118">
        <ele>932</ele>
        <time>2019-03-10T11:31:54Z</time>
      </trkpt>
      <trkpt lat="45.81492" lon="3.0014">
        <ele>930</ele>
        <time>2019-03-10T11:32:54Z</time>
      </trkpt>
      <trkpt lat="45.81489" lon="3.00151">
        <ele>930</ele>
        <time>2019-03-10T11:33:54Z</time>
      </trkpt>
      <trkpt lat="45.81486" lon="3.00167">
        <ele>929</ele>
        <time>2019-03-10T11:34:54Z</time>
      </trkpt>
      <trkpt lat="45.81482" lon="3.00182">
        <ele>929</ele>
        <time>2019-03-10T11:35:54Z</time>
      </trkpt>
      <trkpt lat="45.81478" lon="3.00192">
        <ele>929</ele>
        <time>2019-03-10T11:36:54Z</time>
      </trkpt>
      <trkpt lat="45.81473" lon="3.00211">
        <ele>930</ele>
        <time>2019-03-10T11:37:54Z</time>
      </trkpt>
      <trkpt lat="45.8147" lon="3.0022">
        <ele>930</ele>
        <time>2019-03-10T11:38:54Z</time>
      </trkpt>
      <trkpt lat="45.81465" lon="3.00229">
        <ele>930</ele>
        <time>2019-03-10T11:39:54Z</time>
      </trkpt>
      <trkpt lat="45.81454" lon="3.00245">
        <ele>932</ele>
        <time>2019-03-10T11:40:54Z</time>
      </trkpt>
      <trkpt lat="45.81448" lon="3.00253">
        <ele>932</ele>
        <time>2019-03-10T11:41:54Z</time>
      </trkpt>
      <trkpt lat="45.81444" lon="3.00263">
        <ele>932</ele>
        <time>2019-03-10T11:42:54Z</time>
      </trkpt>
      <trkpt lat="45.8144" lon="3.00271">
        <ele>933</ele>
        <time>2019-03-10T11:43:54Z</time>
      </trkpt>
      <trkpt lat="45.81429" lon="3.00301">
        <ele>933</ele>
        <time>2019-03-10T11:44:54Z</time>
      </trkpt>
      <trkpt lat="45.81425" lon="3.00311">
        <ele>933</ele>
        <time>2019-03-10T11:45:54Z</time>
      </trkpt>
      <trkpt lat="45.81424" lon="3.00324">
        <ele>932</ele>
        <time>2019-03-10T11:46:54Z</time>
      </trkpt>
      <trkpt lat="45.81423" lon="3.00336">
        <ele>932</ele>
        <time>2019-03-10T11:47:54Z</time>
      </trkpt>
      <trkpt lat="45.81419" lon="3.00363">
        <ele>929</ele>
        <time>2019-03-10T11:48:54Z</time>
      </trkpt>
      <trkpt lat="45.81418" lon="3.00369">
        <ele>929</ele>
        <time>2019-03-10T11:49:54Z</time>
      </trkpt>
      <trkpt lat="45.81413" lon="3.0039">
        <ele>927</ele>
        <time>2019-03-10T11:50:54Z</time>
      </trkpt>
      <trkpt lat="45.81412" lon="3.00396">
        <ele>927</ele>
        <time>2019-03-10T11:51:54Z</time>
      </trkpt>
      <trkpt lat="45.81401" lon="3.00432">
        <ele>924</ele>
        <time>2019-03-10T11:52:54Z</time>
      </trkpt>
      <trkpt lat="45.81397" lon="3.00444">
        <ele>923</ele>
        <time>2019-03-10T11:53:54Z</time>
      </trkpt>
      <trkpt lat="45.81384" lon="3.00469">
        <ele>922</ele>
        <time>2019-03-10T11:54:54Z</time>
      </trkpt>
      <trkpt lat="45.8138" lon="3.00479">
        <ele>921</ele>
        <time>2019-03-10T11:55:54Z</time>
      </trkpt>
      <trkpt lat="45.81366" lon="3.00512">
        <ele>918</ele>
        <time>2019-03-10T11:56:54Z</time>
      </trkpt>
      <trkpt lat="45.81363" lon="3.00517">
        <ele>918</ele>
        <time>2019-03-10T11:57:54Z</time>
      </trkpt>
      <trkpt lat="45.81355" lon="3.00527">
        <ele>917</ele>
        <time>2019-03-10T11:58:54Z</time>
      </trkpt>
      <trkpt lat="45.8135" lon="3.00532">
        <ele>917</ele>
        <time>2019-03-10T11:59:54Z</time>
      </trkpt>
      <trkpt lat="45.81345" lon="3.00536">
        <ele>917</ele>
        <time>2019-03-10T12:00:54Z</time>
      </trkpt>
      <trkpt lat="45.81339" lon="3.0054">
        <ele>917</ele>
        <time>2019-03-10T12:01:54Z</time>
      </trkpt>
      <trkpt lat="45.81333" lon="3.00544">
        <ele>917</ele>
        <time>2019-03-10T12:02:54Z</time>
      </trkpt>
      <trkpt lat="45.81314" lon="3.0055">
        <ele>916</ele>
        <time>2019-03-10T12:03:54Z</time>
      </trkpt>
      <trkpt lat="45.81309" lon="3.00552">
        <ele>916</ele>
        <time>2019-03-10T12:04:54Z</time>
      </trkpt>
      <trkpt lat="45.81296" lon="3.00555">
        <ele>915</ele>
        <time>2019-03-10T12:05:54Z</time>
      </trkpt>
      <trkpt lat="45.81288" lon="3.00558">
        <ele>915</ele>
        <time>2019-03-10T12:06:54Z</time>
      </trkpt>
      <trkpt lat="45.81284" lon="3.0056">
        <ele>915</ele>
        <time>2019-03-10T12:07:54Z</time>
      </trkpt>
      <trkpt lat="45.81279" lon="3.00563">
        <ele>914</ele>
        <time>2019-03-10T12:08:54Z</time>
      </trkpt>
      <trkpt lat="45.81274" lon="3.00566">
        <ele>914</ele>
        <time>2019-03-10T12:09:54Z</time>
      </trkpt>
      <trkpt lat="45.81269" lon="3.00569">
        <ele>913</ele>
        <time>2019-03-10T12:10:54Z</time>
      </trkpt>
      <trkpt lat="45.81258" lon="3.00573">
        <ele>912</ele>
        <time>2019-03-10T12:11:54Z</time>
      </trkpt>
      <trkpt lat="45.81254" lon="3.00576">
        <ele>912</ele>
        <time>2019-03-10T12:12:54Z</time>
      </trkpt>
      <trkpt lat="45.81232" lon="3.0058">
        <ele>910</ele>
        <time>2019-03-10T12:13:54Z</time>
      </trkpt>
      <trkpt lat="45.81227" lon="3.00581">
        <ele>910</ele>
        <time>2019-03-10T12:14:54Z</time>
      </trkpt>
      <trkpt lat="45.81202" lon="3.0058">
        <ele>910</ele>
        <time>2019-03-10T12:15:54Z</time>
      </trkpt>
      <trkpt lat="45.81197" lon="3.00581">
        <ele>909</ele>
        <time>2019-03-10T12:16:54Z</time>
      </trkpt>
      <trkpt lat="45.81186" lon="3.00584">
        <ele>908</ele>
        <time>2019-03-10T12:17:54Z</time>
      </trkpt>
      <trkpt lat="45.81179" lon="3.00586">
        <ele>908</ele>
        <time>2019-03-10T12:18:54Z</time>
      </trkpt>
      <trkpt lat="45.81173" lon="3.00588">
        <ele>907</ele>
        <time>2019-03-10T12:19:54Z</time>
      </trkpt>
      <trkpt lat="45.81166" lon="3.0059">
        <ele>907</ele>
        <time>2019-03-10T12:20:54Z</time>
      </trkpt>
      <trkpt lat="45.8116" lon="3.00592">
        <ele>906</ele>
        <time>2019-03-10T12:21:54Z</time>
      </trkpt>
      <trkpt lat="45.81146" lon="3.00592">
        <ele>906</ele>
        <time>2019-03-10T12:22:54Z</time>
      </trkpt>
      <trkpt lat="45.81139" lon="3.00594">
        <ele>906</ele>
        <time>2019-03-10T12:23:54Z</time>
      </trkpt>
      <trkpt lat="45.81131" lon="3.00596">
        <ele>906</ele>
        <time>2019-03-10T12:24:54Z</time>
      </trkpt>
      <trkpt lat="45.81122" lon="3.006">
        <ele>905</ele>
        <time>2019-03-10T12:25:54Z</time>
      </trkpt>
      <trkpt lat="45.81118" lon="3.00603">
        <ele>904</ele>
        <time>2019-03-10T12:26:54Z</time>
      </trkpt>
      <trkpt lat="45.81114" lon="3.00607">
        <ele>904</ele>
        <time>2019-03-10T12:27:54Z</time>
      </trkpt>
      <trkpt lat="45.8111" lon="3.0061">
        <ele>903</ele>
        <time>2019-03-10T12:28:54Z</time>
      </trkpt>
      <trkpt lat="45.81099" lon="3.00625">
        <ele>901</ele>
        <time>2019-03-10T12:29:54Z</time>
      </trkpt>
      <trkpt lat="45.81096" lon="3.00631">
        <ele>900</ele>
        <time>2019-03-10T12:30:54Z</time>
      </trkpt>
      <trkpt lat="45.8109" lon="3.00644">
        <ele>898</ele>
        <time>2019-03-10T12:31:54Z</time>
      </trkpt>
      <trkpt lat="45.81087" lon="3.00651">
        <ele>897</ele>
        <time>2019-03-10T12:32:54Z</time>
      </trkpt>
      <trkpt lat="45.81074" lon="3.00689">
        <ele>893</ele>
        <time>2019-03-10T12:33:54Z</time>
      </trkpt>
      <trkpt lat="45.8107" lon="3.00696">
        <ele>893</ele>
        <time>2019-03-10T12:34:54Z</time>
      </trkpt>
      <trkpt lat="45.81067" lon="3.00704">
        <ele>892</ele>
        <time>2019-03-10T12:35:54Z</time>
      </trkpt>
      <trkpt lat="45.81058" lon="3.00717">
        <ele>891</ele>
        <time>2019-03-10T12:36:54Z</time>
      </trkpt>
      <trkpt lat="45.81053" lon="3.00723">
        <ele>891</ele>
        <time>2019-03-10T12:37:54Z</time>
      </trkpt>
      <trkpt lat="45.81048" lon="3.00729">
        <ele>890</ele>
        <time>2019-03-10T12:38:54Z</time>
      </trkpt>
      <trkpt lat="45.81025" lon="3.0075">
        <ele>889</ele>
        <time>2019-03-10T12:39:54Z</time>
      </trkpt>
      <trkpt lat="45.8102" lon="3.00755">
        <ele>889</ele>
        <time>2019-03-10T12:40:54Z</time>
      </trkpt>
      <trkpt lat="45.80996" lon="3.00774">
        <ele>888</ele>
        <time>2019-03-10T12:41:54Z</time>
      </trkpt>
      <trkpt lat="45.8099" lon="3.00779">
        <ele>888</ele>
        <time>2019-03-10T12:42:54Z</time>
      </trkpt>
      <trkpt lat="45.80937" lon="3.00824">
        <ele>882</ele>
        <time>2019-03-10T12:43:54Z</time>
      </trkpt>
      <trkpt lat="45.8093" lon="3.00828">
        <ele>882</ele>
        <time>2019-03-10T12:44:54Z</time>
      </trkpt>
      <trkpt lat="45.80924" lon="3.0083">
        <ele>882</ele>
        <time>2019-03-10T12:45:54Z</time>
      </trkpt>
      <trkpt lat="45.80917" lon="3.0083">
        <ele>882</ele>
        <time>2019-03-10T12:46:54Z</time>
      </trkpt>
      <trkpt lat="45.8091" lon="3.00829">
        <ele>881</ele>
        <time>2019-03-10T12:47:54Z</time>
      </trkpt>
      <trkpt lat="45.80904" lon="3.00827">
        <ele>882</ele>
        <time>2019-03-10T12:48:54Z</time>
      </trkpt>
      <trkpt lat="45.80898" lon="3.00824">
        <ele>882</ele>
        <time>2019-03-10T12:49:54Z</time>
      </trkpt>
      <trkpt lat="45.8088" lon="3.00812">
        <ele>883</ele>
        <time>2019-03-10T12:50:54Z</time>
      </trkpt>
      <trkpt lat="45.80874" lon="3.00808">
        <ele>883</ele>
        <time>2019-03-10T12:51:54Z</time>
      </trkpt>
      <trkpt lat="45.80827" lon="3.00772">
        <ele>885</ele>
        <time>2019-03-10T12:52:54Z</time>
      </trkpt>
      <trkpt lat="45.80802" lon="3.00753">
        <ele>885</ele>
        <time>2019-03-10T12:53:54Z</time>
      </trkpt>
      <trkpt lat="45.80775" lon="3.00739">
        <ele>886</ele>
        <time>2019-03-10T12:54:54Z</time>
      </trkpt>
      <trkpt lat="45.80765" lon="3.00736">
        <ele>885</ele>
        <time>2019-03-10T12:55:54Z</time>
      </trkpt>
      <trkpt lat="45.80747" lon="3.00734">
        <ele>885</ele>
        <time>2019-03-10T12:56:54Z</time>
      </trkpt>
      <trkpt lat="45.80741" lon="3.00742">
        <ele>884</ele>
        <time>2019-03-10T12:57:54Z</time>
      </trkpt>
      <trkpt lat="45.80726" lon="3.00757">
        <ele>883</ele>
        <time>2019-03-10T12:58:54Z</time>
      </trkpt>
      <trkpt lat="45.80715" lon="3.00774">
        <ele>883</ele>
        <time>2019-03-10T12:59:54Z</time>
      </trkpt>
      <trkpt lat="45.80705" lon="3.00814">
        <ele>883</ele>
        <time>2019-03-10T13:00:54Z</time>
      </trkpt>
      <trkpt lat="45.80698" lon="3.00828">
        <ele>883</ele>
        <time>2019-03-10T13:01:54Z</time>
      </trkpt>
      <trkpt lat="45.80686" lon="3.00825">
        <ele>884</ele>
        <time>2019-03-10T13:02:54Z</time>
      </trkpt>
      <trkpt lat="45.80679" lon="3.00831">
        <ele>885</ele>
        <time>2019-03-10T13:03:54Z</time>
      </trkpt>
      <trkpt lat="45.80679" lon="3.00841">
        <ele>885</ele>
        <time>2019-03-10T13:04:54Z</time>
      </trkpt>
      <trkpt lat="45.8068" lon="3.00851">
        <ele>886</ele>
        <time>2019-03-10T13:05:54Z</time>
      </trkpt>
      <trkpt lat="45.80683" lon="3.00863">
        <ele>886</ele>
        <time>2019-03-10T13:06:54Z</time>
      </trkpt>
      <trkpt lat="45.80688" lon="3.00871">
        <ele>885</ele>
        <time>2019-03-10T13:07:54Z</time>
      </trkpt>
      <trkpt lat="45.80691" lon="3.00881">
        <ele>885</ele>
        <time>2019-03-10T13:08:54Z</time>
      </trkpt>
      <trkpt lat="45.80689" lon="3.00891">
        <ele>886</ele>
        <time>2019-03-10T13:09:54Z</time>
      </trkpt>
      <trkpt lat="45.80685" lon="3.00901">
        <ele>887</ele>
        <time>2019-03-10T13:10:54Z</time>
      </trkpt>
      <trkpt lat="45.80687" lon="3.00912">
        <ele>887</ele>
        <time>2019-03-10T13:11:54Z</time>
      </trkpt>
      <trkpt lat="45.80693" lon="3.00933">
        <ele>886</ele>
        <time>2019-03-10T13:12:54Z</time>
      </trkpt>
      <trkpt lat="45.80696" lon="3.00944">
        <ele>886</ele>
        <time>2019-03-10T13:13:54Z</time>
      </trkpt>
      <trkpt lat="45.80698" lon="3.00956">
        <ele>885</ele>
        <time>2019-03-10T13:14:54Z</time>
      </trkpt>
      <trkpt lat="45.80699" lon="3.00969">
        <ele>885</ele>
        <time>2019-03-10T13:15:54Z</time>
      </trkpt>
      <trkpt lat="45.807" lon="3.00981">
        <ele>885</ele>
        <time>2019-03-10T13:16:54Z</time>
      </trkpt>
      <trkpt lat="45.807" lon="3.00992">
        <ele>885</ele>
        <time>2019-03-10T13:17:54Z</time>
      </trkpt>
      <trkpt lat="45.807" lon="3.01003">
        <ele>885</ele>
        <time>2019-03-10T13:18:54Z</time>
      </trkpt>
      <trkpt lat="45.80696" lon="3.01014">
        <ele>885</ele>
        <time>2019-03-10T13:19:54Z</time>
      </trkpt>
      <trkpt lat="45.80691" lon="3.01022">
        <ele>886</ele>
        <time>2019-03-10T13:20:54Z</time>
      </trkpt>
      <trkpt lat="45.80683" lon="3.01027">
        <ele>887</ele>
        <time>2019-03-10T13:21:54Z</time>
      </trkpt>
      <trkpt lat="45.80675" lon="3.01024">
        <ele>889</ele>
        <time>2019-03-10T13:22:54Z</time>
      </trkpt>
      <trkpt lat="45.80669" lon="3.01017">
        <ele>890</ele>
        <time>2019-03-10T13:23:54Z</time>
      </trkpt>
      <trkpt lat="45.80662" lon="3.01007">
        <ele>892</ele>
        <time>2019-03-10T13:24:54Z</time>
      </trkpt>
      <trkpt lat="45.80656" lon="3.00985">
        <ele>894</ele>
        <time>2019-03-10T13:25:54Z</time>
      </trkpt>
      <trkpt lat="45.8065" lon="3.00977">
        <ele>895</ele>
        <time>2019-03-10T13:26:54Z</time>
      </trkpt>
      <trkpt lat="45.80636" lon="3.00962">
        <ele>898</ele>
        <time>2019-03-10T13:27:54Z</time>
      </trkpt>
      <trkpt lat="45.80629" lon="3.00956">
        <ele>899</ele>
        <time>2019-03-10T13:28:54Z</time>
      </trkpt>
      <trkpt lat="45.80622" lon="3.00959">
        <ele>901</ele>
        <time>2019-03-10T13:29:54Z</time>
      </trkpt>
      <trkpt lat="45.80615" lon="3.00964">
        <ele>902</ele>
        <time>2019-03-10T13:30:54Z</time>
      </trkpt>
      <trkpt lat="45.80607" lon="3.00961">
        <ele>904</ele>
        <time>2019-03-10T13:31:54Z</time>
      </trkpt>
      <trkpt lat="45.806" lon="3.00955">
        <ele>905</ele>
        <time>2019-03-10T13:32:54Z</time>
      </trkpt>
      <trkpt lat="45.80599" lon="3.00954">
        <ele>905</ele>
        <time>2019-03-10T13:33:54Z</time>
      </trkpt>
      <trkpt lat="45.80583" lon="3.00956">
        <ele>909</ele>
        <time>2019-03-10T13:34:54Z</time>
      </trkpt>
      <trkpt lat="45.80576" lon="3.0096">
        <ele>910</ele>
        <time>2019-03-10T13:35:54Z</time>
      </trkpt>
      <trkpt lat="45.80568" lon="3.00964">
        <ele>911</ele>
        <time>2019-03-10T13:36:54Z</time>
      </trkpt>
      <trkpt lat="45.80553" lon="3.00971">
        <ele>913</ele>
        <time>2019-03-10T13:37:54Z</time>
      </trkpt>
      <trkpt lat="45.80545" lon="3.00973">
        <ele>915</ele>
        <time>2019-03-10T13:38:54Z</time>
      </trkpt>
      <trkpt lat="45.80521" lon="3.00986">
        <ele>918</ele>
        <time>2019-03-10T13:39:54Z</time>
      </trkpt>
      <trkpt lat="45.80513" lon="3.00992">
        <ele>919</ele>
        <time>2019-03-10T13:40:54Z</time>
      </trkpt>
      <trkpt lat="45.80507" lon="3.00998">
        <ele>920</ele>
        <time>2019-03-10T13:41:54Z</time>
      </trkpt>
      <trkpt lat="45.80495" lon="3.01017">
        <ele>921</ele>
        <time>2019-03-10T13:42:54Z</time>
      </trkpt>
      <trkpt lat="45.80485" lon="3.01032">
        <ele>921</ele>
        <time>2019-03-10T13:43:54Z</time>
      </trkpt>
      <trkpt lat="45.80473" lon="3.01046">
        <ele>921</ele>
        <time>2019-03-10T13:44:54Z</time>
      </trkpt>
      <trkpt lat="45.80467" lon="3.01054">
        <ele>920</ele>
        <time>2019-03-10T13:45:54Z</time>
      </trkpt>
      <trkpt lat="45.8046" lon="3.01061">
        <ele>920</ele>
        <time>2019-03-10T13:46:54Z</time>
      </trkpt>
      <trkpt lat="45.80452" lon="3.01067">
        <ele>920</ele>
        <time>2019-03-10T13:47:54Z</time>
      </trkpt>
      <trkpt lat="45.80446" lon="3.01071">
        <ele>920</ele>
        <time>2019-03-10T13:48:54Z</time>
      </trkpt>
      <trkpt lat="45.80439" lon="3.01074">
        <ele>920</ele>
        <time>2019-03-10T13:49:54Z</time>
      </trkpt>
      <trkpt lat="45.80432" lon="3.01076">
        <ele>920</ele>
        <time>2019-03-10T13:50:54Z</time>
      </trkpt>
      <trkpt lat="45.80424" lon="3.01077">
        <ele>921</ele>
        <time>2019-03-10T13:51:54Z</time>
      </trkpt>
      <trkpt lat="45.80416" lon="3.01078">
        <ele>921</ele>
        <time>2019-03-10T13:52:54Z</time>
      </trkpt>
      <trkpt lat="45.80408" lon="3.01078">
        <ele>920</ele>
        <time>2019-03-10T13:53:54Z</time>
      </trkpt>
      <trkpt lat="45.804" lon="3.01077">
        <ele>920</ele>
        <time>2019-03-10T13:54:54Z</time>
      </trkpt>
      <trkpt lat="45.80355" lon="3.01062">
        <ele>919</ele>
        <time>2019-03-10T13:55:54Z</time>
      </trkpt>
      <trkpt lat="45.80347" lon="3.01059">
        <ele>918</ele>
        <time>2019-03-10T13:56:54Z</time>
      </trkpt>
      <trkpt lat="45.80308" lon="3.01038">
        <ele>921</ele>
        <time>2019-03-10T13:57:54Z</time>
      </trkpt>
      <trkpt lat="45.80303" lon="3.01036">
        <ele>921</ele>
        <time>2019-03-10T13:58:54Z</time>
      </trkpt>
      <trkpt lat="45.80283" lon="3.01033">
        <ele>921</ele>
        <time>2019-03-10T13:59:54Z</time>
      </trkpt>
      <trkpt lat="45.80278" lon="3.01033">
        <ele>921</ele>
        <time>2019-03-10T14:00:54Z</time>
      </trkpt>
      <trkpt lat="45.80267" lon="3.01035">
        <ele>921</ele>
        <time>2019-03-10T14:01:54Z</time>
      </trkpt>
      <trkpt lat="45.80262" lon="3.01037">
        <ele>920</ele>
        <time>2019-03-10T14:02:54Z</time>
      </trkpt>
      <trkpt lat="45.80257" lon="3.01039">
        <ele>920</ele>
        <time>2019-03-10T14:03:54Z</time>
      </trkpt>
      <trkpt lat="45.80222" lon="3.0106">
        <ele>918</ele>
        <time>2019-03-10T14:04:54Z</time>
      </trkpt>
      <trkpt lat="45.80214" lon="3.01064">
        <ele>918</ele>
        <time>2019-03-10T14:05:54Z</time>
      </trkpt>
      <trkpt lat="45.80188" lon="3.01076">
        <ele>918</ele>
        <time>2019-03-10T14:06:54Z</time>
      </trkpt>
      <trkpt lat="45.80183" lon="3.01078">
        <ele>918</ele>
        <time>2019-03-10T14:07:54Z</time>
      </trkpt>
      <trkpt lat="45.80178" lon="3.01079">
        <ele>918</ele>
        <time>2019-03-10T14:08:54Z</time>
      </trkpt>
      <trkpt lat="45.80174" lon="3.01081">
        <ele>918</ele>
        <time>2019-03-10T14:09:54Z</time>
      </trkpt>
      <trkpt lat="45.80152" lon="3.01089">
        <ele>917</ele>
        <time>2019-03-10T14:10:54Z</time>
      </trkpt>
      <trkpt lat="45.80143" lon="3.01092">
        <ele>916</ele>
        <time>2019-03-10T14:11:54Z</time>
      </trkpt>
      <trkpt lat="45.80134" lon="3.01093">
        <ele>916</ele>
        <time>2019-03-10T14:12:54Z</time>
      </trkpt>
      <trkpt lat="45.80117" lon="3.01093">
        <ele>915</ele>
        <time>2019-03-10T14:13:54Z</time>
      </trkpt>
      <trkpt lat="45.80109" lon="3.01094">
        <ele>915</ele>
        <time>2019-03-10T14:14:54Z</time>
      </trkpt>
      <trkpt lat="45.80077" lon="3.01101">
        <ele>914</ele>
        <time>2019-03-10T14:15:54Z</time>
      </trkpt>
      <trkpt lat="45.80069" lon="3.01103">
        <ele>914</ele>
        <time>2019-03-10T14:16:54Z</time>
      </trkpt>
      <trkpt lat="45.80038" lon="3.01106">
        <ele>914</ele>
        <time>2019-03-10T14:17:54Z</time>
      </trkpt>
      <trkpt lat="45.80033" lon="3.01106">
        <ele>915</ele>
        <time>2019-03-10T14:18:54Z</time>
      </trkpt>
      <trkpt lat="45.80006" lon="3.01106">
        <ele>915</ele>
        <time>2019-03-10T14:19:54Z</time>
      </trkpt>
      <trkpt lat="45.79998" lon="3.01106">
        <ele>916</ele>
        <time>2019-03-10T14:20:54Z</time>
      </trkpt>
      <trkpt lat="45.79974" lon="3.01104">
        <ele>915</ele>
        <time>2019-03-10T14:21:54Z</time>
      </trkpt>
      <trkpt lat="45.79967" lon="3.01103">
        <ele>914</ele>
        <time>2019-03-10T14:22:54Z</time>
      </trkpt>
      <trkpt lat="45.79959" lon="3.01101">
        <ele>914</ele>
        <time>2019-03-10T14:23:54Z</time>
      </trkpt>
      <trkpt lat="45.79951" lon="3.01099">
        <ele>914</ele>
        <time>2019-03-10T14:24:54Z</time>
      </trkpt>
      <trkpt lat="45.79943" lon="3.01095">
        <ele>914</ele>
        <time>2019-03-10T14:25:54Z</time>
      </trkpt>
      <trkpt lat="45.79935" lon="3.01092">
        <ele>913</ele>
        <time>2019-03-10T14:26:54Z</time>
      </trkpt>
      <trkpt lat="45.7993" lon="3.01089">
        <ele>913</ele>
        <time>2019-03-10T14:27:54Z</time>
      </trkpt>
      <trkpt lat="45.79926" lon="3.01086">
        <ele>913</ele>
        <time>2019-03-10T14:28:54Z</time>
      </trkpt>
      <trkpt lat="45.79892" lon="3.01067">
        <ele>910</ele>
        <time>2019-03-10T14:29:54Z</time>
      </trkpt>
      <trkpt lat="45.79887" lon="3.01064">
        <ele>909</ele>
        <time>2019-03-10T14:30:54Z</time>
      </trkpt>
      <trkpt lat="45.79865" lon="3.01048">
        <ele>907</ele>
        <time>2019-03-10T14:31:54Z</time>
      </trkpt>
      <trkpt lat="45.79859" lon="3.01044">
        <ele>906</ele>
        <time>2019-03-10T14:32:54Z</time>
      </trkpt>
      <trkpt lat="45.79836" lon="3.01026">
        <ele>903</ele>
        <time>2019-03-10T14:33:54Z</time>
      </trkpt>
      <trkpt lat="45.79831" lon="3.01021">
        <ele>903</ele>
        <time>2019-03-10T14:34:54Z</time>
      </trkpt>
      <trkpt lat="45.79801" lon="3.00999">
        <ele>902</ele>
        <time>2019-03-10T14:35:54Z</time>
      </trkpt>
      <trkpt lat="45.79795" lon="3.00994">
        <ele>902</ele>
        <time>2019-03-10T14:36:54Z</time>
      </trkpt>
      <trkpt lat="45.79786" lon="3.00985">
        <ele>902</ele>
        <time>2019-03-10T14:37:54Z</time>
      </trkpt>
      <trkpt lat="45.79781" lon="3.00982">
        <ele>902</ele>
        <time>2019-03-10T14:38:54Z</time>
      </trkpt>
      <trkpt lat="45.79763" lon="3.00971">
        <ele>901</ele>
        <time>2019-03-10T14:39:54Z</time>
      </trkpt>
      <trkpt lat="45.79759" lon="3.00968">
        <ele>901</ele>
        <time>2019-03-10T14:40:54Z</time>
      </trkpt>
      <trkpt lat="45.79754" lon="3.00965">
        <ele>900</ele>
        <time>2019-03-10T14:41:54Z</time>
      </trkpt>
      <trkpt lat="45.79747" lon="3.00959">
        <ele>900</ele>
        <time>2019-03-10T14:42:54Z</time>
      </trkpt>
      <trkpt lat="45.79737" lon="3.00946">
        <ele>899</ele>
        <time>2019-03-10T14:43:54Z</time>
      </trkpt>
      <trkpt lat="45.79732" lon="3.00941">
        <ele>898</ele>
        <time>2019-03-10T14:44:54Z</time>
      </trkpt>
      <trkpt lat="45.79683" lon="3.00901">
        <ele>895</ele>
        <time>2019-03-10T14:45:54Z</time>
      </trkpt>
      <trkpt lat="45.79678" lon="3.00897">
        <ele>895</ele>
        <time>2019-03-10T14:46:54Z</time>
      </trkpt>
      <trkpt lat="45.79669" lon="3.00887">
        <ele>894</ele>
        <time>2019-03-10T14:47:54Z</time>
      </trkpt>
      <trkpt lat="45.79664" lon="3.00881">
        <ele>894</ele>
        <time>2019-03-10T14:48:54Z</time>
      </trkpt>
      <trkpt lat="45.79658" lon="3.00875">
        <ele>894</ele>
        <time>2019-03-10T14:49:54Z</time>
      </trkpt>
      <trkpt lat="45.79653" lon="3.00871">
        <ele>894</ele>
        <time>2019-03-10T14:50:54Z</time>
      </trkpt>
      <trkpt lat="45.79648" lon="3.00867">
        <ele>894</ele>
        <time>2019-03-10T14:51:54Z</time>
      </trkpt>
      <trkpt lat="45.79644" lon="3.00863">
        <ele>893</ele>
        <time>2019-03-10T14:52:54Z</time>
      </trkpt>
      <trkpt lat="45.79631" lon="3.00854">
        <ele>894</ele>
        <time>2019-03-10T14:53:54Z</time>
      </trkpt>
      <trkpt lat="45.79624" lon="3.00849">
        <ele>894</ele>
        <time>2019-03-10T14:54:54Z</time>
      </trkpt>
      <trkpt lat="45.79616" lon="3.00845">
        <ele>894</ele>
        <time>2019-03-10T14:55:54Z</time>
      </trkpt>
      <trkpt lat="45.79609" lon="3.00844">
        <ele>894</ele>
        <time>2019-03-10T14:56:54Z</time>
      </trkpt>
      <trkpt lat="45.79602" lon="3.00845">
        <ele>894</ele>
        <time>2019-03-10T14:57:54Z</time>
      </trkpt>
      <trkpt lat="45.79586" lon="3.00849">
        <ele>894</ele>
        <time>2019-03-10T14:58:54Z</time>
      </trkpt>
      <trkpt lat="45.7958" lon="3.00851">
        <ele>893</ele>
        <time>2019-03-10T14:59:54Z</time>
      </trkpt>
      <trkpt lat="45.79565" lon="3.00857">
        <ele>893</ele>
        <time>2019-03-10T15:00:54Z</time>
      </trkpt>
      <trkpt lat="45.7956" lon="3.0086">
        <ele>893</ele>
        <time>2019-03-10T15:01:54Z</time>
      </trkpt>
      <trkpt lat="45.79539" lon="3.00867">
        <ele>893</ele>
        <time>2019-03-10T15:02:54Z</time>
      </trkpt>
      <trkpt lat="45.79535" lon="3.00869">
        <ele>893</ele>
        <time>2019-03-10T15:03:54Z</time>
      </trkpt>
      <trkpt lat="45.79524" lon="3.00872">
        <ele>892</ele>
        <time>2019-03-10T15:04:54Z</time>
      </trkpt>
      <trkpt lat="45.79518" lon="3.00872">
        <ele>893</ele>
        <time>2019-03-10T15:05:54Z</time>
      </trkpt>
      <trkpt lat="45.79507" lon="3.0087">
        <ele>893</ele>
        <time>2019-03-10T15:06:54Z</time>
      </trkpt>
      <trkpt lat="45.79502" lon="3.00869">
        <ele>893</ele>
        <time>2019-03-10T15:07:54Z</time>
      </trkpt>
      <trkpt lat="45.7946" lon="3.00854">
        <ele>893</ele>
        <time>2019-03-10T15:08:54Z</time>
      </trkpt>
      <trkpt lat="45.79452" lon="3.0085">
        <ele>893</ele>
        <time>2019-03-10T15:09:54Z</time>
      </trkpt>
      <trkpt lat="45.79429" lon="3.00847">
        <ele>891</ele>
        <time>2019-03-10T15:10:54Z</time>
      </trkpt>
      <trkpt lat="45.79423" lon="3.00846">
        <ele>891</ele>
        <time>2019-03-10T15:11:54Z</time>
      </trkpt>
      <trkpt lat="45.794" lon="3.00842">
        <ele>889</ele>
        <time>2019-03-10T15:12:54Z</time>
      </trkpt>
      <trkpt lat="45.79394" lon="3.00841">
        <ele>889</ele>
        <time>2019-03-10T15:13:54Z</time>
      </trkpt>
      <trkpt lat="45.79384" lon="3.0084">
        <ele>888</ele>
        <time>2019-03-10T15:14:54Z</time>
      </trkpt>
      <trkpt lat="45.79378" lon="3.00841">
        <ele>887</ele>
        <time>2019-03-10T15:15:54Z</time>
      </trkpt>
      <trkpt lat="45.79373" lon="3.00841">
        <ele>887</ele>
        <time>2019-03-10T15:16:54Z</time>
      </trkpt>
      <trkpt lat="45.79367" lon="3.00843">
        <ele>886</ele>
        <time>2019-03-10T15:17:54Z</time>
      </trkpt>
      <trkpt lat="45.79362" lon="3.00844">
        <ele>886</ele>
        <time>2019-03-10T15:18:54Z</time>
      </trkpt>
      <trkpt lat="45.79356" lon="3.00845">
        <ele>885</ele>
        <time>2019-03-10T15:19:54Z</time>
      </trkpt>
      <trkpt lat="45.79349" lon="3.00844">
        <ele>884</ele>
        <time>2019-03-10T15:20:54Z</time>
      </trkpt>
      <trkpt lat="45.7933" lon="3.00834">
        <ele>884</ele>
        <time>2019-03-10T15:21:54Z</time>
      </trkpt>
      <trkpt lat="45.79324" lon="3.00831">
        <ele>883</ele>
        <time>2019-03-10T15:22:54Z</time>
      </trkpt>
      <trkpt lat="45.793" lon="3.00815">
        <ele>882</ele>
        <time>2019-03-10T15:23:54Z</time>
      </trkpt>
      <trkpt lat="45.79295" lon="3.00811">
        <ele>882</ele>
        <time>2019-03-10T15:24:54Z</time>
      </trkpt>
      <trkpt lat="45.79269" lon="3.00783">
        <ele>881</ele>
        <time>2019-03-10T15:25:54Z</time>
      </trkpt>
      <trkpt lat="45.79264" lon="3.00778">
        <ele>881</ele>
        <time>2019-03-10T15:26:54Z</time>
      </trkpt>
      <trkpt lat="45.79246" lon="3.00752">
        <ele>880</ele>
        <time>2019-03-10T15:27:54Z</time>
      </trkpt>
      <trkpt lat="45.79243" lon="3.00747">
        <ele>880</ele>
        <time>2019-03-10T15:28:54Z</time>
      </trkpt>
      <trkpt lat="45.79224" lon="3.00729">
        <ele>879</ele>
        <time>2019-03-10T15:29:54Z</time>
      </trkpt>
      <trkpt lat="45.79219" lon="3.00723">
        <ele>879</ele>
        <time>2019-03-10T15:30:54Z</time>
      </trkpt>
      <trkpt lat="45.79213" lon="3.00717">
        <ele>879</ele>
        <time>2019-03-10T15:31:54Z</time>
      </trkpt>
      <trkpt lat="45.79208" lon="3.00711">
        <ele>878</ele>
        <time>2019-03-10T15:32:54Z</time>
      </trkpt>
      <trkpt lat="45.79202" lon="3.00705">
        <ele>878</ele>
        <time>2019-03-10T15:33:54Z</time>
      </trkpt>
      <trkpt lat="45.79196" lon="3.00699">
        <ele>877</ele>
        <time>2019-03-10T15:34:54Z</time>
      </trkpt>
      <trkpt lat="45.79187" lon="3.00688">
        <ele>876</ele>
        <time>2019-03-10T15:35:54Z</time>
      </trkpt>
      <trkpt lat="45.79182" lon="3.00682">
        <ele>876</ele>
        <time>2019-03-10T15:36:54Z</time>
      </trkpt>
      <trkpt lat="45.7917" lon="3.00675">
        <ele>874</ele>
        <time>2019-03-10T15:37:54Z</time>
      </trkpt>
      <trkpt lat="45.79164" lon="3.00671">
        <ele>874</ele>
        <time>2019-03-10T15:38:54Z</time>
      </trkpt>
      <trkpt lat="45.79146" lon="3.0066">
        <ele>872</ele>
        <time>2019-03-10T15:39:54Z</time>
      </trkpt>
      <trkpt lat="45.7914" lon="3.00657">
        <ele>872</ele>
        <time>2019-03-10T15:40:54Z</time>
      </trkpt>
      <trkpt lat="45.79132" lon="3.00658">
        <ele>871</ele>
        <time>2019-03-10T15:41:54Z</time>
      </trkpt>
      <trkpt lat="45.79127" lon="3.00665">
        <ele>870</ele>
        <time>2019-03-10T15:42:54Z</time>
      </trkpt>
      <trkpt lat="45.79125" lon="3.00676">
        <ele>870</ele>
        <time>2019-03-10T15:43:54Z</time>
      </trkpt>
      <trkpt lat="45.79124" lon="3.00682">
        <ele>869</ele>
        <time>2019-03-10T15:44:54Z</time>
      </trkpt>
      <trkpt lat="45.7911" lon="3.00745">
        <ele>866</ele>
        <time>2019-03-10T15:45:54Z</time>
      </trkpt>
      <trkpt lat="45.79108" lon="3.00755">
        <ele>865</ele>
        <time>2019-03-10T15:46:54Z</time>
      </trkpt>
      <trkpt lat="45.791" lon="3.00799">
        <ele>865</ele>
        <time>2019-03-10T15:47:54Z</time>
      </trkpt>
      <trkpt lat="45.79098" lon="3.0081">
        <ele>865</ele>
        <time>2019-03-10T15:48:54Z</time>
      </trkpt>
      <trkpt lat="45.79093" lon="3.00831">
        <ele>865</ele>
        <time>2019-03-10T15:49:54Z</time>
      </trkpt>
      <trkpt lat="45.79091" lon="3.00841">
        <ele>865</ele>
        <time>2019-03-10T15:50:54Z</time>
      </trkpt>
      <trkpt lat="45.79086" lon="3.00872">
        <ele>865</ele>
        <time>2019-03-10T15:51:54Z</time>
      </trkpt>
      <trkpt lat="45.79085" lon="3.00882">
        <ele>865</ele>
        <time>2019-03-10T15:52:54Z</time>
      </trkpt>
      <trkpt lat="45.79078" lon="3.00921">
        <ele>865</ele>
        <time>2019-03-10T15:53:54Z</time>
      </trkpt>
      <trkpt lat="45.79076" lon="3.00934">
        <ele>864</ele>
        <time>2019-03-10T15:54:54Z</time>
      </trkpt>
      <trkpt lat="45.79074" lon="3.00958">
        <ele>862</ele>
        <time>2019-03-10T15:55:54Z</time>
      </trkpt>
      <trkpt lat="45.79074" lon="3.00971">
        <ele>861</ele>
        <time>2019-03-10T15:56:54Z</time>
      </trkpt>
      <trkpt lat="45.79074" lon="3.00981">
        <ele>861</ele>
        <time>2019-03-10T15:57:54Z</time>
      </trkpt>
      <trkpt lat="45.79075" lon="3.00993">
        <ele>860</ele>
        <time>2019-03-10T15:58:54Z</time>
      </trkpt>
      <trkpt lat="45.7908" lon="3.01045">
        <ele>856</ele>
        <time>2019-03-10T15:59:54Z</time>
      </trkpt>
      <trkpt lat="45.7908" lon="3.01054">
        <ele>855</ele>
        <time>2019-03-10T16:00:54Z</time>
      </trkpt>
      <trkpt lat="45.79081" lon="3.01094">
        <ele>852</ele>
        <time>2019-03-10T16:01:54Z</time>
      </trkpt>
      <trkpt lat="45.79081" lon="3.01106">
        <ele>850</ele>
        <time>2019-03-10T16:02:54Z</time>
      </trkpt>
      <trkpt lat="45.79085" lon="3.01123">
        <ele>849</ele>
        <time>2019-03-10T16:03:54Z</time>
      </trkpt>
      <trkpt lat="45.79086" lon="3.0113">
        <ele>848</ele>
        <time>2019-03-10T16:04:54Z</time>
      </trkpt>
      <trkpt lat="45.79091" lon="3.01144">
        <ele>847</ele>
        <time>2019-03-10T16:05:54Z</time>
      </trkpt>
      <trkpt lat="45.79093" lon="3.01152">
        <ele>846</ele>
        <time>2019-03-10T16:06:54Z</time>
      </trkpt>
      <trkpt lat="45.79098" lon="3.01187">
        <ele>842</ele>
        <time>2019-03-10T16:07:54Z</time>
      </trkpt>
      <trkpt lat="45.791" lon="3.01195">
        <ele>841</ele>
        <time>2019-03-10T16:08:54Z</time>
      </trkpt>
      <trkpt lat="45.79106" lon="3.01213">
        <ele>839</ele>
        <time>2019-03-10T16:09:54Z</time>
      </trkpt>
      <trkpt lat="45.79109" lon="3.01223">
        <ele>838</ele>
        <time>2019-03-10T16:10:54Z</time>
      </trkpt>
      <trkpt lat="45.79114" lon="3.01243">
        <ele>835</ele>
        <time>2019-03-10T16:11:54Z</time>
      </trkpt>
      <trkpt lat="45.79116" lon="3.01254">
        <ele>834</ele>
        <time>2019-03-10T16:12:54Z</time>
      </trkpt>
      <trkpt lat="45.79118" lon="3.01265">
        <ele>833</ele>
        <time>2019-03-10T16:13:54Z</time>
      </trkpt>
      <trkpt lat="45.79119" lon="3.01275">
        <ele>832</ele>
        <time>2019-03-10T16:14:54Z</time>
      </trkpt>
      <trkpt lat="45.79124" lon="3.01319">
        <ele>828</ele>
        <time>2019-03-10T16:15:54Z</time>
      </trkpt>
      <trkpt lat="45.79125" lon="3.01331">
        <ele>826</ele>
        <time>2019-03-10T16:16:54Z</time>
      </trkpt>
      <trkpt lat="45.79124" lon="3.01337">
        <ele>826</ele>
        <time>2019-03-10T16:17:54Z</time>
      </trkpt>
      <trkpt lat="45.79118" lon="3.01347">
        <ele>825</ele>
        <time>2019-03-10T16:18:54Z</time>
      </trkpt>
      <trkpt lat="45.79102" lon="3.01359">
        <ele>823</ele>
        <time>2019-03-10T16:19:54Z</time>
      </trkpt>
      <trkpt lat="45.79098" lon="3.01363">
        <ele>823</ele>
        <time>2019-03-10T16:20:54Z</time>
      </trkpt>
      <trkpt lat="45.79087" lon="3.01375">
        <ele>822</ele>
        <time>2019-03-10T16:21:54Z</time>
      </trkpt>
      <trkpt lat="45.7908" lon="3.01383">
        <ele>822</ele>
        <time>2019-03-10T16:22:54Z</time>
      </trkpt>
      <trkpt lat="45.79074" lon="3.01391">
        <ele>822</ele>
        <time>2019-03-10T16:23:54Z</time>
      </trkpt>
      <trkpt lat="45.79067" lon="3.01399">
        <ele>822</ele>
        <time>2019-03-10T16:24:54Z</time>
      </trkpt>
      <trkpt lat="45.79061" lon="3.01408">
        <ele>822</ele>
        <time>2019-03-10T16:25:54Z</time>
      </trkpt>
      <trkpt lat="45.79054" lon="3.01416">
        <ele>822</ele>
        <time>2019-03-10T16:26:54Z</time>
      </trkpt>
      <trkpt lat="45.79041" lon="3.01435">
        <ele>822</ele>
        <time>2019-03-10T16:27:54Z</time>
      </trkpt>
      <trkpt lat="45.79038" lon="3.01439">
        <ele>822</ele>
        <time>2019-03-10T16:28:54Z</time>
      </trkpt>
      <trkpt lat="45.79031" lon="3.0145">
        <ele>823</ele>
        <time>2019-03-10T16:29:54Z</time>
      </trkpt>
      <trkpt lat="45.79029" lon="3.01456">
        <ele>823</ele>
        <time>2019-03-10T16:30:54Z</time>
      </trkpt>
      <trkpt lat="45.79028" lon="3.01463">
        <ele>822</ele>
        <time>2019-03-10T16:31:54Z</time>
      </trkpt>
      <trkpt lat="45.79027" lon="3.0148">
        <ele>822</ele>
        <time>2019-03-10T16:32:54Z</time>
      </trkpt>
      <trkpt lat="45.79027" lon="3.0149">
        <ele>821</ele>
        <time>2019-03-10T16:33:54Z</time>
      </trkpt>
      <trkpt lat="45.79029" lon="3.01513">
        <ele>819</ele>
        <time>2019-03-10T16:34:54Z</time>
      </trkpt>
      <trkpt lat="45.7903" lon="3.01525">
        <ele>819</ele>
        <time>2019-03-10T16:35:54Z</time>
      </trkpt>
      <trkpt lat="45.79029" lon="3.0155">
        <ele>817</ele>
        <time>2019-03-10T16:36:54Z</time>
      </trkpt>
      <trkpt lat="45.79029" lon="3.01561">
        <ele>817</ele>
        <time>2019-03-10T16:37:54Z</time>
      </trkpt>
      <trkpt lat="45.79031" lon="3.01571">
        <ele>816</ele>
        <time>2019-03-10T16:38:54Z</time>
      </trkpt>
      <trkpt lat="45.79033" lon="3.0158">
        <ele>815</ele>
        <time>2019-03-10T16:39:54Z</time>
      </trkpt>
      <trkpt lat="45.79045" lon="3.01623">
        <ele>810</ele>
        <time>2019-03-10T16:40:54Z</time>
      </trkpt>
      <trkpt lat="45.79047" lon="3.01633">
        <ele>809</ele>
        <time>2019-03-10T16:41:54Z</time>
      </trkpt>
      <trkpt lat="45.79048" lon="3.01644">
        <ele>808</ele>
        <time>2019-03-10T16:42:54Z</time>
      </trkpt>
      <trkpt lat="45.79049" lon="3.01654">
        <ele>807</ele>
        <time>2019-03-10T16:43:54Z</time>
      </trkpt>
      <trkpt lat="45.79049" lon="3.01672">
        <ele>806</ele>
        <time>2019-03-10T16:44:54Z</time>
      </trkpt>
      <trkpt lat="45.79051" lon="3.01685">
        <ele>804</ele>
        <time>2019-03-10T16:45:54Z</time>
      </trkpt>
      <trkpt lat="45.79058" lon="3.01693">
        <ele>803</ele>
        <time>2019-03-10T16:46:54Z</time>
      </trkpt>
      <trkpt lat="45.79066" lon="3.01696">
        <ele>803</ele>
        <time>2019-03-10T16:47:54Z</time>
      </trkpt>
      <trkpt lat="45.79074" lon="3.01701">
        <ele>802</ele>
        <time>2019-03-10T16:48:54Z</time>
      </trkpt>
      <trkpt lat="45.79081" lon="3.01708">
        <ele>801</ele>
        <time>2019-03-10T16:49:54Z</time>
      </trkpt>
      <trkpt lat="45.79087" lon="3.01715">
        <ele>801</ele>
        <time>2019-03-10T16:50:54Z</time>
      </trkpt>
      <trkpt lat="45.79089" lon="3.01719">
        <ele>801</ele>
        <time>2019-03-10T16:51:54Z</time>
      </trkpt>
      <trkpt lat="45.79097" lon="3.01729">
        <ele>801</ele>
        <time>2019-03-10T16:52:54Z</time>
      </trkpt>
      <trkpt lat="45.79118" lon="3.01755">
        <ele>801</ele>
        <time>2019-03-10T16:53:54Z</time>
      </trkpt>
      <trkpt lat="45.79122" lon="3.01761">
        <ele>801</ele>
        <time>2019-03-10T16:54:54Z</time>
      </trkpt>
      <trkpt lat="45.79126" lon="3.01768">
        <ele>801</ele>
        <time>2019-03-10T16:55:54Z</time>
      </trkpt>
      <trkpt lat="45.79129" lon="3.01775">
        <ele>802</ele>
        <time>2019-03-10T16:56:54Z</time>
      </trkpt>
      <trkpt lat="45.79136" lon="3.01797">
        <ele>802</ele>
        <time>2019-03-10T16:57:54Z</time>
      </trkpt>
      <trkpt lat="45.7914" lon="3.01807">
        <ele>802</ele>
        <time>2019-03-10T16:58:54Z</time>
      </trkpt>
      <trkpt lat="45.79157" lon="3.01845">
        <ele>802</ele>
        <time>2019-03-10T16:59:54Z</time>
      </trkpt>
      <trkpt lat="45.79162" lon="3.01854">
        <ele>803</ele>
        <time>2019-03-10T17:00:54Z</time>
      </trkpt>
      <trkpt lat="45.79166" lon="3.01861">
        <ele>803</ele>
        <time>2019-03-10T17:01:54Z</time>
      </trkpt>
      <trkpt lat="45.79194" lon="3.01895">
        <ele>804</ele>
        <time>2019-03-10T17:02:54Z</time>
      </trkpt>
      <trkpt lat="45.79203" lon="3.01906">
        <ele>804</ele>
        <time>2019-03-10T17:03:54Z</time>
      </trkpt>
      <trkpt lat="45.79211" lon="3.01914">
        <ele>804</ele>
        <time>2019-03-10T17:04:54Z</time>
      </trkpt>
      <trkpt lat="45.79216" lon="3.01919">
        <ele>804</ele>
        <time>2019-03-10T17:05:54Z</time>
      </trkpt>
      <trkpt lat="45.79223" lon="3.0192">
        <ele>805</ele>
        <time>2019-03-10T17:06:54Z</time>
      </trkpt>
      <trkpt lat="45.79229" lon="3.01916">
        <ele>806</ele>
        <time>2019-03-10T17:07:54Z</time>
      </trkpt>
      <trkpt lat="45.79235" lon="3.01908">
        <ele>806</ele>
        <time>2019-03-10T17:08:54Z</time>
      </trkpt>
      <trkpt lat="45.79242" lon="3.01901">
        <ele>807</ele>
        <time>2019-03-10T17:09:54Z</time>
      </trkpt>
      <trkpt lat="45.79253" lon="3.01885">
        <ele>808</ele>
        <time>2019-03-10T17:10:54Z</time>
      </trkpt>
      <trkpt lat="45.79259" lon="3.01877">
        <ele>809</ele>
        <time>2019-03-10T17:11:54Z</time>
      </trkpt>
      <trkpt lat="45.79268" lon="3.01859">
        <ele>810</ele>
        <time>2019-03-10T17:12:54Z</time>
      </trkpt>
      <trkpt lat="45.79273" lon="3.01851">
        <ele>811</ele>
        <time>2019-03-10T17:13:54Z</time>
      </trkpt>
      <trkpt lat="45.79282" lon="3.01832">
        <ele>812</ele>
        <time>2019-03-10T17:14:54Z</time>
      </trkpt>
      <trkpt lat="45.79286" lon="3.01823">
        <ele>812</ele>
        <time>2019-03-10T17:15:54Z</time>
      </trkpt>
      <trkpt lat="45.79294" lon="3.018">
        <ele>814</ele>
        <time>2019-03-10T17:16:54Z</time>
      </trkpt>
      <trkpt lat="45.793" lon="3.01785">
        <ele>814</ele>
        <time>2019-03-10T17:17:54Z</time>
      </trkpt>
      <trkpt lat="45.79309" lon="3.01764">
        <ele>815</ele>
        <time>2019-03-10T17:18:54Z</time>
      </trkpt>
      <trkpt lat="45.79315" lon="3.01757">
        <ele>816</ele>
        <time>2019-03-10T17:19:54Z</time>
      </trkpt>
      <trkpt lat="45.79322" lon="3.01758">
        <ele>816</ele>
        <time>2019-03-10T17:20:54Z</time>
      </trkpt>
      <trkpt lat="45.79329" lon="3.01761">
        <ele>817</ele>
        <time>2019-03-10T17:21:54Z</time>
      </trkpt>
      <trkpt lat="45.79336" lon="3.01763">
        <ele>817</ele>
        <time>2019-03-10T17:22:54Z</time>
      </trkpt>
      <trkpt lat="45.79352" lon="3.01764">
        <ele>817</ele>
        <time>2019-03-10T17:23:54Z</time>
      </trkpt>
      <trkpt lat="45.7936" lon="3.01763">
        <ele>818</ele>
        <time>2019-03-10T17:24:54Z</time>
      </trkpt>
      <trkpt lat="45.79375" lon="3.01761">
        <ele>818</ele>
        <time>2019-03-10T17:25:54Z</time>
      </trkpt>
      <trkpt lat="45.79382" lon="3.01761">
        <ele>819</ele>
        <time>2019-03-10T17:26:54Z</time>
      </trkpt>
      <trkpt lat="45.7939" lon="3.01761">
        <ele>819</ele>
        <time>2019-03-10T17:27:54Z</time>
      </trkpt>
      <trkpt lat="45.79399" lon="3.0176">
        <ele>819</ele>
        <time>2019-03-10T17:28:54Z</time>
      </trkpt>
      <trkpt lat="45.79407" lon="3.0176">
        <ele>820</ele>
        <time>2019-03-10T17:29:54Z</time>
      </trkpt>
      <trkpt lat="45.79427" lon="3.01761">
        <ele>820</ele>
        <time>2019-03-10T17:30:54Z</time>
      </trkpt>
      <trkpt lat="45.79438" lon="3.01764">
        <ele>820</ele>
        <time>2019-03-10T17:31:54Z</time>
      </trkpt>
      <trkpt lat="45.79468" lon="3.01779">
        <ele>819</ele>
        <time>2019-03-10T17:32:54Z</time>
      </trkpt>
      <trkpt lat="45.79475" lon="3.01783">
        <ele>819</ele>
        <time>2019-03-10T17:33:54Z</time>
      </trkpt>
      <trkpt lat="45.79515" lon="3.01813">
        <ele>817</ele>
        <time>2019-03-10T17:34:54Z</time>
      </trkpt>
      <trkpt lat="45.7952" lon="3.01816">
        <ele>817</ele>
        <time>2019-03-10T17:35:54Z</time>
      </trkpt>
      <trkpt lat="45.79534" lon="3.01823">
        <ele>816</ele>
        <time>2019-03-10T17:36:54Z</time>
      </trkpt>
      <trkpt lat="45.79538" lon="3.01826">
        <ele>816</ele>
        <time>2019-03-10T17:37:54Z</time>
      </trkpt>
      <trkpt lat="45.7955" lon="3.01835">
        <ele>815</ele>
        <time>2019-03-10T17:38:54Z</time>
      </trkpt>
      <trkpt lat="45.79555" lon="3.01837">
        <ele>815</ele>
        <time>2019-03-10T17:39:54Z</time>
      </trkpt>
      <trkpt lat="45.79587" lon="3.01853">
        <ele>814</ele>
        <time>2019-03-10T17:40:54Z</time>
      </trkpt>
      <trkpt lat="45.79591" lon="3.01856">
        <ele>815</ele>
        <time>2019-03-10T17:41:54Z</time>
      </trkpt>
      <trkpt lat="45.79628" lon="3.01881">
        <ele>815</ele>
        <time>2019-03-10T17:42:54Z</time>
      </trkpt>
      <trkpt lat="45.79633" lon="3.01884">
        <ele>815</ele>
        <time>2019-03-10T17:43:54Z</time>
      </trkpt>
      <trkpt lat="45.7965" lon="3.01894">
        <ele>816</ele>
        <time>2019-03-10T17:44:54Z</time>
      </trkpt>
      <trkpt lat="45.79657" lon="3.01899">
        <ele>816</ele>
        <time>2019-03-10T17:45:54Z</time>
      </trkpt>
      <trkpt lat="45.79664" lon="3.01906">
        <ele>816</ele>
        <time>2019-03-10T17:46:54Z</time>
      </trkpt>
      <trkpt lat="45.79669" lon="3.01915">
        <ele>815</ele>
        <time>2019-03-10T17:47:54Z</time>
      </trkpt>
      <trkpt lat="45.79672" lon="3.01919">
        <ele>815</ele>
        <time>2019-03-10T17:48:54Z</time>
      </trkpt>
      <trkpt lat="45.79719" lon="3.01977">
        <ele>815</ele>
        <time>2019-03-10T17:49:54Z</time>
      </trkpt>
      <trkpt lat="45.79726" lon="3.01985">
        <ele>815</ele>
        <time>2019-03-10T17:50:54Z</time>
      </trkpt>
      <trkpt lat="45.79733" lon="3.01993">
        <ele>815</ele>
        <time>2019-03-10T17:51:54Z</time>
      </trkpt>
      <trkpt lat="45.79747" lon="3.02005">
        <ele>815</ele>
        <time>2019-03-10T17:52:54Z</time>
      </trkpt>
      <trkpt lat="45.79754" lon="3.02011">
        <ele>816</ele>
        <time>2019-03-10T17:53:54Z</time>
      </trkpt>
      <trkpt lat="45.79769" lon="3.02022">
        <ele>816</ele>
        <time>2019-03-10T17:54:54Z</time>
      </trkpt>
      <trkpt lat="45.79775" lon="3.02027">
        <ele>817</ele>
        <time>2019-03-10T17:55:54Z</time>
      </trkpt>
      <trkpt lat="45.79791" lon="3.02044">
        <ele>817</ele>
        <time>2019-03-10T17:56:54Z</time>
      </trkpt>
      <trkpt lat="45.79798" lon="3.02049">
        <ele>817</ele>
        <time>2019-03-10T17:57:54Z</time>
      </trkpt>
      <trkpt lat="45.79812" lon="3.02052">
        <ele>818</ele>
        <time>2019-03-10T17:58:54Z</time>
      </trkpt>
      <trkpt lat="45.79819" lon="3.02053">
        <ele>819</ele>
        <time>2019-03-10T17:59:54Z</time>
      </trkpt>
      <trkpt lat="45.79826" lon="3.02054">
        <ele>819</ele>
        <time>2019-03-10T18:00:54Z</time>
      </trkpt>
      <trkpt lat="45.79833" lon="3.02054">
        <ele>820</ele>
        <time>2019-03-10T18:01:54Z</time>
      </trkpt>
      <trkpt lat="45.7984" lon="3.02054">
        <ele>820</ele>
        <time>2019-03-10T18:02:54Z</time>
      </trkpt>
      <trkpt lat="45.79847" lon="3.02054">
        <ele>820</ele>
        <time>2019-03-10T18:03:54Z</time>
      </trkpt>
      <trkpt lat="45.7986" lon="3.02052">
        <ele>821</ele>
        <time>2019-03-10T18:04:54Z</time>
      </trkpt>
      <trkpt lat="45.79867" lon="3.02051">
        <ele>821</ele>
        <time>2019-03-10T18:05:54Z</time>
      </trkpt>
      <trkpt lat="45.79876" lon="3.02047">
        <ele>821</ele>
        <time>2019-03-10T18:06:54Z</time>
      </trkpt>
      <trkpt lat="45.79887" lon="3.02044">
        <ele>822</ele>
        <time>2019-03-10T18:07:54Z</time>
      </trkpt>
      <trkpt lat="45.79893" lon="3.02043">
        <ele>822</ele>
        <time>2019-03-10T18:08:54Z</time>
      </trkpt>
      <trkpt lat="45.799" lon="3.02042">
        <ele>822</ele>
        <time>2019-03-10T18:09:54Z</time>
      </trkpt>
      <trkpt lat="45.79909" lon="3.02044">
        <ele>822</ele>
        <time>2019-03-10T18:10:54Z</time>
      </trkpt>
      <trkpt lat="45.79915" lon="3.02047">
        <ele>822</ele>
        <time>2019-03-10T18:11:54Z</time>
      </trkpt>
      <trkpt lat="45.79921" lon="3.02051">
        <ele>822</ele>
        <time>2019-03-10T18:12:54Z</time>
      </trkpt>
      <trkpt lat="45.79941" lon="3.02058">
        <ele>820</ele>
        <time>2019-03-10T18:13:54Z</time>
      </trkpt>
      <trkpt lat="45.79948" lon="3.02061">
        <ele>820</ele>
        <time>2019-03-10T18:14:54Z</time>
      </trkpt>
      <trkpt lat="45.79953" lon="3.02067">
        <ele>819</ele>
        <time>2019-03-10T18:15:54Z</time>
      </trkpt>
      <trkpt lat="45.79956" lon="3.02077">
        <ele>818</ele>
        <time>2019-03-10T18:16:54Z</time>
      </trkpt>
      <trkpt lat="45.79958" lon="3.0209">
        <ele>818</ele>
        <time>2019-03-10T18:17:54Z</time>
      </trkpt>
      <trkpt lat="45.79959" lon="3.021">
        <ele>817</ele>
        <time>2019-03-10T18:18:54Z</time>
      </trkpt>
      <trkpt lat="45.79966" lon="3.02117">
        <ele>815</ele>
        <time>2019-03-10T18:19:54Z</time>
      </trkpt>
      <trkpt lat="45.79969" lon="3.02125">
        <ele>814</ele>
        <time>2019-03-10T18:20:54Z</time>
      </trkpt>
      <trkpt lat="45.79972" lon="3.02134">
        <ele>814</ele>
        <time>2019-03-10T18:21:54Z</time>
      </trkpt>
      <trkpt lat="45.79972" lon="3.02145">
        <ele>813</ele>
        <time>2019-03-10T18:22:54Z</time>
      </trkpt>
      <trkpt lat="45.7997" lon="3.02176">
        <ele>811</ele>
        <time>2019-03-10T18:23:54Z</time>
      </trkpt>
      <trkpt lat="45.79968" lon="3.02188">
        <ele>810</ele>
        <time>2019-03-10T18:24:54Z</time>
      </trkpt>
      <trkpt lat="45.79959" lon="3.02216">
        <ele>809</ele>
        <time>2019-03-10T18:25:54Z</time>
      </trkpt>
      <trkpt lat="45.79958" lon="3.02223">
        <ele>808</ele>
        <time>2019-03-10T18:26:54Z</time>
      </trkpt>
      <trkpt lat="45.79959" lon="3.02266">
        <ele>805</ele>
        <time>2019-03-10T18:27:54Z</time>
      </trkpt>
      <trkpt lat="45.79959" lon="3.02275">
        <ele>804</ele>
        <time>2019-03-10T18:28:54Z</time>
      </trkpt>
      <trkpt lat="45.79956" lon="3.02345">
        <ele>800</ele>
        <time>2019-03-10T18:29:54Z</time>
      </trkpt>
      <trkpt lat="45.79956" lon="3.02353">
        <ele>799</ele>
        <time>2019-03-10T18:30:54Z</time>
      </trkpt>
      <trkpt lat="45.79959" lon="3.02374">
        <ele>797</ele>
        <time>2019-03-10T18:31:54Z</time>
      </trkpt>
      <trkpt lat="45.79959" lon="3.02382">
        <ele>796</ele>
        <time>2019-03-10T18:32:54Z</time>
      </trkpt>
      <trkpt lat="45.79958" lon="3.02398">
        <ele>795</ele>
        <time>2019-03-10T18:33:54Z</time>
      </trkpt>
      <trkpt lat="45.79956" lon="3.02406">
        <ele>794</ele>
        <time>2019-03-10T18:34:54Z</time>
      </trkpt>
      <trkpt lat="45.79954" lon="3.02413">
        <ele>794</ele>
        <time>2019-03-10T18:35:54Z</time>
      </trkpt>
      <trkpt lat="45.79951" lon="3.0242">
        <ele>793</ele>
        <time>2019-03-10T18:36:54Z</time>
      </trkpt>
      <trkpt lat="45.79938" lon="3.02447">
        <ele>791</ele>
        <time>2019-03-10T18:37:54Z</time>
      </trkpt>
      <trkpt lat="45.79934" lon="3.02453">
        <ele>790</ele>
        <time>2019-03-10T18:38:54Z</time>
      </trkpt>
      <trkpt lat="45.7993" lon="3.02458">
        <ele>790</ele>
        <time>2019-03-10T18:39:54Z</time>
      </trkpt>
      <trkpt lat="45.79925" lon="3.02462">
        <ele>790</ele>
        <time>2019-03-10T18:40:54Z</time>
      </trkpt>
      <trkpt lat="45.79921" lon="3.02465">
        <ele>790</ele>
        <time>2019-03-10T18:41:54Z</time>
      </trkpt>
      <trkpt lat="45.79916" lon="3.02468">
        <ele>789</ele>
        <time>2019-03-10T18:42:54Z</time>
      </trkpt>
      <trkpt lat="45.79904" lon="3.02479">
        <ele>788</ele>
        <time>2019-03-10T18:43:54Z</time>
      </trkpt>
      <trkpt lat="45.79902" lon="3.02485">
        <ele>787</ele>
        <time>2019-03-10T18:44:54Z</time>
      </trkpt>
      <trkpt lat="45.79902" lon="3.02492">
        <ele>786</ele>
        <time>2019-03-10T18:45:54Z</time>
      </trkpt>
      <trkpt lat="45.79902" lon="3.02501">
        <ele>785</ele>
        <time>2019-03-10T18:46:54Z</time>
      </trkpt>
      <trkpt lat="45.79906" lon="3.0253">
        <ele>781</ele>
        <time>2019-03-10T18:47:54Z</time>
      </trkpt>
      <trkpt lat="45.79906" lon="3.02541">
        <ele>780</ele>
        <time>2019-03-10T18:48:54Z</time>
      </trkpt>
      <trkpt lat="45.79902" lon="3.02576">
        <ele>775</ele>
        <time>2019-03-10T18:49:54Z</time>
      </trkpt>
      <trkpt lat="45.799" lon="3.02588">
        <ele>774</ele>
        <time>2019-03-10T18:50:54Z</time>
      </trkpt>
      <trkpt lat="45.79897" lon="3.026">
        <ele>774</ele>
        <time>2019-03-10T18:51:54Z</time>
      </trkpt>
      <trkpt lat="45.79893" lon="3.02611">
        <ele>774</ele>
        <time>2019-03-10T18:52:54Z</time>
      </trkpt>
      <trkpt lat="45.79884" lon="3.02633">
        <ele>774</ele>
        <time>2019-03-10T18:53:54Z</time>
      </trkpt>
      <trkpt lat="45.7988" lon="3.02644">
        <ele>773</ele>
        <time>2019-03-10T18:54:54Z</time>
      </trkpt>
      <trkpt lat="45.7987" lon="3.0268">
        <ele>772</ele>
        <time>2019-03-10T18:55:54Z</time>
      </trkpt>
      <trkpt lat="45.79867" lon="3.02692">
        <ele>771</ele>
        <time>2019-03-10T18:56:54Z</time>
      </trkpt>
      <trkpt lat="45.79839" lon="3.02772">
        <ele>764</ele>
        <time>2019-03-10T18:57:54Z</time>
      </trkpt>
      <trkpt lat="45.79836" lon="3.0278">
        <ele>763</ele>
        <time>2019-03-10T18:58:54Z</time>
      </trkpt>
      <trkpt lat="45.79833" lon="3.02788">
        <ele>763</ele>
        <time>2019-03-10T18:59:54Z</time>
      </trkpt>
      <trkpt lat="45.79831" lon="3.02796">
        <ele>762</ele>
        <time>2019-03-10T19:00:54Z</time>
      </trkpt>
      <trkpt lat="45.79828" lon="3.02813">
        <ele>761</ele>
        <time>2019-03-10T19:01:54Z</time>
      </trkpt>
      <trkpt lat="45.79827" lon="3.02821">
        <ele>760</ele>
        <time>2019-03-10T19:02:54Z</time>
      </trkpt>
      <trkpt lat="45.79821" lon="3.02837">
        <ele>758</ele>
        <time>2019-03-10T19:03:54Z</time>
      </trkpt>
      <trkpt lat="45.79816" lon="3.02846">
        <ele>756</ele>
        <time>2019-03-10T19:04:54Z</time>
      </trkpt>
      <trkpt lat="45.79811" lon="3.02854">
        <ele>754</ele>
        <time>2019-03-10T19:05:54Z</time>
      </trkpt>
      <trkpt lat="45.79804" lon="3.0286">
        <ele>753</ele>
        <time>2019-03-10T19:06:54Z</time>
      </trkpt>
      <trkpt lat="45.79797" lon="3.02864">
        <ele>751</ele>
        <time>2019-03-10T19:07:54Z</time>
      </trkpt>
      <trkpt lat="45.79789" lon="3.02866">
        <ele>751</ele>
        <time>2019-03-10T19:08:54Z</time>
      </trkpt>
      <trkpt lat="45.7978" lon="3.02865">
        <ele>750</ele>
        <time>2019-03-10T19:09:54Z</time>
      </trkpt>
      <trkpt lat="45.79747" lon="3.02856">
        <ele>749</ele>
        <time>2019-03-10T19:10:54Z</time>
      </trkpt>
      <trkpt lat="45.7974" lon="3.02856">
        <ele>748</ele>
        <time>2019-03-10T19:11:54Z</time>
      </trkpt>
      <trkpt lat="45.79733" lon="3.02857">
        <ele>747</ele>
        <time>2019-03-10T19:12:54Z</time>
      </trkpt>
      <trkpt lat="45.79727" lon="3.0286">
        <ele>746</ele>
        <time>2019-03-10T19:13:54Z</time>
      </trkpt>
      <trkpt lat="45.79723" lon="3.02865">
        <ele>745</ele>
        <time>2019-03-10T19:14:54Z</time>
      </trkpt>
      <trkpt lat="45.79715" lon="3.02878">
        <ele>743</ele>
        <time>2019-03-10T19:15:54Z</time>
      </trkpt>
      <trkpt lat="45.79712" lon="3.02885">
        <ele>742</ele>
        <time>2019-03-10T19:16:54Z</time>
      </trkpt>
      <trkpt lat="45.79708" lon="3.0289">
        <ele>741</ele>
        <time>2019-03-10T19:17:54Z</time>
      </trkpt>
      <trkpt lat="45.79705" lon="3.02894">
        <ele>740</ele>
        <time>2019-03-10T19:18:54Z</time>
      </trkpt>
      <trkpt lat="45.79699" lon="3.02904">
        <ele>739</ele>
        <time>2019-03-10T19:19:54Z</time>
      </trkpt>
      <trkpt lat="45.79694" lon="3.02914">
        <ele>737</ele>
        <time>2019-03-10T19:20:54Z</time>
      </trkpt>
      <trkpt lat="45.79692" lon="3.02925">
        <ele>736</ele>
        <time>2019-03-10T19:21:54Z</time>
      </trkpt>
      <trkpt lat="45.79692" lon="3.02936">
        <ele>735</ele>
        <time>2019-03-10T19:22:54Z</time>
      </trkpt>
      <trkpt lat="45.79693" lon="3.02949">
        <ele>734</ele>
        <time>2019-03-10T19:23:54Z</time>
      </trkpt>
      <trkpt lat="45.79693" lon="3.02961">
        <ele>733</ele>
        <time>2019-03-10T19:24:54Z</time>
      </trkpt>
      <trkpt lat="45.79691" lon="3.02971">
        <ele>732</ele>
        <time>2019-03-10T19:25:54Z</time>
      </trkpt>
      <trkpt lat="45.79689" lon="3.02982">
        <ele>731</ele>
        <time>2019-03-10T19:26:54Z</time>
      </trkpt>
      <trkpt lat="45.79682" lon="3.02999">
        <ele>728</ele>
        <time>2019-03-10T19:27:54Z</time>
      </trkpt>
      <trkpt lat="45.79679" lon="3.03008">
        <ele>727</ele>
        <time>2019-03-10T19:28:54Z</time>
      </trkpt>
      <trkpt lat="45.79673" lon="3.03015">
        <ele>726</ele>
        <time>2019-03-10T19:29:54Z</time>
      </trkpt>
      <trkpt lat="45.79668" lon="3.03016">
        <ele>726</ele>
        <time>2019-03-10T19:30:54Z</time>
      </trkpt>
      <trkpt lat="45.79663" lon="3.03014">
        <ele>725</ele>
        <time>2019-03-10T19:31:54Z</time>
      </trkpt>
      <trkpt lat="45.79658" lon="3.03011">
        <ele>725</ele>
        <time>2019-03-10T19:32:54Z</time>
      </trkpt>
      <trkpt lat="45.79644" lon="3.03">
        <ele>724</ele>
        <time>2019-03-10T19:33:54Z</time>
      </trkpt>
      <trkpt lat="45.7964" lon="3.02995">
        <ele>724</ele>
        <time>2019-03-10T19:34:54Z</time>
      </trkpt>
      <trkpt lat="45.79636" lon="3.02991">
        <ele>724</ele>
        <time>2019-03-10T19:35:54Z</time>
      </trkpt>
      <trkpt lat="45.79632" lon="3.02986">
        <ele>724</ele>
        <time>2019-03-10T19:36:54Z</time>
      </trkpt>
      <trkpt lat="45.79626" lon="3.02976">
        <ele>724</ele>
        <time>2019-03-10T19:37:54Z</time>
      </trkpt>
      <trkpt lat="45.7962" lon="3.02966">
        <ele>724</ele>
        <time>2019-03-10T19:38:54Z</time>
      </trkpt>
      <trkpt lat="45.79593" lon="3.02933">
        <ele>723</ele>
        <time>2019-03-10T19:39:54Z</time>
      </trkpt>
      <trkpt lat="45.79587" lon="3.02925">
        <ele>723</ele>
        <time>2019-03-10T19:40:54Z</time>
      </trkpt>
      <trkpt lat="45.79583" lon="3.02917">
        <ele>723</ele>
        <time>2019-03-10T19:41:54Z</time>
      </trkpt>
      <trkpt lat="45.7958" lon="3.02909">
        <ele>724</ele>
        <time>2019-03-10T19:42:54Z</time>
      </trkpt>
      <trkpt lat="45.79578" lon="3.02901">
        <ele>725</ele>
        <time>2019-03-10T19:43:54Z</time>
      </trkpt>
      <trkpt lat="45.7958" lon="3.02891">
        <ele>727</ele>
        <time>2019-03-10T19:44:54Z</time>
      </trkpt>
      <trkpt lat="45.7958" lon="3.02882">
        <ele>729</ele>
        <time>2019-03-10T19:45:54Z</time>
      </trkpt>
      <trkpt lat="45.79576" lon="3.02875">
        <ele>730</ele>
        <time>2019-03-10T19:46:54Z</time>
      </trkpt>
      <trkpt lat="45.79569" lon="3.02872">
        <ele>730</ele>
        <time>2019-03-10T19:47:54Z</time>
      </trkpt>
      <trkpt lat="45.79555" lon="3.02868">
        <ele>730</ele>
        <time>2019-03-10T19:48:54Z</time>
      </trkpt>
      <trkpt lat="45.79547" lon="3.02865">
        <ele>730</ele>
        <time>2019-03-10T19:49:54Z</time>
      </trkpt>
      <trkpt lat="45.79541" lon="3.02862">
        <ele>730</ele>
        <time>2019-03-10T19:50:54Z</time>
      </trkpt>
      <trkpt lat="45.79535" lon="3.02859">
        <ele>731</ele>
        <time>2019-03-10T19:51:54Z</time>
      </trkpt>
      <trkpt lat="45.79528" lon="3.02856">
        <ele>731</ele>
        <time>2019-03-10T19:52:54Z</time>
      </trkpt>
      <trkpt lat="45.79522" lon="3.02854">
        <ele>731</ele>
        <time>2019-03-10T19:53:54Z</time>
      </trkpt>
      <trkpt lat="45.79515" lon="3.02853">
        <ele>731</ele>
        <time>2019-03-10T19:54:54Z</time>
      </trkpt>
      <trkpt lat="45.79508" lon="3.02854">
        <ele>731</ele>
        <time>2019-03-10T19:55:54Z</time>
      </trkpt>
      <trkpt lat="45.79502" lon="3.02857">
        <ele>730</ele>
        <time>2019-03-10T19:56:54Z</time>
      </trkpt>
      <trkpt lat="45.79496" lon="3.02863">
        <ele>729</ele>
        <time>2019-03-10T19:57:54Z</time>
      </trkpt>
      <trkpt lat="45.79493" lon="3.02873">
        <ele>728</ele>
        <time>2019-03-10T19:58:54Z</time>
      </trkpt>
      <trkpt lat="45.79491" lon="3.0289">
        <ele>725</ele>
        <time>2019-03-10T19:59:54Z</time>
      </trkpt>
      <trkpt lat="45.79489" lon="3.02906">
        <ele>722</ele>
        <time>2019-03-10T20:00:54Z</time>
      </trkpt>
      <trkpt lat="45.79485" lon="3.02914">
        <ele>721</ele>
        <time>2019-03-10T20:01:54Z</time>
      </trkpt>
      <trkpt lat="45.7948" lon="3.02922">
        <ele>721</ele>
        <time>2019-03-10T20:02:54Z</time>
      </trkpt>
      <trkpt lat="45.79475" lon="3.02927">
        <ele>722</ele>
        <time>2019-03-10T20:03:54Z</time>
      </trkpt>
      <trkpt lat="45.79471" lon="3.02933">
        <ele>722</ele>
        <time>2019-03-10T20:04:54Z</time>
      </trkpt>
      <trkpt lat="45.79465" lon="3.02942">
        <ele>722</ele>
        <time>2019-03-10T20:05:54Z</time>
      </trkpt>
      <trkpt lat="45.7946" lon="3.0295">
        <ele>722</ele>
        <time>2019-03-10T20:06:54Z</time>
      </trkpt>
      <trkpt lat="45.79447" lon="3.0301">
        <ele>716</ele>
        <time>2019-03-10T20:07:54Z</time>
      </trkpt>
      <trkpt lat="45.79446" lon="3.03017">
        <ele>715</ele>
        <time>2019-03-10T20:08:54Z</time>
      </trkpt>
      <trkpt lat="45.79445" lon="3.03023">
        <ele>714</ele>
        <time>2019-03-10T20:09:54Z</time>
      </trkpt>
      <trkpt lat="45.79443" lon="3.03031">
        <ele>714</ele>
        <time>2019-03-10T20:10:54Z</time>
      </trkpt>
      <trkpt lat="45.7944" lon="3.03038">
        <ele>713</ele>
        <time>2019-03-10T20:11:54Z</time>
      </trkpt>
      <trkpt lat="45.79436" lon="3.03044">
        <ele>714</ele>
        <time>2019-03-10T20:12:54Z</time>
      </trkpt>
      <trkpt lat="45.79423" lon="3.03062">
        <ele>714</ele>
        <time>2019-03-10T20:13:54Z</time>
      </trkpt>
      <trkpt lat="45.79418" lon="3.03067">
        <ele>714</ele>
        <time>2019-03-10T20:14:54Z</time>
      </trkpt>
      <trkpt lat="45.79412" lon="3.03071">
        <ele>714</ele>
        <time>2019-03-10T20:15:54Z</time>
      </trkpt>
      <trkpt lat="45.79386" lon="3.03081">
        <ele>712</ele>
        <time>2019-03-10T20:16:54Z</time>
      </trkpt>
      <trkpt lat="45.7938" lon="3.03083">
        <ele>712</ele>
        <time>2019-03-10T20:17:54Z</time>
      </trkpt>
      <trkpt lat="45.79373" lon="3.03083">
        <ele>712</ele>
        <time>2019-03-10T20:18:54Z</time>
      </trkpt>
      <trkpt lat="45.79367" lon="3.03083">
        <ele>711</ele>
        <time>2019-03-10T20:19:54Z</time>
      </trkpt>
      <trkpt lat="45.79357" lon="3.03081">
        <ele>712</ele>
        <time>2019-03-10T20:20:54Z</time>
      </trkpt>
      <trkpt lat="45.79352" lon="3.03081">
        <ele>712</ele>
        <time>2019-03-10T20:21:54Z</time>
      </trkpt>
      <trkpt lat="45.79344" lon="3.03076">
        <ele>712</ele>
        <time>2019-03-10T20:22:54Z</time>
      </trkpt>
      <trkpt lat="45.79336" lon="3.03071">
        <ele>712</ele>
        <time>2019-03-10T20:23:54Z</time>
      </trkpt>
      <trkpt lat="45.79332" lon="3.0307">
        <ele>713</ele>
        <time>2019-03-10T20:24:54Z</time>
      </trkpt>
      <trkpt lat="45.79327" lon="3.03071">
        <ele>713</ele>
        <time>2019-03-10T20:25:54Z</time>
      </trkpt>
      <trkpt lat="45.7932" lon="3.03077">
        <ele>714</ele>
        <time>2019-03-10T20:26:54Z</time>
      </trkpt>
      <trkpt lat="45.79318" lon="3.03088">
        <ele>713</ele>
        <time>2019-03-10T20:27:54Z</time>
      </trkpt>
      <trkpt lat="45.79317" lon="3.03094">
        <ele>713</ele>
        <time>2019-03-10T20:28:54Z</time>
      </trkpt>
      <trkpt lat="45.79317" lon="3.03109">
        <ele>712</ele>
        <time>2019-03-10T20:29:54Z</time>
      </trkpt>
      <trkpt lat="45.79317" lon="3.03118">
        <ele>711</ele>
        <time>2019-03-10T20:30:54Z</time>
      </trkpt>
      <trkpt lat="45.79319" lon="3.0313">
        <ele>710</ele>
        <time>2019-03-10T20:31:54Z</time>
      </trkpt>
      <trkpt lat="45.79318" lon="3.03142">
        <ele>709</ele>
        <time>2019-03-10T20:32:54Z</time>
      </trkpt>
      <trkpt lat="45.79307" lon="3.03176">
        <ele>707</ele>
        <time>2019-03-10T20:33:54Z</time>
      </trkpt>
      <trkpt lat="45.79304" lon="3.03185">
        <ele>707</ele>
        <time>2019-03-10T20:34:54Z</time>
      </trkpt>
      <trkpt lat="45.793" lon="3.03193">
        <ele>707</ele>
        <time>2019-03-10T20:35:54Z</time>
      </trkpt>
      <trkpt lat="45.79295" lon="3.03199">
        <ele>707</ele>
        <time>2019-03-10T20:36:54Z</time>
      </trkpt>
      <trkpt lat="45.7929" lon="3.03205">
        <ele>707</ele>
        <time>2019-03-10T20:37:54Z</time>
      </trkpt>
      <trkpt lat="45.79286" lon="3.03214">
        <ele>707</ele>
        <time>2019-03-10T20:38:54Z</time>
      </trkpt>
      <trkpt lat="45.79276" lon="3.03229">
        <ele>707</ele>
        <time>2019-03-10T20:39:54Z</time>
      </trkpt>
      <trkpt lat="45.79271" lon="3.03239">
        <ele>707</ele>
        <time>2019-03-10T20:40:54Z</time>
      </trkpt>
      <trkpt lat="45.79248" lon="3.03275">
        <ele>706</ele>
        <time>2019-03-10T20:41:54Z</time>
      </trkpt>
      <trkpt lat="45.79242" lon="3.03283">
        <ele>705</ele>
        <time>2019-03-10T20:42:54Z</time>
      </trkpt>
      <trkpt lat="45.79236" lon="3.03291">
        <ele>704</ele>
        <time>2019-03-10T20:43:54Z</time>
      </trkpt>
      <trkpt lat="45.79232" lon="3.03294">
        <ele>703</ele>
        <time>2019-03-10T20:44:54Z</time>
      </trkpt>
      <trkpt lat="45.79227" lon="3.03296">
        <ele>703</ele>
        <time>2019-03-10T20:45:54Z</time>
      </trkpt>
      <trkpt lat="45.79212" lon="3.03304">
        <ele>702</ele>
        <time>2019-03-10T20:46:54Z</time>
      </trkpt>
      <trkpt lat="45.79207" lon="3.03305">
        <ele>702</ele>
        <time>2019-03-10T20:47:54Z</time>
      </trkpt>
      <trkpt lat="45.79186" lon="3.03311">
        <ele>701</ele>
        <time>2019-03-10T20:48:54Z</time>
      </trkpt>
      <trkpt lat="45.79181" lon="3.03313">
        <ele>701</ele>
        <time>2019-03-10T20:49:54Z</time>
      </trkpt>
      <trkpt lat="45.79175" lon="3.03317">
        <ele>700</ele>
        <time>2019-03-10T20:50:54Z</time>
      </trkpt>
      <trkpt lat="45.7917" lon="3.0332">
        <ele>700</ele>
        <time>2019-03-10T20:51:54Z</time>
      </trkpt>
      <trkpt lat="45.79165" lon="3.03323">
        <ele>699</ele>
        <time>2019-03-10T20:52:54Z</time>
      </trkpt>
      <trkpt lat="45.79157" lon="3.03328">
        <ele>699</ele>
        <time>2019-03-10T20:53:54Z</time>
      </trkpt>
      <trkpt lat="45.7915" lon="3.03332">
        <ele>698</ele>
        <time>2019-03-10T20:54:54Z</time>
      </trkpt>
      <trkpt lat="45.79144" lon="3.03337">
        <ele>697</ele>
        <time>2019-03-10T20:55:54Z</time>
      </trkpt>
      <trkpt lat="45.79138" lon="3.03343">
        <ele>697</ele>
        <time>2019-03-10T20:56:54Z</time>
      </trkpt>
      <trkpt lat="45.79133" lon="3.0335">
        <ele>696</ele>
        <time>2019-03-10T20:57:54Z</time>
      </trkpt>
      <trkpt lat="45.79128" lon="3.03356">
        <ele>695</ele>
        <time>2019-03-10T20:58:54Z</time>
      </trkpt>
      <trkpt lat="45.79115" lon="3.03383">
        <ele>693</ele>
        <time>2019-03-10T20:59:54Z</time>
      </trkpt>
      <trkpt lat="45.79111" lon="3.0339">
        <ele>693</ele>
        <time>2019-03-10T21:00:54Z</time>
      </trkpt>
      <trkpt lat="45.79092" lon="3.03436">
        <ele>690</ele>
        <time>2019-03-10T21:01:54Z</time>
      </trkpt>
      <trkpt lat="45.79088" lon="3.03446">
        <ele>690</ele>
        <time>2019-03-10T21:02:54Z</time>
      </trkpt>
      <trkpt lat="45.79082" lon="3.03455">
        <ele>689</ele>
        <time>2019-03-10T21:03:54Z</time>
      </trkpt>
      <trkpt lat="45.79074" lon="3.0346">
        <ele>689</ele>
        <time>2019-03-10T21:04:54Z</time>
      </trkpt>
      <trkpt lat="45.79067" lon="3.03464">
        <ele>688</ele>
        <time>2019-03-10T21:05:54Z</time>
      </trkpt>
      <trkpt lat="45.7906" lon="3.0347">
        <ele>688</ele>
        <time>2019-03-10T21:06:54Z</time>
      </trkpt>
      <trkpt lat="45.79055" lon="3.03474">
        <ele>688</ele>
        <time>2019-03-10T21:07:54Z</time>
      </trkpt>
      <trkpt lat="45.7905" lon="3.03479">
        <ele>687</ele>
        <time>2019-03-10T21:08:54Z</time>
      </trkpt>
      <trkpt lat="45.79044" lon="3.03489">
        <ele>687</ele>
        <time>2019-03-10T21:09:54Z</time>
      </trkpt>
      <trkpt lat="45.79039" lon="3.03498">
        <ele>686</ele>
        <time>2019-03-10T21:10:54Z</time>
      </trkpt>
      <trkpt lat="45.79035" lon="3.03508">
        <ele>685</ele>
        <time>2019-03-10T21:11:54Z</time>
      </trkpt>
      <trkpt lat="45.79031" lon="3.03517">
        <ele>684</ele>
        <time>2019-03-10T21:12:54Z</time>
      </trkpt>
      <trkpt lat="45.79026" lon="3.03532">
        <ele>683</ele>
        <time>2019-03-10T21:13:54Z</time>
      </trkpt>
      <trkpt lat="45.79023" lon="3.03549">
        <ele>682</ele>
        <time>2019-03-10T21:14:54Z</time>
      </trkpt>
      <trkpt lat="45.79025" lon="3.03572">
        <ele>679</ele>
        <time>2019-03-10T21:15:54Z</time>
      </trkpt>
      <trkpt lat="45.79028" lon="3.03582">
        <ele>678</ele>
        <time>2019-03-10T21:16:54Z</time>
      </trkpt>
      <trkpt lat="45.79027" lon="3.03591">
        <ele>677</ele>
        <time>2019-03-10T21:17:54Z</time>
      </trkpt>
      <trkpt lat="45.79032" lon="3.03662">
        <ele>668</ele>
        <time>2019-03-10T21:18:54Z</time>
      </trkpt>
      <trkpt lat="45.79035" lon="3.03671">
        <ele>667</ele>
        <time>2019-03-10T21:19:54Z</time>
      </trkpt>
      <trkpt lat="45.79033" lon="3.03691">
        <ele>666</ele>
        <time>2019-03-10T21:20:54Z</time>
      </trkpt>
      <trkpt lat="45.79032" lon="3.03704">
        <ele>666</ele>
        <time>2019-03-10T21:21:54Z</time>
      </trkpt>
      <trkpt lat="45.79035" lon="3.03716">
        <ele>664</ele>
        <time>2019-03-10T21:22:54Z</time>
      </trkpt>
      <trkpt lat="45.79039" lon="3.03724">
        <ele>663</ele>
        <time>2019-03-10T21:23:54Z</time>
      </trkpt>
      <trkpt lat="45.79052" lon="3.03747">
        <ele>660</ele>
        <time>2019-03-10T21:24:54Z</time>
      </trkpt>
      <trkpt lat="45.79055" lon="3.03755">
        <ele>659</ele>
        <time>2019-03-10T21:25:54Z</time>
      </trkpt>
      <trkpt lat="45.7906" lon="3.03761">
        <ele>658</ele>
        <time>2019-03-10T21:26:54Z</time>
      </trkpt>
      <trkpt lat="45.79064" lon="3.03769">
        <ele>657</ele>
        <time>2019-03-10T21:27:54Z</time>
      </trkpt>
      <trkpt lat="45.79069" lon="3.03776">
        <ele>656</ele>
        <time>2019-03-10T21:28:54Z</time>
      </trkpt>
      <trkpt lat="45.79071" lon="3.03779">
        <ele>655</ele>
        <time>2019-03-10T21:29:54Z</time>
      </trkpt>
      <trkpt lat="45.79083" lon="3.03798">
        <ele>653</ele>
        <time>2019-03-10T21:30:54Z</time>
      </trkpt>
      <trkpt lat="45.79088" lon="3.03805">
        <ele>651</ele>
        <time>2019-03-10T21:31:54Z</time>
      </trkpt>
      <trkpt lat="45.79095" lon="3.03812">
        <ele>649</ele>
        <time>2019-03-10T21:32:54Z</time>
      </trkpt>
      <trkpt lat="45.79101" lon="3.03819">
        <ele>646</ele>
        <time>2019-03-10T21:33:54Z</time>
      </trkpt>
      <trkpt lat="45.79106" lon="3.03838">
        <ele>643</ele>
        <time>2019-03-10T21:34:54Z</time>
      </trkpt>
      <trkpt lat="45.79108" lon="3.03847">
        <ele>641</ele>
        <time>2019-03-10T21:35:54Z</time>
      </trkpt>
      <trkpt lat="45.79104" lon="3.03858">
        <ele>641</ele>
        <time>2019-03-10T21:36:54Z</time>
      </trkpt>
      <trkpt lat="45.79099" lon="3.03865">
        <ele>641</ele>
        <time>2019-03-10T21:37:54Z</time>
      </trkpt>
      <trkpt lat="45.79093" lon="3.03871">
        <ele>642</ele>
        <time>2019-03-10T21:38:54Z</time>
      </trkpt>
      <trkpt lat="45.79088" lon="3.03876">
        <ele>643</ele>
        <time>2019-03-10T21:39:54Z</time>
      </trkpt>
      <trkpt lat="45.79083" lon="3.03884">
        <ele>643</ele>
        <time>2019-03-10T21:40:54Z</time>
      </trkpt>
      <trkpt lat="45.79076" lon="3.03888">
        <ele>643</ele>
        <time>2019-03-10T21:41:54Z</time>
      </trkpt>
      <trkpt lat="45.7907" lon="3.0389">
        <ele>643</ele>
        <time>2019-03-10T21:42:54Z</time>
      </trkpt>
      <trkpt lat="45.79062" lon="3.0389">
        <ele>644</ele>
        <time>2019-03-10T21:43:54Z</time>
      </trkpt>
      <trkpt lat="45.79049" lon="3.03894">
        <ele>645</ele>
        <time>2019-03-10T21:44:54Z</time>
      </trkpt>
      <trkpt lat="45.7904" lon="3.03894">
        <ele>646</ele>
        <time>2019-03-10T21:45:54Z</time>
      </trkpt>
      <trkpt lat="45.79032" lon="3.03897">
        <ele>646</ele>
        <time>2019-03-10T21:46:54Z</time>
      </trkpt>
      <trkpt lat="45.79026" lon="3.03902">
        <ele>646</ele>
        <time>2019-03-10T21:47:54Z</time>
      </trkpt>
      <trkpt lat="45.79021" lon="3.03911">
        <ele>645</ele>
        <time>2019-03-10T21:48:54Z</time>
      </trkpt>
      <trkpt lat="45.79019" lon="3.03918">
        <ele>645</ele>
        <time>2019-03-10T21:49:54Z</time>
      </trkpt>
      <trkpt lat="45.79018" lon="3.03929">
        <ele>644</ele>
        <time>2019-03-10T21:50:54Z</time>
      </trkpt>
      <trkpt lat="45.7902" lon="3.03955">
        <ele>641</ele>
        <time>2019-03-10T21:51:54Z</time>
      </trkpt>
      <trkpt lat="45.79021" lon="3.03962">
        <ele>640</ele>
        <time>2019-03-10T21:52:54Z</time>
      </trkpt>
      <trkpt lat="45.79022" lon="3.03968">
        <ele>640</ele>
        <time>2019-03-10T21:53:54Z</time>
      </trkpt>
      <trkpt lat="45.79034" lon="3.04004">
        <ele>633</ele>
        <time>2019-03-10T21:54:54Z</time>
      </trkpt>
      <trkpt lat="45.79037" lon="3.04013">
        <ele>632</ele>
        <time>2019-03-10T21:55:54Z</time>
      </trkpt>
      <trkpt lat="45.79041" lon="3.04029">
        <ele>630</ele>
        <time>2019-03-10T21:56:54Z</time>
      </trkpt>
      <trkpt lat="45.79044" lon="3.04038">
        <ele>628</ele>
        <time>2019-03-10T21:57:54Z</time>
      </trkpt>
      <trkpt lat="45.79048" lon="3.04046">
        <ele>627</ele>
        <time>2019-03-10T21:58:54Z</time>
      </trkpt>
      <trkpt lat="45.79056" lon="3.04059">
        <ele>624</ele>
        <time>2019-03-10T21:59:54Z</time>
      </trkpt>
      <trkpt lat="45.7906" lon="3.04065">
        <ele>622</ele>
        <time>2019-03-10T22:00:54Z</time>
      </trkpt>
      <trkpt lat="45.7908" lon="3.04092">
        <ele>616</ele>
        <time>2019-03-10T22:01:54Z</time>
      </trkpt>
      <trkpt lat="45.79084" lon="3.041">
        <ele>615</ele>
        <time>2019-03-10T22:02:54Z</time>
      </trkpt>
      <trkpt lat="45.79088" lon="3.04107">
        <ele>614</ele>
        <time>2019-03-10T22:03:54Z</time>
      </trkpt>
      <trkpt lat="45.791" lon="3.04142">
        <ele>610</ele>
        <time>2019-03-10T22:04:54Z</time>
      </trkpt>
      <trkpt lat="45.79103" lon="3.04152">
        <ele>609</ele>
        <time>2019-03-10T22:05:54Z</time>
      </trkpt>
      <trkpt lat="45.79107" lon="3.04169">
        <ele>607</ele>
        <time>2019-03-10T22:06:54Z</time>
      </trkpt>
      <trkpt lat="45.79109" lon="3.04177">
        <ele>606</ele>
        <time>2019-03-10T22:07:54Z</time>
      </trkpt>
      <trkpt lat="45.79112" lon="3.04199">
        <ele>604</ele>
        <time>2019-03-10T22:08:54Z</time>
      </trkpt>
      <trkpt lat="45.79113" lon="3.04205">
        <ele>604</ele>
        <time>2019-03-10T22:09:54Z</time>
      </trkpt>
      <trkpt lat="45.79116" lon="3.04221">
        <ele>602</ele>
        <time>2019-03-10T22:10:54Z</time>
      </trkpt>
      <trkpt lat="45.79118" lon="3.0423">
        <ele>600</ele>
        <time>2019-03-10T22:11:54Z</time>
      </trkpt>
      <trkpt lat="45.79119" lon="3.04238">
        <ele>600</ele>
        <time>2019-03-10T22:12:54Z</time>
      </trkpt>
      <trkpt lat="45.79119" lon="3.04247">
        <ele>600</ele>
        <time>2019-03-10T22:13:54Z</time>
      </trkpt>
      <trkpt lat="45.79126" lon="3.04279">
        <ele>596</ele>
        <time>2019-03-10T22:14:54Z</time>
      </trkpt>
      <trkpt lat="45.79128" lon="3.04286">
        <ele>595</ele>
        <time>2019-03-10T22:15:54Z</time>
      </trkpt>
      <trkpt lat="45.7913" lon="3.04292">
        <ele>594</ele>
        <time>2019-03-10T22:16:54Z</time>
      </trkpt>
      <trkpt lat="45.79134" lon="3.04299">
        <ele>592</ele>
        <time>2019-03-10T22:17:54Z</time>
      </trkpt>
      <trkpt lat="45.79143" lon="3.0431">
        <ele>589</ele>
        <time>2019-03-10T22:18:54Z</time>
      </trkpt>
      <trkpt lat="45.79147" lon="3.04317">
        <ele>587</ele>
        <time>2019-03-10T22:19:54Z</time>
      </trkpt>
      <trkpt lat="45.7915" lon="3.04325">
        <ele>586</ele>
        <time>2019-03-10T22:20:54Z</time>
      </trkpt>
      <trkpt lat="45.79156" lon="3.04354">
        <ele>584</ele>
        <time>2019-03-10T22:21:54Z</time>
      </trkpt>
      <trkpt lat="45.79158" lon="3.04361">
        <ele>583</ele>
        <time>2019-03-10T22:22:54Z</time>
      </trkpt>
      <trkpt lat="45.79164" lon="3.04381">
        <ele>582</ele>
        <time>2019-03-10T22:23:54Z</time>
      </trkpt>
      <trkpt lat="45.79167" lon="3.04388">
        <ele>581</ele>
        <time>2019-03-10T22:24:54Z</time>
      </trkpt>
      <trkpt lat="45.79189" lon="3.04426">
        <ele>574</ele>
        <time>2019-03-10T22:25:54Z</time>
      </trkpt>
      <trkpt lat="45.79193" lon="3.04435">
        <ele>573</ele>
        <time>2019-03-10T22:26:54Z</time>
      </trkpt>
      <trkpt lat="45.7921" lon="3.04481">
        <ele>566</ele>
        <time>2019-03-10T22:27:54Z</time>
      </trkpt>
      <trkpt lat="45.79214" lon="3.0449">
        <ele>564</ele>
        <time>2019-03-10T22:28:54Z</time>
      </trkpt>
      <trkpt lat="45.79236" lon="3.04534">
        <ele>555</ele>
        <time>2019-03-10T22:29:54Z</time>
      </trkpt>
      <trkpt lat="45.79241" lon="3.04544">
        <ele>553</ele>
        <time>2019-03-10T22:30:54Z</time>
      </trkpt>
      <trkpt lat="45.79263" lon="3.04597">
        <ele>548</ele>
        <time>2019-03-10T22:31:54Z</time>
      </trkpt>
      <trkpt lat="45.79267" lon="3.04607">
        <ele>547</ele>
        <time>2019-03-10T22:32:54Z</time>
      </trkpt>
      <trkpt lat="45.79273" lon="3.04628">
        <ele>546</ele>
        <time>2019-03-10T22:33:54Z</time>
      </trkpt>
      <trkpt lat="45.79275" lon="3.04639">
        <ele>546</ele>
        <time>2019-03-10T22:34:54Z</time>
      </trkpt>
      <trkpt lat="45.7928" lon="3.04674">
        <ele>544</ele>
        <time>2019-03-10T22:35:54Z</time>
      </trkpt>
      <trkpt lat="45.79281" lon="3.04683">
        <ele>544</ele>
        <time>2019-03-10T22:36:54Z</time>
      </trkpt>
      <trkpt lat="45.79283" lon="3.04691">
        <ele>543</ele>
        <time>2019-03-10T22:37:54Z</time>
      </trkpt>
      <trkpt lat="45.79285" lon="3.047">
        <ele>542</ele>
        <time>2019-03-10T22:38:54Z</time>
      </trkpt>
      <trkpt lat="45.79287" lon="3.04708">
        <ele>542</ele>
        <time>2019-03-10T22:39:54Z</time>
      </trkpt>
      <trkpt lat="45.79289" lon="3.04716">
        <ele>541</ele>
        <time>2019-03-10T22:40:54Z</time>
      </trkpt>
      <trkpt lat="45.79294" lon="3.0473">
        <ele>540</ele>
        <time>2019-03-10T22:41:54Z</time>
      </trkpt>
      <trkpt lat="45.79297" lon="3.04738">
        <ele>540</ele>
        <time>2019-03-10T22:42:54Z</time>
      </trkpt>
      <trkpt lat="45.793" lon="3.04752">
        <ele>539</ele>
        <time>2019-03-10T22:43:54Z</time>
      </trkpt>
      <trkpt lat="45.79304" lon="3.04763">
        <ele>539</ele>
        <time>2019-03-10T22:44:54Z</time>
      </trkpt>
      <trkpt lat="45.79311" lon="3.04782">
        <ele>538</ele>
        <time>2019-03-10T22:45:54Z</time>
      </trkpt>
      <trkpt lat="45.79314" lon="3.0479">
        <ele>538</ele>
        <time>2019-03-10T22:46:54Z</time>
      </trkpt>
      <trkpt lat="45.79327" lon="3.04815">
        <ele>536</ele>
        <time>2019-03-10T22:47:54Z</time>
      </trkpt>
      <trkpt lat="45.79331" lon="3.04825">
        <ele>536</ele>
        <time>2019-03-10T22:48:54Z</time>
      </trkpt>
      <trkpt lat="45.79338" lon="3.04834">
        <ele>535</ele>
        <time>2019-03-10T22:49:54Z</time>
      </trkpt>
      <trkpt lat="45.79344" lon="3.04842">
        <ele>535</ele>
        <time>2019-03-10T22:50:54Z</time>
      </trkpt>
      <trkpt lat="45.79345" lon="3.04845">
        <ele>535</ele>
        <time>2019-03-10T22:51:54Z</time>
      </trkpt>
      <trkpt lat="45.7935" lon="3.04863">
        <ele>536</ele>
        <time>2019-03-10T22:52:54Z</time>
      </trkpt>
      <trkpt lat="45.79354" lon="3.04871">
        <ele>536</ele>
        <time>2019-03-10T22:53:54Z</time>
      </trkpt>
      <trkpt lat="45.79357" lon="3.04881">
        <ele>536</ele>
        <time>2019-03-10T22:54:54Z</time>
      </trkpt>
      <trkpt lat="45.79358" lon="3.04893">
        <ele>536</ele>
        <time>2019-03-10T22:55:54Z</time>
      </trkpt>
      <trkpt lat="45.79358" lon="3.04904">
        <ele>536</ele>
        <time>2019-03-10T22:56:54Z</time>
      </trkpt>
      <trkpt lat="45.79357" lon="3.04928">
        <ele>537</ele>
        <time>2019-03-10T22:57:54Z</time>
      </trkpt>
      <trkpt lat="45.79358" lon="3.04936">
        <ele>537</ele>
        <time>2019-03-10T22:58:54Z</time>
      </trkpt>
      <trkpt lat="45.79363" lon="3.04943">
        <ele>536</ele>
        <time>2019-03-10T22:59:54Z</time>
      </trkpt>
      <trkpt lat="45.7937" lon="3.04952">
        <ele>536</ele>
        <time>2019-03-10T23:00:54Z</time>
      </trkpt>
      <trkpt lat="45.79407" lon="3.04992">
        <ele>530</ele>
        <time>2019-03-10T23:01:54Z</time>
      </trkpt>
      <trkpt lat="45.79411" lon="3.04997">
        <ele>529</ele>
        <time>2019-03-10T23:02:54Z</time>
      </trkpt>
      <trkpt lat="45.79487" lon="3.05089">
        <ele>523</ele>
        <time>2019-03-10T23:03:54Z</time>
      </trkpt>
      <trkpt lat="45.79494" lon="3.05098">
        <ele>522</ele>
        <time>2019-03-10T23:04:54Z</time>
      </trkpt>
      <trkpt lat="45.795" lon="3.05107">
        <ele>522</ele>
        <time>2019-03-10T23:05:54Z</time>
      </trkpt>
      <trkpt lat="45.79506" lon="3.05116">
        <ele>522</ele>
        <time>2019-03-10T23:06:54Z</time>
      </trkpt>
      <trkpt lat="45.79529" lon="3.05155">
        <ele>521</ele>
        <time>2019-03-10T23:07:54Z</time>
      </trkpt>
      <trkpt lat="45.79531" lon="3.05157">
        <ele>521</ele>
        <time>2019-03-10T23:08:54Z</time>
      </trkpt>
      <trkpt lat="45.7954" lon="3.05193">
        <ele>520</ele>
        <time>2019-03-10T23:09:54Z</time>
      </trkpt>
      <trkpt lat="45.79543" lon="3.05204">
        <ele>520</ele>
        <time>2019-03-10T23:10:54Z</time>
      </trkpt>
      <trkpt lat="45.79547" lon="3.05226">
        <ele>519</ele>
        <time>2019-03-10T23:11:54Z</time>
      </trkpt>
      <trkpt lat="45.79549" lon="3.05238">
        <ele>519</ele>
        <time>2019-03-10T23:12:54Z</time>
      </trkpt>
      <trkpt lat="45.79555" lon="3.05247">
        <ele>519</ele>
        <time>2019-03-10T23:13:54Z</time>
      </trkpt>
      <trkpt lat="45.79569" lon="3.05249">
        <ele>518</ele>
        <time>2019-03-10T23:14:54Z</time>
      </trkpt>
      <trkpt lat="45.79575" lon="3.05257">
        <ele>518</ele>
        <time>2019-03-10T23:15:54Z</time>
      </trkpt>
      <trkpt lat="45.79575" lon="3.05269">
        <ele>519</ele>
        <time>2019-03-10T23:16:54Z</time>
      </trkpt>
      <trkpt lat="45.79575" lon="3.05281">
        <ele>520</ele>
        <time>2019-03-10T23:17:54Z</time>
      </trkpt>
      <trkpt lat="45.7958" lon="3.05304">
        <ele>521</ele>
        <time>2019-03-10T23:18:54Z</time>
      </trkpt>
      <trkpt lat="45.79585" lon="3.05315">
        <ele>522</ele>
        <time>2019-03-10T23:19:54Z</time>
      </trkpt>
      <trkpt lat="45.79602" lon="3.05332">
        <ele>521</ele>
        <time>2019-03-10T23:20:54Z</time>
      </trkpt>
      <trkpt lat="45.79609" lon="3.0534">
        <ele>521</ele>
        <time>2019-03-10T23:21:54Z</time>
      </trkpt>
      <trkpt lat="45.79643" lon="3.05382">
        <ele>519</ele>
        <time>2019-03-10T23:22:54Z</time>
      </trkpt>
      <trkpt lat="45.79647" lon="3.05388">
        <ele>518</ele>
        <time>2019-03-10T23:23:54Z</time>
      </trkpt>
      <trkpt lat="45.79682" lon="3.05428">
        <ele>515</ele>
        <time>2019-03-10T23:24:54Z</time>
      </trkpt>
      <trkpt lat="45.79687" lon="3.05434">
        <ele>514</ele>
        <time>2019-03-10T23:25:54Z</time>
      </trkpt>
      <trkpt lat="45.79692" lon="3.05441">
        <ele>514</ele>
        <time>2019-03-10T23:26:54Z</time>
      </trkpt>
      <trkpt lat="45.797" lon="3.0546">
        <ele>513</ele>
        <time>2019-03-10T23:27:54Z</time>
      </trkpt>
      <trkpt lat="45.79703" lon="3.05465">
        <ele>512</ele>
        <time>2019-03-10T23:28:54Z</time>
      </trkpt>
      <trkpt lat="45.79718" lon="3.05475">
        <ele>511</ele>
        <time>2019-03-10T23:29:54Z</time>
      </trkpt>
      <trkpt lat="45.79723" lon="3.05479">
        <ele>510</ele>
        <time>2019-03-10T23:30:54Z</time>
      </trkpt>
      <trkpt lat="45.79731" lon="3.05483">
        <ele>509</ele>
        <time>2019-03-10T23:31:54Z</time>
      </trkpt>
      <trkpt lat="45.79753" lon="3.0549">
        <ele>507</ele>
        <time>2019-03-10T23:32:54Z</time>
      </trkpt>
      <trkpt lat="45.79761" lon="3.05493">
        <ele>507</ele>
        <time>2019-03-10T23:33:54Z</time>
      </trkpt>
      <trkpt lat="45.79795" lon="3.05508">
        <ele>505</ele>
        <time>2019-03-10T23:34:54Z</time>
      </trkpt>
      <trkpt lat="45.798" lon="3.0551">
        <ele>505</ele>
        <time>2019-03-10T23:35:54Z</time>
      </trkpt>
      <trkpt lat="45.79826" lon="3.05526">
        <ele>504</ele>
        <time>2019-03-10T23:36:54Z</time>
      </trkpt>
      <trkpt lat="45.79831" lon="3.05529">
        <ele>503</ele>
        <time>2019-03-10T23:37:54Z</time>
      </trkpt>
      <trkpt lat="45.79852" lon="3.0554">
        <ele>503</ele>
        <time>2019-03-10T23:38:54Z</time>
      </trkpt>
      <trkpt lat="45.79857" lon="3.05542">
        <ele>503</ele>
        <time>2019-03-10T23:39:54Z</time>
      </trkpt>
      <trkpt lat="45.79867" lon="3.05545">
        <ele>502</ele>
        <time>2019-03-10T23:40:54Z</time>
      </trkpt>
      <trkpt lat="45.79872" lon="3.05545">
        <ele>502</ele>
        <time>2019-03-10T23:41:54Z</time>
      </trkpt>
      <trkpt lat="45.79877" lon="3.05543">
        <ele>502</ele>
        <time>2019-03-10T23:42:54Z</time>
      </trkpt>
      <trkpt lat="45.79881" lon="3.05539">
        <ele>502</ele>
        <time>2019-03-10T23:43:54Z</time>
      </trkpt>
      <trkpt lat="45.79884" lon="3.05535">
        <ele>502</ele>
        <time>2019-03-10T23:44:54Z</time>
      </trkpt>
      <trkpt lat="45.79891" lon="3.05526">
        <ele>502</ele>
        <time>2019-03-10T23:45:54Z</time>
      </trkpt>
      <trkpt lat="45.79902" lon="3.05507">
        <ele>502</ele>
        <time>2019-03-10T23:46:54Z</time>
      </trkpt>
      <trkpt lat="45.79907" lon="3.05497">
        <ele>502</ele>
        <time>2019-03-10T23:47:54Z</time>
      </trkpt>
      <trkpt lat="45.79925" lon="3.05448">
        <ele>502</ele>
        <time>2019-03-10T23:48:54Z</time>
      </trkpt>
      <trkpt lat="45.79928" lon="3.0544">
        <ele>502</ele>
        <time>2019-03-10T23:49:54Z</time>
      </trkpt>
      <trkpt lat="45.79933" lon="3.05434">
        <ele>502</ele>
        <time>2019-03-10T23:50:54Z</time>
      </trkpt>
      <trkpt lat="45.7994" lon="3.05434">
        <ele>502</ele>
        <time>2019-03-10T23:51:54Z</time>
      </trkpt>
      <trkpt lat="45.79947" lon="3.05438">
        <ele>502</ele>
        <time>2019-03-10T23:52:54Z</time>
      </trkpt>
    </trkseg>
  </trk>
</gpx>